Time,TemperatureF,DewpointF,PressureIn,WindDirection,WindDirectionDegrees,WindSpeedMPH,WindSpeedGustMPH,Humidity,HourlyPrecipIn,Conditions,Clouds,dailyrainin,SoftwareType,DateUTC
2013-02-22 00:00:00,35.8,33.8,29.88,North,0,9.2,9.2,92,0.00,,,0.00,VWS V14.01,2013-02-22 06:00:00,
2013-02-22 00:01:00,31.5,28.5,29.91,NE,45,13.2,18.8,88,0.00,,,0.00,VWS V14.01,2013-02-22 06:01:00,
2013-02-22 00:02:00,31.1,27.8,29.91,NE,45,19.7,24.6,88,0.00,,,0.00,VWS V14.01,2013-02-22 06:02:00,
2013-02-22 00:03:00,31.1,27.8,29.91,NE,45,16.8,20.1,88,0.00,,,0.00,VWS V14.01,2013-02-22 06:03:00,
2013-02-22 00:04:00,30.7,27.2,29.91,NNE,22,14.5,16.8,86,0.00,,,0.00,VWS V14.01,2013-02-22 06:04:00,
2013-02-22 00:05:00,35.6,33.7,29.88,NNE,22,8.1,11.0,92,0.00,,,0.00,VWS V14.01,2013-02-22 06:05:00,
2013-02-22 00:06:00,30.4,26.8,29.94,NE,45,15.4,15.4,86,0.00,,,0.00,VWS V14.01,2013-02-22 06:06:00,
2013-02-22 00:07:00,30.2,26.7,29.94,NE,45,12.8,15.4,86,0.00,,,0.00,VWS V14.01,2013-02-22 06:07:00,
2013-02-22 00:08:00,30.2,26.7,29.94,NE,45,15.0,15.0,86,0.00,,,0.00,VWS V14.01,2013-02-22 06:08:00,
2013-02-22 00:09:00,30.2,26.7,29.94,NNE,22,13.2,15.0,86,0.00,,,0.00,VWS V14.01,2013-02-22 06:09:00,
2013-02-22 00:10:00,35.4,33.5,29.91,North,0,10.5,10.5,92,0.00,,,0.00,VWS V14.01,2013-02-22 06:10:00,
2013-02-22 00:11:00,29.8,26.0,29.94,NE,45,11.4,13.6,86,0.00,,,0.00,VWS V14.01,2013-02-22 06:11:00,
2013-02-22 00:12:00,29.8,26.0,29.94,NNE,22,11.0,12.3,86,0.00,,,0.00,VWS V14.01,2013-02-22 06:12:00,
2013-02-22 00:13:00,29.8,26.0,29.94,NE,45,13.2,14.5,86,0.00,,,0.00,VWS V14.01,2013-02-22 06:13:00,
2013-02-22 00:14:00,29.8,26.0,29.94,NE,45,15.0,15.9,86,0.00,,,0.00,VWS V14.01,2013-02-22 06:14:00,
2013-02-22 00:15:00,35.6,33.7,29.91,North,0,10.1,10.1,92,0.00,,,0.00,VWS V14.01,2013-02-22 06:15:00,
2013-02-22 00:16:00,29.8,26.0,29.94,NE,45,16.8,19.7,86,0.00,,,0.00,VWS V14.01,2013-02-22 06:16:00,
2013-02-22 00:17:00,29.5,25.7,29.94,NE,45,11.0,21.9,86,0.00,,,0.00,VWS V14.01,2013-02-22 06:17:00,
2013-02-22 00:18:00,29.1,25.0,29.94,NE,45,12.8,17.0,84,0.00,,,0.00,VWS V14.01,2013-02-22 06:18:00,
2013-02-22 00:19:00,29.1,25.0,29.94,NE,45,16.3,16.3,84,0.00,,,0.00,VWS V14.01,2013-02-22 06:19:00,
2013-02-22 00:20:00,35.2,33.6,29.91,NNE,22,10.5,10.5,94,0.00,,,0.00,VWS V14.01,2013-02-22 06:20:00,
2013-02-22 00:21:00,29.1,25.0,29.94,NE,45,15.0,15.0,84,0.00,,,0.00,VWS V14.01,2013-02-22 06:21:00,
2013-02-22 00:22:00,29.1,25.0,29.94,NE,45,14.1,15.0,84,0.00,,,0.00,VWS V14.01,2013-02-22 06:22:00,
2013-02-22 00:23:00,28.9,24.9,29.94,NE,45,9.6,16.8,84,0.00,,,0.00,VWS V14.01,2013-02-22 06:23:00,
2013-02-22 00:24:00,28.9,25.1,29.94,East,90,19.2,19.2,86,0.00,,,0.00,VWS V14.01,2013-02-22 06:24:00,
2013-02-22 00:25:00,34.7,33.3,29.91,NE,45,10.1,10.1,94,0.00,,,0.00,VWS V14.01,2013-02-22 06:25:00,
2013-02-22 00:26:00,28.8,25.0,29.94,ENE,68,11.9,19.2,86,0.00,,,0.00,VWS V14.01,2013-02-22 06:26:00,
2013-02-22 00:27:00,28.8,25.0,29.94,NE,45,10.5,14.1,86,0.00,,,0.00,VWS V14.01,2013-02-22 06:27:00,
2013-02-22 00:28:00,28.9,25.1,29.94,NE,45,12.3,15.0,86,0.00,,,0.00,VWS V14.01,2013-02-22 06:28:00,
2013-02-22 00:29:00,28.9,25.1,29.94,NE,45,11.0,12.3,86,0.00,,,0.00,VWS V14.01,2013-02-22 06:29:00,
2013-02-22 00:30:00,34.0,32.0,29.91,NE,45,13.6,13.6,92,0.00,,,0.00,VWS V14.01,2013-02-22 06:30:00,
2013-02-22 00:31:00,28.9,25.4,29.94,NE,45,10.5,12.8,86,0.00,,,0.00,VWS V14.01,2013-02-22 06:31:00,
2013-02-22 00:32:00,28.9,25.4,29.94,NE,45,12.8,12.8,86,0.00,,,0.00,VWS V14.01,2013-02-22 06:32:00,
2013-02-22 00:33:00,28.9,25.4,29.94,NNE,22,15.4,17.5,86,0.00,,,0.00,VWS V14.01,2013-02-22 06:33:00,
2013-02-22 00:34:00,28.9,25.4,29.94,NE,45,17.0,22.4,86,0.00,,,0.00,VWS V14.01,2013-02-22 06:34:00,
2013-02-22 00:35:00,33.6,31.4,29.91,NE,45,15.0,19.2,92,0.00,,,0.00,VWS V14.01,2013-02-22 06:35:00,
2013-02-22 00:36:00,28.8,25.2,29.94,NE,45,15.9,18.8,86,0.00,,,0.00,VWS V14.01,2013-02-22 06:36:00,
2013-02-22 00:37:00,28.6,24.8,29.94,ENE,68,17.5,17.5,86,0.00,,,0.00,VWS V14.01,2013-02-22 06:37:00,
2013-02-22 00:39:00,28.6,24.8,29.94,NE,45,19.7,22.8,86,0.00,,,0.00,VWS V14.01,2013-02-22 06:39:00,
2013-02-22 00:40:00,33.3,31.1,29.91,NE,45,16.8,17.9,92,0.00,,,0.00,VWS V14.01,2013-02-22 06:40:00,
2013-02-22 00:42:00,28.4,24.0,29.94,NE,45,16.3,16.8,84,0.00,,,0.00,VWS V14.01,2013-02-22 06:42:00,
2013-02-22 00:43:00,28.2,23.6,29.94,NE,45,21.9,21.9,82,0.00,,,0.00,VWS V14.01,2013-02-22 06:43:00,
2013-02-22 00:44:00,28.2,23.3,29.94,NE,45,15.4,24.6,82,0.00,,,0.00,VWS V14.01,2013-02-22 06:44:00,
2013-02-22 00:45:00,33.1,30.6,29.91,NE,45,10.5,10.5,90,0.00,,,0.00,VWS V14.01,2013-02-22 06:45:00,
2013-02-22 00:46:00,28.2,23.3,29.94,NE,45,19.2,22.4,82,0.00,,,0.00,VWS V14.01,2013-02-22 06:46:00,
2013-02-22 00:47:00,28.0,22.8,29.94,NNE,22,12.8,19.7,80,0.00,,,0.00,VWS V14.01,2013-02-22 06:47:00,
2013-02-22 00:48:00,28.0,22.8,29.94,NE,45,12.8,15.9,80,0.00,,,0.00,VWS V14.01,2013-02-22 06:48:00,
2013-02-22 00:49:00,28.0,22.8,29.94,NE,45,7.2,12.8,80,0.00,,,0.00,VWS V14.01,2013-02-22 06:49:00,
2013-02-22 00:50:00,32.9,30.4,29.91,NE,45,8.3,8.7,90,0.00,,,0.00,VWS V14.01,2013-02-22 06:50:00,
2013-02-22 00:51:00,28.0,22.8,29.94,NE,45,8.1,14.1,80,0.00,,,0.00,VWS V14.01,2013-02-22 06:51:00,
2013-02-22 00:52:00,28.0,22.8,29.94,NE,45,10.5,10.5,80,0.00,,,0.00,VWS V14.01,2013-02-22 06:52:00,
2013-02-22 00:53:00,28.0,22.8,29.94,NE,45,12.8,15.0,80,0.00,,,0.00,VWS V14.01,2013-02-22 06:53:00,
2013-02-22 00:54:00,27.9,22.4,29.94,NE,45,7.6,13.2,80,0.00,,,0.00,VWS V14.01,2013-02-22 06:54:00,
2013-02-22 00:55:00,32.0,29.3,29.91,NE,45,10.1,10.1,90,0.00,,,0.00,VWS V14.01,2013-02-22 06:55:00,
2013-02-22 00:56:00,27.9,22.1,29.94,NE,45,10.5,15.4,78,0.00,,,0.00,VWS V14.01,2013-02-22 06:56:00,
2013-02-22 00:57:00,27.9,22.1,29.94,NNE,22,12.8,15.0,78,0.00,,,0.00,VWS V14.01,2013-02-22 06:57:00,
2013-02-22 00:58:00,27.9,22.1,29.94,NE,45,19.2,19.2,78,0.00,,,0.00,VWS V14.01,2013-02-22 06:58:00,
2013-02-22 00:59:00,27.9,22.1,29.94,NE,45,12.3,19.2,78,0.00,,,0.00,VWS V14.01,2013-02-22 06:59:00,
2013-02-22 01:00:00,31.5,28.5,29.91,NE,45,18.8,18.8,88,0.00,,,0.00,VWS V14.01,2013-02-22 07:00:00,
2013-02-22 01:01:00,27.9,22.1,29.94,NE,45,10.1,14.5,78,0.00,,,0.00,VWS V14.01,2013-02-22 07:01:00,
2013-02-22 01:02:00,27.9,22.1,29.94,NNE,22,10.1,10.1,78,0.00,,,0.00,VWS V14.01,2013-02-22 07:02:00,
2013-02-22 01:03:00,27.9,22.4,29.94,NNE,22,8.3,10.5,80,0.00,,,0.00,VWS V14.01,2013-02-22 07:03:00,
2013-02-22 01:04:00,27.9,22.4,29.94,ENE,68,17.0,17.0,80,0.00,,,0.00,VWS V14.01,2013-02-22 07:04:00,
2013-02-22 01:05:00,30.7,27.2,29.91,NNE,22,15.4,15.4,86,0.00,,,0.00,VWS V14.01,2013-02-22 07:05:00,
2013-02-22 01:06:00,27.9,22.4,29.94,NE,45,10.5,11.0,80,0.00,,,0.00,VWS V14.01,2013-02-22 07:06:00,
2013-02-22 01:07:00,27.9,22.4,29.94,NE,45,8.7,15.4,80,0.00,,,0.00,VWS V14.01,2013-02-22 07:07:00,
2013-02-22 01:08:00,27.9,22.4,29.94,NE,45,10.5,12.8,80,0.00,,,0.00,VWS V14.01,2013-02-22 07:08:00,
2013-02-22 01:09:00,27.9,22.6,29.94,NE,45,17.5,17.5,80,0.00,,,0.00,VWS V14.01,2013-02-22 07:09:00,
2013-02-22 01:10:00,29.8,26.0,29.94,NNE,22,12.8,12.8,86,0.00,,,0.00,VWS V14.01,2013-02-22 07:10:00,
2013-02-22 01:11:00,27.5,22.0,29.94,NE,45,22.8,22.8,80,0.00,,,0.00,VWS V14.01,2013-02-22 07:11:00,
2013-02-22 01:12:00,27.5,22.0,29.94,NE,45,15.0,22.8,80,0.00,,,0.00,VWS V14.01,2013-02-22 07:12:00,
2013-02-22 01:13:00,27.5,22.0,29.94,ENE,68,19.7,19.7,80,0.00,,,0.00,VWS V14.01,2013-02-22 07:13:00,
2013-02-22 01:14:00,27.3,21.8,29.94,NE,45,12.3,20.6,80,0.00,,,0.00,VWS V14.01,2013-02-22 07:14:00,
2013-02-22 01:15:00,29.8,26.0,29.94,NE,45,15.0,17.5,86,0.00,,,0.00,VWS V14.01,2013-02-22 07:15:00,
2013-02-22 01:16:00,27.3,21.8,29.94,ENE,68,14.1,14.5,80,0.00,,,0.00,VWS V14.01,2013-02-22 07:16:00,
2013-02-22 01:17:00,27.3,21.8,29.94,ENE,68,15.0,15.4,80,0.00,,,0.00,VWS V14.01,2013-02-22 07:17:00,
2013-02-22 01:18:00,27.0,21.2,29.94,NE,45,15.0,18.3,78,0.00,,,0.00,VWS V14.01,2013-02-22 07:18:00,
2013-02-22 01:19:00,27.0,21.2,29.94,NE,45,13.2,19.2,78,0.00,,,0.00,VWS V14.01,2013-02-22 07:19:00,
2013-02-22 01:20:00,29.1,25.0,29.94,NE,45,15.0,15.0,84,0.00,,,0.00,VWS V14.01,2013-02-22 07:20:00,
2013-02-22 01:22:00,27.0,20.9,29.94,ENE,68,17.5,17.5,78,0.00,,,0.00,VWS V14.01,2013-02-22 07:22:00,
2013-02-22 01:23:00,26.8,20.7,29.94,NE,45,13.2,17.5,78,0.00,,,0.00,VWS V14.01,2013-02-22 07:23:00,
2013-02-22 01:24:00,26.8,20.7,29.94,NE,45,14.5,14.5,78,0.00,,,0.00,VWS V14.01,2013-02-22 07:24:00,
2013-02-22 01:25:00,28.9,25.1,29.94,NE,45,15.4,19.2,86,0.00,,,0.00,VWS V14.01,2013-02-22 07:25:00,
2013-02-22 01:26:00,26.6,20.5,29.94,East,90,11.9,17.5,78,0.00,,,0.00,VWS V14.01,2013-02-22 07:26:00,
2013-02-22 01:28:00,26.4,20.0,29.94,NE,45,11.0,15.4,76,0.00,,,0.00,VWS V14.01,2013-02-22 07:28:00,
2013-02-22 01:29:00,26.4,20.0,29.94,NE,45,15.4,15.4,76,0.00,,,0.00,VWS V14.01,2013-02-22 07:29:00,
2013-02-22 01:30:00,28.9,25.4,29.94,NE,45,10.1,12.8,86,0.00,,,0.00,VWS V14.01,2013-02-22 07:30:00,
2013-02-22 01:31:00,26.2,19.9,29.94,NE,45,17.0,19.7,76,0.00,,,0.00,VWS V14.01,2013-02-22 07:31:00,
2013-02-22 01:32:00,26.1,19.4,29.94,ENE,68,17.0,17.0,76,0.00,,,0.00,VWS V14.01,2013-02-22 07:32:00,
2013-02-22 01:33:00,26.1,18.8,29.94,ENE,68,18.3,18.3,74,0.00,,,0.00,VWS V14.01,2013-02-22 07:33:00,
2013-02-22 01:34:00,26.1,18.8,29.94,NE,45,16.3,19.7,74,0.00,,,0.00,VWS V14.01,2013-02-22 07:34:00,
2013-02-22 01:35:00,28.9,25.4,29.94,NE,45,12.3,15.0,86,0.00,,,0.00,VWS V14.01,2013-02-22 07:35:00,
2013-02-22 01:36:00,25.9,18.6,29.94,East,90,16.8,17.5,74,0.00,,,0.00,VWS V14.01,2013-02-22 07:36:00,
2013-02-22 01:37:00,25.7,18.1,29.94,NE,45,15.0,22.8,72,0.00,,,0.00,VWS V14.01,2013-02-22 07:37:00,
2013-02-22 01:38:00,25.7,17.8,29.94,NE,45,8.3,15.9,72,0.00,,,0.00,VWS V14.01,2013-02-22 07:38:00,
2013-02-22 01:39:00,25.7,17.8,29.94,NE,45,12.8,12.8,72,0.00,,,0.00,VWS V14.01,2013-02-22 07:39:00,
2013-02-22 01:40:00,28.4,24.0,29.94,NE,45,13.2,15.4,84,0.00,,,0.00,VWS V14.01,2013-02-22 07:40:00,
2013-02-22 01:41:00,25.3,16.8,29.94,NE,45,14.5,22.4,70,0.00,,,0.00,VWS V14.01,2013-02-22 07:41:00,
2013-02-22 01:42:00,25.3,16.8,29.94,NE,45,15.4,23.7,70,0.00,,,0.00,VWS V14.01,2013-02-22 07:42:00,
2013-02-22 01:43:00,25.3,16.8,29.94,NE,45,17.5,25.5,70,0.00,,,0.00,VWS V14.01,2013-02-22 07:43:00,
2013-02-22 01:44:00,25.2,16.3,29.94,NE,45,11.0,19.2,68,0.00,,,0.00,VWS V14.01,2013-02-22 07:44:00,
2013-02-22 01:45:00,28.2,23.3,29.94,NE,45,16.3,22.4,82,0.00,,,0.00,VWS V14.01,2013-02-22 07:45:00,
2013-02-22 01:46:00,25.2,16.6,29.94,NE,45,15.4,21.0,70,0.00,,,0.00,VWS V14.01,2013-02-22 07:46:00,
2013-02-22 01:47:00,25.2,16.6,29.94,NE,45,14.5,15.4,70,0.00,,,0.00,VWS V14.01,2013-02-22 07:47:00,
2013-02-22 01:48:00,25.2,16.9,29.94,NE,45,11.4,14.5,70,0.00,,,0.00,VWS V14.01,2013-02-22 07:48:00,
2013-02-22 01:49:00,25.2,16.9,29.94,NE,45,13.2,13.2,70,0.00,,,0.00,VWS V14.01,2013-02-22 07:49:00,
2013-02-22 01:50:00,28.0,22.8,29.94,NE,45,11.4,11.4,80,0.00,,,0.00,VWS V14.01,2013-02-22 07:50:00,
2013-02-22 01:51:00,25.0,16.8,29.94,NE,45,15.9,16.3,70,0.00,,,0.00,VWS V14.01,2013-02-22 07:51:00,
2013-02-22 01:52:00,25.0,16.8,29.94,NE,45,12.8,15.9,70,0.00,,,0.00,VWS V14.01,2013-02-22 07:52:00,
2013-02-22 01:53:00,25.0,17.1,29.94,ENE,68,15.0,15.4,72,0.00,,,0.00,VWS V14.01,2013-02-22 07:53:00,
2013-02-22 01:54:00,24.8,16.9,29.94,NE,45,13.6,15.4,72,0.00,,,0.00,VWS V14.01,2013-02-22 07:54:00,
2013-02-22 01:55:00,28.0,22.5,29.94,NE,45,15.4,15.4,80,0.00,,,0.00,VWS V14.01,2013-02-22 07:55:00,
2013-02-22 01:56:00,24.6,16.7,29.94,ENE,68,12.8,17.0,72,0.00,,,0.00,VWS V14.01,2013-02-22 07:56:00,
2013-02-22 01:57:00,24.6,16.7,29.94,East,90,13.6,17.5,72,0.00,,,0.00,VWS V14.01,2013-02-22 07:57:00,
2013-02-22 01:58:00,24.6,16.7,29.94,NE,45,12.3,17.0,72,0.00,,,0.00,VWS V14.01,2013-02-22 07:58:00,
2013-02-22 01:59:00,24.6,16.7,29.94,East,90,12.3,13.2,72,0.00,,,0.00,VWS V14.01,2013-02-22 07:59:00,
2013-02-22 02:00:00,27.9,22.0,29.94,NE,45,8.1,8.1,78,0.00,,,0.00,VWS V14.01,2013-02-22 08:00:00,
2013-02-22 02:01:00,24.4,16.6,29.94,NE,45,12.8,14.5,72,0.00,,,0.00,VWS V14.01,2013-02-22 08:01:00,
2013-02-22 02:02:00,24.4,16.6,29.94,NE,45,12.8,12.8,72,0.00,,,0.00,VWS V14.01,2013-02-22 08:02:00,
2013-02-22 02:03:00,24.4,16.6,29.94,ENE,68,17.0,18.3,72,0.00,,,0.00,VWS V14.01,2013-02-22 08:03:00,
2013-02-22 02:04:00,24.4,17.2,29.94,ENE,68,10.5,17.0,74,0.00,,,0.00,VWS V14.01,2013-02-22 08:04:00,
2013-02-22 02:05:00,27.9,22.4,29.94,NE,45,9.6,10.1,80,0.00,,,0.00,VWS V14.01,2013-02-22 08:05:00,
2013-02-22 02:06:00,24.4,17.2,29.91,NE,45,15.4,15.4,74,0.00,,,0.00,VWS V14.01,2013-02-22 08:06:00,
2013-02-22 02:07:00,24.4,17.2,29.91,NE,45,13.2,15.4,74,0.00,,,0.00,VWS V14.01,2013-02-22 08:07:00,
2013-02-22 02:08:00,24.4,17.2,29.91,NE,45,15.4,15.4,74,0.00,,,0.00,VWS V14.01,2013-02-22 08:08:00,
2013-02-22 02:09:00,24.3,17.0,29.91,NE,45,13.2,15.4,74,0.00,,,0.00,VWS V14.01,2013-02-22 08:09:00,
2013-02-22 02:10:00,27.7,22.5,29.94,NE,45,21.9,21.9,80,0.00,,,0.00,VWS V14.01,2013-02-22 08:10:00,
2013-02-22 02:11:00,24.3,17.3,29.91,NE,45,14.5,14.5,74,0.00,,,0.00,VWS V14.01,2013-02-22 08:11:00,
2013-02-22 02:12:00,24.1,17.2,29.91,NE,45,11.4,14.5,74,0.00,,,0.00,VWS V14.01,2013-02-22 08:12:00,
2013-02-22 02:13:00,24.1,17.2,29.91,NE,45,10.5,12.8,74,0.00,,,0.00,VWS V14.01,2013-02-22 08:13:00,
2013-02-22 02:14:00,24.1,17.5,29.91,NE,45,5.8,10.5,76,0.00,,,0.00,VWS V14.01,2013-02-22 08:14:00,
2013-02-22 02:15:00,27.3,21.8,29.94,NE,45,13.6,21.9,80,0.00,,,0.00,VWS V14.01,2013-02-22 08:15:00,
2013-02-22 02:16:00,24.1,17.5,29.91,NE,45,10.5,10.5,76,0.00,,,0.00,VWS V14.01,2013-02-22 08:16:00,
2013-02-22 02:17:00,24.1,17.5,29.91,NE,45,8.7,10.5,76,0.00,,,0.00,VWS V14.01,2013-02-22 08:17:00,
2013-02-22 02:18:00,23.9,17.3,29.91,NE,45,7.6,8.7,76,0.00,,,0.00,VWS V14.01,2013-02-22 08:18:00,
2013-02-22 02:19:00,23.9,17.3,29.91,NE,45,8.7,8.7,76,0.00,,,0.00,VWS V14.01,2013-02-22 08:19:00,
2013-02-22 02:20:00,27.0,21.2,29.94,NE,45,17.5,17.5,78,0.00,,,0.00,VWS V14.01,2013-02-22 08:20:00,
2013-02-22 02:21:00,23.9,17.3,29.94,NE,45,10.5,15.0,76,0.00,,,0.00,VWS V14.01,2013-02-22 08:21:00,
2013-02-22 02:22:00,23.7,17.1,29.94,NE,45,7.6,10.5,76,0.00,,,0.00,VWS V14.01,2013-02-22 08:22:00,
2013-02-22 02:23:00,23.7,17.1,29.94,NE,45,8.3,8.3,76,0.00,,,0.00,VWS V14.01,2013-02-22 08:23:00,
2013-02-22 02:24:00,23.7,17.1,29.94,NNE,22,5.4,8.3,76,0.00,,,0.00,VWS V14.01,2013-02-22 08:24:00,
2013-02-22 02:25:00,26.6,20.5,29.94,ENE,68,11.0,13.2,78,0.00,,,0.00,VWS V14.01,2013-02-22 08:25:00,
2013-02-22 02:26:00,23.7,17.1,29.94,NE,45,8.1,11.0,76,0.00,,,0.00,VWS V14.01,2013-02-22 08:26:00,
2013-02-22 02:27:00,23.7,17.1,29.94,NE,45,12.8,15.4,76,0.00,,,0.00,VWS V14.01,2013-02-22 08:27:00,
2013-02-22 02:28:00,23.7,17.1,29.94,NE,45,11.0,14.5,76,0.00,,,0.00,VWS V14.01,2013-02-22 08:28:00,
2013-02-22 02:29:00,23.7,17.1,29.94,NE,45,10.1,11.0,76,0.00,,,0.00,VWS V14.01,2013-02-22 08:29:00,
2013-02-22 02:30:00,26.4,20.0,29.94,NE,45,19.7,19.7,76,0.00,,,0.00,VWS V14.01,2013-02-22 08:30:00,
2013-02-22 02:31:00,23.7,17.1,29.94,ENE,68,11.0,11.0,76,0.00,,,0.00,VWS V14.01,2013-02-22 08:31:00,
2013-02-22 02:32:00,23.5,17.0,29.94,NE,45,15.4,17.0,76,0.00,,,0.00,VWS V14.01,2013-02-22 08:32:00,
2013-02-22 02:33:00,23.5,16.6,29.94,NE,45,9.2,15.4,74,0.00,,,0.00,VWS V14.01,2013-02-22 08:33:00,
2013-02-22 02:34:00,23.5,16.6,29.94,NE,45,12.3,12.3,74,0.00,,,0.00,VWS V14.01,2013-02-22 08:34:00,
2013-02-22 02:35:00,25.9,18.6,29.94,NE,45,13.2,15.9,74,0.00,,,0.00,VWS V14.01,2013-02-22 08:35:00,
2013-02-22 02:36:00,23.5,16.3,29.94,NE,45,6.3,11.4,74,0.00,,,0.00,VWS V14.01,2013-02-22 08:36:00,
2013-02-22 02:37:00,23.5,16.3,29.94,NE,45,13.6,13.6,74,0.00,,,0.00,VWS V14.01,2013-02-22 08:37:00,
2013-02-22 02:38:00,23.5,16.6,29.94,NE,45,10.5,13.6,74,0.00,,,0.00,VWS V14.01,2013-02-22 08:38:00,
2013-02-22 02:39:00,23.5,16.6,29.94,NE,45,8.7,11.9,74,0.00,,,0.00,VWS V14.01,2013-02-22 08:39:00,
2013-02-22 02:40:00,25.3,17.1,29.94,NE,45,21.0,21.0,70,0.00,,,0.00,VWS V14.01,2013-02-22 08:40:00,
2013-02-22 02:41:00,23.5,16.6,29.94,NE,45,12.8,12.8,74,0.00,,,0.00,VWS V14.01,2013-02-22 08:41:00,
2013-02-22 02:42:00,23.5,16.6,29.94,NE,45,8.1,12.8,74,0.00,,,0.00,VWS V14.01,2013-02-22 08:42:00,
2013-02-22 02:43:00,23.5,16.6,29.94,NE,45,8.3,8.3,74,0.00,,,0.00,VWS V14.01,2013-02-22 08:43:00,
2013-02-22 02:44:00,23.5,16.6,29.94,NE,45,8.7,9.6,74,0.00,,,0.00,VWS V14.01,2013-02-22 08:44:00,
2013-02-22 02:45:00,25.2,16.6,29.94,NE,45,21.0,21.0,70,0.00,,,0.00,VWS V14.01,2013-02-22 08:45:00,
2013-02-22 02:46:00,23.5,16.6,29.94,NE,45,12.3,12.3,74,0.00,,,0.00,VWS V14.01,2013-02-22 08:46:00,
2013-02-22 02:47:00,23.5,16.6,29.94,NE,45,12.8,12.8,74,0.00,,,0.00,VWS V14.01,2013-02-22 08:47:00,
2013-02-22 02:48:00,23.4,16.5,29.94,NE,45,7.6,15.0,74,0.00,,,0.00,VWS V14.01,2013-02-22 08:48:00,
2013-02-22 02:49:00,23.4,16.5,29.94,NE,45,10.5,10.5,74,0.00,,,0.00,VWS V14.01,2013-02-22 08:49:00,
2013-02-22 02:50:00,25.0,17.1,29.94,ENE,68,16.3,16.3,72,0.00,,,0.00,VWS V14.01,2013-02-22 08:50:00,
2013-02-22 02:51:00,23.4,16.5,29.94,NNE,22,10.1,10.5,74,0.00,,,0.00,VWS V14.01,2013-02-22 08:51:00,
2013-02-22 02:52:00,23.2,16.3,29.94,NE,45,12.3,16.8,74,0.00,,,0.00,VWS V14.01,2013-02-22 08:52:00,
2013-02-22 02:53:00,23.0,16.1,29.94,East,90,12.3,15.4,74,0.00,,,0.00,VWS V14.01,2013-02-22 08:53:00,
2013-02-22 02:54:00,23.2,16.0,29.94,ENE,68,9.2,12.3,74,0.00,,,0.00,VWS V14.01,2013-02-22 08:54:00,
2013-02-22 02:55:00,24.6,16.7,29.94,NE,45,13.6,13.6,72,0.00,,,0.00,VWS V14.01,2013-02-22 08:55:00,
2013-02-22 02:56:00,23.2,15.7,29.94,NE,45,10.5,10.5,72,0.00,,,0.00,VWS V14.01,2013-02-22 08:56:00,
2013-02-22 02:57:00,23.2,15.7,29.94,NE,45,8.1,10.5,72,0.00,,,0.00,VWS V14.01,2013-02-22 08:57:00,
2013-02-22 02:58:00,23.2,15.7,29.94,East,90,12.3,12.3,72,0.00,,,0.00,VWS V14.01,2013-02-22 08:58:00,
2013-02-22 02:59:00,23.2,15.7,29.94,ENE,68,10.5,12.3,72,0.00,,,0.00,VWS V14.01,2013-02-22 08:59:00,
2013-02-22 03:00:00,24.4,16.6,29.94,ENE,68,14.5,16.8,72,0.00,,,0.00,VWS V14.01,2013-02-22 09:00:00,
2013-02-22 03:01:00,23.2,15.7,29.94,East,90,8.7,11.9,72,0.00,,,0.00,VWS V14.01,2013-02-22 09:01:00,
2013-02-22 03:02:00,23.2,15.7,29.94,NE,45,8.1,8.7,72,0.00,,,0.00,VWS V14.01,2013-02-22 09:02:00,
2013-02-22 03:03:00,23.2,15.7,29.94,NE,45,11.0,11.0,72,0.00,,,0.00,VWS V14.01,2013-02-22 09:03:00,
2013-02-22 03:04:00,23.0,15.2,29.94,NE,45,14.5,14.5,72,0.00,,,0.00,VWS V14.01,2013-02-22 09:04:00,
2013-02-22 03:05:00,24.4,17.2,29.94,NE,45,10.1,10.1,74,0.00,,,0.00,VWS V14.01,2013-02-22 09:05:00,
2013-02-22 03:06:00,23.0,15.2,29.94,NE,45,10.1,11.0,72,0.00,,,0.00,VWS V14.01,2013-02-22 09:06:00,
2013-02-22 03:07:00,23.0,15.2,29.94,NE,45,7.2,10.1,72,0.00,,,0.00,VWS V14.01,2013-02-22 09:07:00,
2013-02-22 03:08:00,23.0,15.2,29.94,NE,45,5.4,7.2,72,0.00,,,0.00,VWS V14.01,2013-02-22 09:08:00,
2013-02-22 03:09:00,23.0,15.2,29.94,NE,45,7.6,8.1,72,0.00,,,0.00,VWS V14.01,2013-02-22 09:09:00,
2013-02-22 03:10:00,24.3,17.3,29.91,NE,45,14.5,14.5,74,0.00,,,0.00,VWS V14.01,2013-02-22 09:10:00,
2013-02-22 03:11:00,23.0,15.5,29.94,NE,45,8.1,8.3,72,0.00,,,0.00,VWS V14.01,2013-02-22 09:11:00,
2013-02-22 03:12:00,23.0,15.5,29.94,NE,45,8.3,11.0,72,0.00,,,0.00,VWS V14.01,2013-02-22 09:12:00,
2013-02-22 03:13:00,23.0,15.5,29.94,NE,45,5.8,8.3,72,0.00,,,0.00,VWS V14.01,2013-02-22 09:13:00,
2013-02-22 03:14:00,23.0,15.8,29.94,NE,45,5.8,5.8,74,0.00,,,0.00,VWS V14.01,2013-02-22 09:14:00,
2013-02-22 03:15:00,24.1,17.5,29.91,NE,45,10.1,10.1,76,0.00,,,0.00,VWS V14.01,2013-02-22 09:15:00,
2013-02-22 03:16:00,22.8,15.6,29.94,NE,45,6.3,6.7,74,0.00,,,0.00,VWS V14.01,2013-02-22 09:16:00,
2013-02-22 03:17:00,22.8,15.6,29.94,NE,45,7.6,8.1,74,0.00,,,0.00,VWS V14.01,2013-02-22 09:17:00,
2013-02-22 03:18:00,22.8,15.6,29.94,NE,45,9.6,10.1,74,0.00,,,0.00,VWS V14.01,2013-02-22 09:18:00,
2013-02-22 03:19:00,22.8,15.9,29.94,NE,45,8.7,11.4,74,0.00,,,0.00,VWS V14.01,2013-02-22 09:19:00,
2013-02-22 03:20:00,23.9,17.3,29.91,NE,45,14.5,14.5,76,0.00,,,0.00,VWS V14.01,2013-02-22 09:20:00,
2013-02-22 03:21:00,22.8,15.9,29.94,NE,45,11.0,11.0,74,0.00,,,0.00,VWS V14.01,2013-02-22 09:21:00,
2013-02-22 03:22:00,22.8,15.9,29.94,NE,45,13.2,13.2,74,0.00,,,0.00,VWS V14.01,2013-02-22 09:22:00,
2013-02-22 03:23:00,22.6,15.8,29.94,ENE,68,11.0,13.2,74,0.00,,,0.00,VWS V14.01,2013-02-22 09:23:00,
2013-02-22 03:24:00,22.6,15.8,29.94,NE,45,12.3,13.2,74,0.00,,,0.00,VWS V14.01,2013-02-22 09:24:00,
2013-02-22 03:25:00,23.7,17.1,29.94,NE,45,11.0,11.0,76,0.00,,,0.00,VWS V14.01,2013-02-22 09:25:00,
2013-02-22 03:26:00,22.6,15.8,29.94,ENE,68,8.7,8.7,74,0.00,,,0.00,VWS V14.01,2013-02-22 09:26:00,
2013-02-22 03:27:00,22.6,15.8,29.94,NE,45,8.1,8.7,74,0.00,,,0.00,VWS V14.01,2013-02-22 09:27:00,
2013-02-22 03:28:00,22.6,15.8,29.94,NE,45,7.6,8.1,74,0.00,,,0.00,VWS V14.01,2013-02-22 09:28:00,
2013-02-22 03:29:00,22.6,15.8,29.94,NE,45,10.1,10.1,74,0.00,,,0.00,VWS V14.01,2013-02-22 09:29:00,
2013-02-22 03:30:00,23.7,17.1,29.94,NE,45,10.5,10.5,76,0.00,,,0.00,VWS V14.01,2013-02-22 09:30:00,
2013-02-22 03:31:00,22.5,15.6,29.94,NE,45,10.5,10.5,74,0.00,,,0.00,VWS V14.01,2013-02-22 09:31:00,
2013-02-22 03:32:00,22.5,15.6,29.94,NE,45,11.0,12.8,74,0.00,,,0.00,VWS V14.01,2013-02-22 09:32:00,
2013-02-22 03:33:00,22.5,15.3,29.94,ENE,68,11.0,11.0,74,0.00,,,0.00,VWS V14.01,2013-02-22 09:33:00,
2013-02-22 03:34:00,22.6,15.5,29.94,ENE,68,8.3,11.4,74,0.00,,,0.00,VWS V14.01,2013-02-22 09:34:00,
2013-02-22 03:35:00,23.5,16.3,29.94,NE,45,9.6,11.4,74,0.00,,,0.00,VWS V14.01,2013-02-22 09:35:00,
2013-02-22 03:36:00,22.5,15.3,29.94,NE,45,8.7,9.6,74,0.00,,,0.00,VWS V14.01,2013-02-22 09:36:00,
2013-02-22 03:37:00,22.5,15.3,29.94,ENE,68,7.6,8.7,74,0.00,,,0.00,VWS V14.01,2013-02-22 09:37:00,
2013-02-22 03:38:00,22.5,15.3,29.94,NE,45,11.0,11.0,74,0.00,,,0.00,VWS V14.01,2013-02-22 09:38:00,
2013-02-22 03:39:00,22.5,15.3,29.94,ENE,68,8.3,11.0,74,0.00,,,0.00,VWS V14.01,2013-02-22 09:39:00,
2013-02-22 03:40:00,23.5,16.6,29.94,NE,45,11.4,11.4,74,0.00,,,0.00,VWS V14.01,2013-02-22 09:40:00,
2013-02-22 03:41:00,22.5,15.3,29.94,NE,45,8.7,8.7,74,0.00,,,0.00,VWS V14.01,2013-02-22 09:41:00,
2013-02-22 03:42:00,22.5,15.3,29.94,NE,45,8.7,8.7,74,0.00,,,0.00,VWS V14.01,2013-02-22 09:42:00,
2013-02-22 03:43:00,22.5,15.3,29.94,ENE,68,9.2,12.8,74,0.00,,,0.00,VWS V14.01,2013-02-22 09:43:00,
2013-02-22 03:44:00,22.5,15.3,29.94,ENE,68,8.1,10.1,74,0.00,,,0.00,VWS V14.01,2013-02-22 09:44:00,
2013-02-22 03:45:00,23.5,16.6,29.94,NE,45,10.1,10.1,74,0.00,,,0.00,VWS V14.01,2013-02-22 09:45:00,
2013-02-22 03:46:00,22.3,14.8,29.94,NE,45,10.1,10.1,72,0.00,,,0.00,VWS V14.01,2013-02-22 09:46:00,
2013-02-22 03:47:00,22.3,14.8,29.94,East,90,8.3,10.1,72,0.00,,,0.00,VWS V14.01,2013-02-22 09:47:00,
2013-02-22 03:48:00,22.3,14.8,29.94,NE,45,11.9,12.3,72,0.00,,,0.00,VWS V14.01,2013-02-22 09:48:00,
2013-02-22 03:49:00,22.3,14.8,29.94,NE,45,8.7,11.9,72,0.00,,,0.00,VWS V14.01,2013-02-22 09:49:00,
2013-02-22 03:50:00,23.4,16.5,29.94,NE,45,10.5,10.5,74,0.00,,,0.00,VWS V14.01,2013-02-22 09:50:00,
2013-02-22 03:51:00,22.3,14.8,29.94,NE,45,7.6,10.1,72,0.00,,,0.00,VWS V14.01,2013-02-22 09:51:00,
2013-02-22 03:52:00,22.3,14.8,29.94,NE,45,4.9,9.2,72,0.00,,,0.00,VWS V14.01,2013-02-22 09:52:00,
2013-02-22 03:53:00,22.3,14.8,29.94,NE,45,6.3,7.2,72,0.00,,,0.00,VWS V14.01,2013-02-22 09:53:00,
2013-02-22 03:54:00,22.3,14.8,29.94,NE,45,7.6,7.6,72,0.00,,,0.00,VWS V14.01,2013-02-22 09:54:00,
2013-02-22 03:55:00,23.2,15.7,29.94,ENE,68,8.3,9.2,72,0.00,,,0.00,VWS V14.01,2013-02-22 09:55:00,
2013-02-22 03:56:00,22.3,14.8,29.94,NE,45,8.1,8.1,72,0.00,,,0.00,VWS V14.01,2013-02-22 09:56:00,
2013-02-22 03:57:00,22.3,14.8,29.94,NE,45,7.6,8.3,72,0.00,,,0.00,VWS V14.01,2013-02-22 09:57:00,
2013-02-22 03:59:00,22.3,14.8,29.94,NE,45,5.4,7.6,72,0.00,,,0.00,VWS V14.01,2013-02-22 09:59:00,
2013-02-22 04:00:00,23.2,15.7,29.94,NE,45,11.9,11.9,72,0.00,,,0.00,VWS V14.01,2013-02-22 10:00:00,
2013-02-22 04:01:00,22.3,15.1,29.94,NE,45,7.6,7.6,74,0.00,,,0.00,VWS V14.01,2013-02-22 10:01:00,
2013-02-22 04:02:00,22.3,15.1,29.94,NE,45,6.3,7.6,74,0.00,,,0.00,VWS V14.01,2013-02-22 10:02:00,
2013-02-22 04:03:00,22.1,14.9,29.94,NE,45,5.4,7.6,74,0.00,,,0.00,VWS V14.01,2013-02-22 10:03:00,
2013-02-22 04:04:00,22.1,14.9,29.94,NE,45,7.6,8.1,74,0.00,,,0.00,VWS V14.01,2013-02-22 10:04:00,
2013-02-22 04:05:00,23.0,15.2,29.94,NE,45,10.5,10.5,72,0.00,,,0.00,VWS V14.01,2013-02-22 10:05:00,
2013-02-22 04:06:00,22.1,15.2,29.97,NE,45,6.3,10.5,74,0.00,,,0.00,VWS V14.01,2013-02-22 10:06:00,
2013-02-22 04:07:00,22.1,15.2,29.97,NE,45,5.4,8.1,74,0.00,,,0.00,VWS V14.01,2013-02-22 10:07:00,
2013-02-22 04:08:00,22.1,15.2,29.97,NE,45,4.9,5.8,74,0.00,,,0.00,VWS V14.01,2013-02-22 10:08:00,
2013-02-22 04:10:00,23.0,15.5,29.94,NE,45,5.8,6.3,72,0.00,,,0.00,VWS V14.01,2013-02-22 10:10:00,
2013-02-22 04:11:00,22.3,15.7,29.97,NE,45,8.1,8.1,76,0.00,,,0.00,VWS V14.01,2013-02-22 10:11:00,
2013-02-22 04:12:00,22.1,15.6,29.97,NE,45,8.1,8.1,76,0.00,,,0.00,VWS V14.01,2013-02-22 10:12:00,
2013-02-22 04:13:00,22.1,15.6,29.97,NE,45,5.8,8.1,76,0.00,,,0.00,VWS V14.01,2013-02-22 10:13:00,
2013-02-22 04:14:00,22.1,15.6,29.97,NE,45,9.6,10.1,76,0.00,,,0.00,VWS V14.01,2013-02-22 10:14:00,
2013-02-22 04:15:00,23.0,15.8,29.94,NE,45,5.8,5.8,74,0.00,,,0.00,VWS V14.01,2013-02-22 10:15:00,
2013-02-22 04:16:00,22.1,15.6,29.97,NE,45,7.6,7.6,76,0.00,,,0.00,VWS V14.01,2013-02-22 10:16:00,
2013-02-22 04:17:00,22.1,15.9,29.97,NE,45,8.1,8.1,76,0.00,,,0.00,VWS V14.01,2013-02-22 10:17:00,
2013-02-22 04:18:00,22.1,15.9,29.97,NE,45,8.3,8.3,76,0.00,,,0.00,VWS V14.01,2013-02-22 10:18:00,
2013-02-22 04:19:00,22.1,15.9,29.97,NE,45,8.7,8.7,76,0.00,,,0.00,VWS V14.01,2013-02-22 10:19:00,
2013-02-22 04:20:00,22.8,15.9,29.94,NE,45,10.1,10.5,74,0.00,,,0.00,VWS V14.01,2013-02-22 10:20:00,
2013-02-22 04:21:00,22.1,15.9,29.97,NNE,22,7.6,8.3,76,0.00,,,0.00,VWS V14.01,2013-02-22 10:21:00,
2013-02-22 04:22:00,22.1,15.9,29.97,NNE,22,5.8,8.1,76,0.00,,,0.00,VWS V14.01,2013-02-22 10:22:00,
2013-02-22 04:23:00,22.3,16.0,29.97,NNE,22,8.3,8.3,76,0.00,,,0.00,VWS V14.01,2013-02-22 10:23:00,
2013-02-22 04:24:00,22.3,16.0,29.97,NE,45,6.3,8.3,76,0.00,,,0.00,VWS V14.01,2013-02-22 10:24:00,
2013-02-22 04:25:00,22.6,15.8,29.94,ENE,68,8.7,8.7,74,0.00,,,0.00,VWS V14.01,2013-02-22 10:25:00,
2013-02-22 04:26:00,22.3,16.0,29.97,NE,45,6.3,8.1,76,0.00,,,0.00,VWS V14.01,2013-02-22 10:26:00,
2013-02-22 04:27:00,22.1,15.9,29.97,NE,45,8.1,10.5,76,0.00,,,0.00,VWS V14.01,2013-02-22 10:27:00,
2013-02-22 04:28:00,22.1,15.9,29.97,NE,45,8.7,10.1,76,0.00,,,0.00,VWS V14.01,2013-02-22 10:28:00,
2013-02-22 04:29:00,22.1,15.9,29.97,NE,45,6.7,8.7,76,0.00,,,0.00,VWS V14.01,2013-02-22 10:29:00,
2013-02-22 04:30:00,22.5,15.6,29.94,NE,45,9.6,9.6,74,0.00,,,0.00,VWS V14.01,2013-02-22 10:30:00,
2013-02-22 04:31:00,22.1,15.9,29.97,NE,45,8.1,8.3,76,0.00,,,0.00,VWS V14.01,2013-02-22 10:31:00,
2013-02-22 04:32:00,21.9,15.7,29.97,NE,45,8.1,8.1,76,0.00,,,0.00,VWS V14.01,2013-02-22 10:32:00,
2013-02-22 04:33:00,21.9,15.7,29.97,NE,45,10.5,10.5,76,0.00,,,0.00,VWS V14.01,2013-02-22 10:33:00,
2013-02-22 04:34:00,21.9,15.7,29.97,NE,45,7.2,10.5,76,0.00,,,0.00,VWS V14.01,2013-02-22 10:34:00,
2013-02-22 04:35:00,22.5,15.3,29.94,NE,45,6.7,9.6,74,0.00,,,0.00,VWS V14.01,2013-02-22 10:35:00,
2013-02-22 04:36:00,21.9,15.7,30.00,NE,45,7.6,9.6,76,0.00,,,0.00,VWS V14.01,2013-02-22 10:36:00,
2013-02-22 04:37:00,21.9,15.7,30.00,NE,45,9.6,9.6,76,0.00,,,0.00,VWS V14.01,2013-02-22 10:37:00,
2013-02-22 04:38:00,21.9,15.7,30.00,NE,45,8.3,9.6,76,0.00,,,0.00,VWS V14.01,2013-02-22 10:38:00,
2013-02-22 04:40:00,22.5,15.3,29.94,NE,45,8.3,8.3,74,0.00,,,0.00,VWS V14.01,2013-02-22 10:40:00,
2013-02-22 04:41:00,21.9,15.7,30.00,NE,45,7.6,7.6,76,0.00,,,0.00,VWS V14.01,2013-02-22 10:41:00,
2013-02-22 04:42:00,21.9,15.7,30.00,NE,45,10.5,10.5,76,0.00,,,0.00,VWS V14.01,2013-02-22 10:42:00,
2013-02-22 04:44:00,21.9,15.7,30.00,NE,45,5.4,10.5,76,0.00,,,0.00,VWS V14.01,2013-02-22 10:44:00,
2013-02-22 04:45:00,22.5,15.0,29.94,ENE,68,7.6,8.1,72,0.00,,,0.00,VWS V14.01,2013-02-22 10:45:00,
2013-02-22 04:46:00,21.9,16.0,30.00,NE,45,10.1,12.8,78,0.00,,,0.00,VWS V14.01,2013-02-22 10:46:00,
2013-02-22 04:47:00,21.9,16.0,30.00,NE,45,5.8,10.5,78,0.00,,,0.00,VWS V14.01,2013-02-22 10:47:00,
2013-02-22 04:48:00,21.9,16.0,30.00,NE,45,5.8,7.6,78,0.00,,,0.00,VWS V14.01,2013-02-22 10:48:00,
2013-02-22 04:49:00,21.9,16.0,30.00,NE,45,8.7,13.2,78,0.00,,,0.00,VWS V14.01,2013-02-22 10:49:00,
2013-02-22 04:50:00,22.3,14.8,29.94,NE,45,10.1,10.1,72,0.00,,,0.00,VWS V14.01,2013-02-22 10:50:00,
2013-02-22 04:51:00,21.9,16.0,30.00,NE,45,7.6,9.2,78,0.00,,,0.00,VWS V14.01,2013-02-22 10:51:00,
2013-02-22 04:52:00,21.9,16.0,30.00,NE,45,11.4,11.4,78,0.00,,,0.00,VWS V14.01,2013-02-22 10:52:00,
2013-02-22 04:53:00,21.9,16.0,30.00,NE,45,6.7,11.4,78,0.00,,,0.00,VWS V14.01,2013-02-22 10:53:00,
2013-02-22 04:54:00,21.9,16.0,30.00,NE,45,6.3,6.7,78,0.00,,,0.00,VWS V14.01,2013-02-22 10:54:00,
2013-02-22 04:55:00,22.3,14.8,29.94,NE,45,6.3,7.6,72,0.00,,,0.00,VWS V14.01,2013-02-22 10:55:00,
2013-02-22 04:56:00,21.7,15.8,30.00,ENE,68,5.8,6.7,78,0.00,,,0.00,VWS V14.01,2013-02-22 10:56:00,
2013-02-22 04:57:00,21.7,15.8,30.00,NE,45,9.6,13.2,78,0.00,,,0.00,VWS V14.01,2013-02-22 10:57:00,
2013-02-22 04:58:00,21.9,16.0,30.00,NE,45,5.8,10.5,78,0.00,,,0.00,VWS V14.01,2013-02-22 10:58:00,
2013-02-22 04:59:00,21.9,16.0,30.00,NE,45,6.3,8.1,78,0.00,,,0.00,VWS V14.01,2013-02-22 10:59:00,
2013-02-22 05:00:00,22.3,14.8,29.94,NE,45,5.8,5.8,72,0.00,,,0.00,VWS V14.01,2013-02-22 11:00:00,
2013-02-22 05:01:00,21.7,15.8,30.00,NE,45,6.3,8.3,78,0.00,,,0.00,VWS V14.01,2013-02-22 11:01:00,
2013-02-22 05:02:00,21.7,15.8,30.00,NE,45,5.8,8.7,78,0.00,,,0.00,VWS V14.01,2013-02-22 11:02:00,
2013-02-22 05:03:00,21.7,15.8,30.00,NE,45,9.2,9.2,78,0.00,,,0.00,VWS V14.01,2013-02-22 11:03:00,
2013-02-22 05:04:00,21.7,15.8,30.00,NE,45,5.4,9.2,78,0.00,,,0.00,VWS V14.01,2013-02-22 11:04:00,
2013-02-22 05:05:00,22.1,15.2,29.94,NE,45,7.6,7.6,74,0.00,,,0.00,VWS V14.01,2013-02-22 11:05:00,
2013-02-22 05:06:00,21.6,15.9,30.00,NE,45,8.3,10.1,78,0.00,,,0.00,VWS V14.01,2013-02-22 11:06:00,
2013-02-22 05:07:00,21.6,15.9,30.00,NE,45,5.8,8.7,78,0.00,,,0.00,VWS V14.01,2013-02-22 11:07:00,
2013-02-22 05:08:00,21.6,15.9,30.00,NE,45,8.3,10.5,78,0.00,,,0.00,VWS V14.01,2013-02-22 11:08:00,
2013-02-22 05:09:00,21.6,15.9,30.00,ENE,68,4.0,8.3,78,0.00,,,0.00,VWS V14.01,2013-02-22 11:09:00,
2013-02-22 05:10:00,22.1,15.2,29.97,NE,45,7.6,7.6,74,0.00,,,0.00,VWS V14.01,2013-02-22 11:10:00,
2013-02-22 05:11:00,21.6,15.9,30.00,NE,45,8.1,8.3,78,0.00,,,0.00,VWS V14.01,2013-02-22 11:11:00,
2013-02-22 05:12:00,21.6,15.9,30.00,NE,45,7.6,8.3,78,0.00,,,0.00,VWS V14.01,2013-02-22 11:12:00,
2013-02-22 05:13:00,21.6,15.9,30.00,NE,45,15.0,15.4,78,0.00,,,0.00,VWS V14.01,2013-02-22 11:13:00,
2013-02-22 05:14:00,21.6,15.9,30.00,NE,45,11.0,15.0,78,0.00,,,0.00,VWS V14.01,2013-02-22 11:14:00,
2013-02-22 05:15:00,22.1,15.6,29.97,NE,45,7.6,9.6,76,0.00,,,0.00,VWS V14.01,2013-02-22 11:15:00,
2013-02-22 05:16:00,21.6,15.9,30.00,NE,45,8.3,8.3,78,0.00,,,0.00,VWS V14.01,2013-02-22 11:16:00,
2013-02-22 05:17:00,21.6,15.9,30.00,NE,45,8.7,8.7,78,0.00,,,0.00,VWS V14.01,2013-02-22 11:17:00,
2013-02-22 05:18:00,21.6,15.9,30.00,NE,45,8.3,10.5,78,0.00,,,0.00,VWS V14.01,2013-02-22 11:18:00,
2013-02-22 05:19:00,21.6,15.9,30.00,NE,45,8.3,8.7,78,0.00,,,0.00,VWS V14.01,2013-02-22 11:19:00,
2013-02-22 05:20:00,22.1,15.9,29.97,NE,45,7.2,7.2,76,0.00,,,0.00,VWS V14.01,2013-02-22 11:20:00,
2013-02-22 05:21:00,21.6,15.9,30.00,East,90,8.7,11.0,78,0.00,,,0.00,VWS V14.01,2013-02-22 11:21:00,
2013-02-22 05:22:00,21.6,15.9,30.00,NE,45,13.6,13.6,78,0.00,,,0.00,VWS V14.01,2013-02-22 11:22:00,
2013-02-22 05:23:00,21.6,15.9,30.00,ENE,68,10.1,13.6,78,0.00,,,0.00,VWS V14.01,2013-02-22 11:23:00,
2013-02-22 05:24:00,21.6,15.9,30.00,NE,45,7.6,12.3,78,0.00,,,0.00,VWS V14.01,2013-02-22 11:24:00,
2013-02-22 05:25:00,22.3,16.0,29.97,NE,45,6.3,6.3,76,0.00,,,0.00,VWS V14.01,2013-02-22 11:25:00,
2013-02-22 05:26:00,21.6,15.9,30.00,NE,45,10.1,10.1,78,0.00,,,0.00,VWS V14.01,2013-02-22 11:26:00,
2013-02-22 05:27:00,21.6,15.9,30.00,NE,45,6.7,10.1,78,0.00,,,0.00,VWS V14.01,2013-02-22 11:27:00,
2013-02-22 05:28:00,21.6,15.9,30.00,NE,45,7.6,8.3,78,0.00,,,0.00,VWS V14.01,2013-02-22 11:28:00,
2013-02-22 05:29:00,21.6,15.9,30.00,NE,45,8.3,8.3,78,0.00,,,0.00,VWS V14.01,2013-02-22 11:29:00,
2013-02-22 05:30:00,21.9,15.7,29.97,NE,45,8.1,8.3,76,0.00,,,0.00,VWS V14.01,2013-02-22 11:30:00,
2013-02-22 05:31:00,21.6,15.9,30.00,NE,45,8.7,9.6,78,0.00,,,0.00,VWS V14.01,2013-02-22 11:31:00,
2013-02-22 05:32:00,21.6,15.9,30.00,NE,45,10.5,11.0,78,0.00,,,0.00,VWS V14.01,2013-02-22 11:32:00,
2013-02-22 05:33:00,21.6,15.9,30.00,NE,45,11.0,11.0,78,0.00,,,0.00,VWS V14.01,2013-02-22 11:33:00,
2013-02-22 05:34:00,21.6,15.9,30.00,NE,45,11.0,11.0,78,0.00,,,0.00,VWS V14.01,2013-02-22 11:34:00,
2013-02-22 05:35:00,21.9,15.7,29.97,NE,45,8.7,8.7,76,0.00,,,0.00,VWS V14.01,2013-02-22 11:35:00,
2013-02-22 05:36:00,21.6,15.9,30.03,ENE,68,11.0,11.0,78,0.00,,,0.00,VWS V14.01,2013-02-22 11:36:00,
2013-02-22 05:37:00,21.6,15.9,30.03,ENE,68,11.0,11.0,78,0.00,,,0.00,VWS V14.01,2013-02-22 11:37:00,
2013-02-22 05:38:00,21.6,15.9,30.03,ENE,68,10.1,11.0,78,0.00,,,0.00,VWS V14.01,2013-02-22 11:38:00,
2013-02-22 05:40:00,21.9,15.7,30.00,NE,45,6.3,6.3,76,0.00,,,0.00,VWS V14.01,2013-02-22 11:40:00,
2013-02-22 05:41:00,21.4,15.8,30.03,ENE,68,10.1,10.1,78,0.00,,,0.00,VWS V14.01,2013-02-22 11:41:00,
2013-02-22 05:42:00,21.4,15.8,30.03,ENE,68,10.1,10.1,78,0.00,,,0.00,VWS V14.01,2013-02-22 11:42:00,
2013-02-22 05:43:00,21.4,15.8,30.03,ENE,68,10.1,10.1,78,0.00,,,0.00,VWS V14.01,2013-02-22 11:43:00,
2013-02-22 05:45:00,21.9,16.0,30.00,NE,45,8.1,9.2,78,0.00,,,0.00,VWS V14.01,2013-02-22 11:45:00,
2013-02-22 05:46:00,21.4,15.8,30.03,ENE,68,10.1,10.1,78,0.00,,,0.00,VWS V14.01,2013-02-22 11:46:00,
2013-02-22 05:47:00,21.4,15.8,30.03,ENE,68,10.1,10.1,78,0.00,,,0.00,VWS V14.01,2013-02-22 11:47:00,
2013-02-22 05:48:00,21.4,15.8,30.03,ENE,68,10.1,10.1,78,0.00,,,0.00,VWS V14.01,2013-02-22 11:48:00,
2013-02-22 05:49:00,21.4,15.8,30.03,ENE,68,10.1,10.1,78,0.00,,,0.00,VWS V14.01,2013-02-22 11:49:00,
2013-02-22 05:50:00,21.9,16.0,30.00,NE,45,8.3,8.3,78,0.00,,,0.00,VWS V14.01,2013-02-22 11:50:00,
2013-02-22 05:51:00,21.4,16.0,30.03,ENE,68,10.1,10.1,80,0.00,,,0.00,VWS V14.01,2013-02-22 11:51:00,
2013-02-22 05:52:00,21.4,16.0,30.03,ENE,68,10.1,10.1,80,0.00,,,0.00,VWS V14.01,2013-02-22 11:52:00,
2013-02-22 05:53:00,21.2,15.9,30.03,ENE,68,10.1,10.1,80,0.00,,,0.00,VWS V14.01,2013-02-22 11:53:00,
2013-02-22 05:54:00,21.2,15.9,30.03,ENE,68,10.1,10.1,80,0.00,,,0.00,VWS V14.01,2013-02-22 11:54:00,
2013-02-22 05:55:00,21.9,16.0,30.00,ENE,68,5.8,6.7,78,0.00,,,0.00,VWS V14.01,2013-02-22 11:55:00,
2013-02-22 05:56:00,21.2,15.9,30.03,ENE,68,10.1,10.1,80,0.00,,,0.00,VWS V14.01,2013-02-22 11:56:00,
2013-02-22 05:57:00,21.2,16.1,30.03,ENE,68,10.1,10.1,80,0.00,,,0.00,VWS V14.01,2013-02-22 11:57:00,
2013-02-22 05:58:00,21.2,16.1,30.03,ENE,68,10.1,10.1,80,0.00,,,0.00,VWS V14.01,2013-02-22 11:58:00,
2013-02-22 05:59:00,21.2,16.1,30.03,ENE,68,10.1,10.1,80,0.00,,,0.00,VWS V14.01,2013-02-22 11:59:00,
2013-02-22 06:00:00,21.7,15.8,30.00,NE,45,6.7,6.7,78,0.00,,,0.00,VWS V14.01,2013-02-22 12:00:00,
2013-02-22 06:01:00,21.2,16.1,30.03,ENE,68,10.1,10.1,80,0.00,,,0.00,VWS V14.01,2013-02-22 12:01:00,
2013-02-22 06:02:00,21.2,16.1,30.03,ENE,68,10.1,10.1,80,0.00,,,0.00,VWS V14.01,2013-02-22 12:02:00,
2013-02-22 06:03:00,21.2,16.1,30.03,ENE,68,10.1,10.5,80,0.00,,,0.00,VWS V14.01,2013-02-22 12:03:00,
2013-02-22 06:04:00,21.2,16.1,30.03,NE,45,12.8,12.8,80,0.00,,,0.00,VWS V14.01,2013-02-22 12:04:00,
2013-02-22 06:05:00,21.6,15.9,30.00,ENE,68,9.6,9.6,78,0.00,,,0.00,VWS V14.01,2013-02-22 12:05:00,
2013-02-22 06:06:00,21.2,16.1,30.03,NE,45,8.3,8.3,80,0.00,,,0.00,VWS V14.01,2013-02-22 12:06:00,
2013-02-22 06:07:00,21.2,16.1,30.03,NE,45,8.3,8.3,80,0.00,,,0.00,VWS V14.01,2013-02-22 12:07:00,
2013-02-22 06:08:00,21.2,16.4,30.03,NE,45,8.3,8.3,82,0.00,,,0.00,VWS V14.01,2013-02-22 12:08:00,
2013-02-22 06:09:00,21.2,16.4,30.03,NE,45,11.4,11.4,82,0.00,,,0.00,VWS V14.01,2013-02-22 12:09:00,
2013-02-22 06:10:00,21.6,15.9,30.00,ENE,68,8.1,8.1,78,0.00,,,0.00,VWS V14.01,2013-02-22 12:10:00,
2013-02-22 06:11:00,21.2,16.4,30.03,NE,45,10.5,11.0,82,0.00,,,0.00,VWS V14.01,2013-02-22 12:11:00,
2013-02-22 06:12:00,21.2,16.4,30.03,ENE,68,10.1,13.2,82,0.00,,,0.00,VWS V14.01,2013-02-22 12:12:00,
2013-02-22 06:13:00,21.2,16.4,30.03,NE,45,9.6,10.1,82,0.00,,,0.00,VWS V14.01,2013-02-22 12:13:00,
2013-02-22 06:14:00,21.4,16.3,30.03,NE,45,10.1,10.1,80,0.00,,,0.00,VWS V14.01,2013-02-22 12:14:00,
2013-02-22 06:15:00,21.6,15.9,30.00,NE,45,8.1,8.1,78,0.00,,,0.00,VWS V14.01,2013-02-22 12:15:00,
2013-02-22 06:16:00,21.4,16.3,30.03,ENE,68,13.2,13.2,80,0.00,,,0.00,VWS V14.01,2013-02-22 12:16:00,
2013-02-22 06:17:00,21.4,16.3,30.03,NE,45,8.3,13.2,80,0.00,,,0.00,VWS V14.01,2013-02-22 12:17:00,
2013-02-22 06:18:00,21.4,16.3,30.03,NE,45,9.6,12.8,80,0.00,,,0.00,VWS V14.01,2013-02-22 12:18:00,
2013-02-22 06:19:00,21.4,16.3,30.03,ENE,68,7.6,9.6,80,0.00,,,0.00,VWS V14.01,2013-02-22 12:19:00,
2013-02-22 06:20:00,21.6,15.9,30.00,NE,45,7.2,8.7,78,0.00,,,0.00,VWS V14.01,2013-02-22 12:20:00,
2013-02-22 06:21:00,21.4,16.3,30.06,NE,45,9.6,10.5,80,0.00,,,0.00,VWS V14.01,2013-02-22 12:21:00,
2013-02-22 06:22:00,21.4,16.3,30.06,ENE,68,10.1,11.4,80,0.00,,,0.00,VWS V14.01,2013-02-22 12:22:00,
2013-02-22 06:23:00,21.6,16.5,30.06,NE,45,11.0,11.0,80,0.00,,,0.00,VWS V14.01,2013-02-22 12:23:00,
2013-02-22 06:24:00,21.6,16.5,30.06,NE,45,10.1,11.0,80,0.00,,,0.00,VWS V14.01,2013-02-22 12:24:00,
2013-02-22 06:25:00,21.6,15.9,30.00,NE,45,8.3,8.3,78,0.00,,,0.00,VWS V14.01,2013-02-22 12:25:00,
2013-02-22 06:26:00,21.6,16.5,30.06,ENE,68,6.7,7.2,80,0.00,,,0.00,VWS V14.01,2013-02-22 12:26:00,
2013-02-22 06:27:00,21.6,16.5,30.06,NE,45,6.7,6.7,80,0.00,,,0.00,VWS V14.01,2013-02-22 12:27:00,
2013-02-22 06:28:00,21.6,16.5,30.06,NE,45,10.1,10.1,80,0.00,,,0.00,VWS V14.01,2013-02-22 12:28:00,
2013-02-22 06:29:00,21.7,16.7,30.06,ENE,68,8.7,11.0,80,0.00,,,0.00,VWS V14.01,2013-02-22 12:29:00,
2013-02-22 06:30:00,21.6,15.9,30.00,NE,45,7.6,8.3,78,0.00,,,0.00,VWS V14.01,2013-02-22 12:30:00,
2013-02-22 06:31:00,21.7,16.7,30.06,ENE,68,6.3,9.6,80,0.00,,,0.00,VWS V14.01,2013-02-22 12:31:00,
2013-02-22 06:32:00,21.9,16.9,30.06,ENE,68,7.6,8.7,80,0.00,,,0.00,VWS V14.01,2013-02-22 12:32:00,
2013-02-22 06:33:00,21.9,16.9,30.06,ENE,68,8.7,8.7,80,0.00,,,0.00,VWS V14.01,2013-02-22 12:33:00,
2013-02-22 06:34:00,21.9,16.9,30.06,ENE,68,7.6,8.7,80,0.00,,,0.00,VWS V14.01,2013-02-22 12:34:00,
2013-02-22 06:35:00,21.6,15.9,30.00,NE,45,10.1,10.1,78,0.00,,,0.00,VWS V14.01,2013-02-22 12:35:00,
2013-02-22 06:36:00,21.9,16.9,30.06,NE,45,7.6,8.1,80,0.00,,,0.00,VWS V14.01,2013-02-22 12:36:00,
2013-02-22 06:37:00,21.9,16.9,30.06,NE,45,8.3,8.3,80,0.00,,,0.00,VWS V14.01,2013-02-22 12:37:00,
2013-02-22 06:38:00,21.9,16.9,30.06,NE,45,7.6,10.1,80,0.00,,,0.00,VWS V14.01,2013-02-22 12:38:00,
2013-02-22 06:39:00,21.9,16.9,30.06,ENE,68,9.6,10.5,80,0.00,,,0.00,VWS V14.01,2013-02-22 12:39:00,
2013-02-22 06:40:00,21.6,15.9,30.03,ENE,68,10.1,10.1,78,0.00,,,0.00,VWS V14.01,2013-02-22 12:40:00,
2013-02-22 06:41:00,21.9,16.9,30.06,NE,45,8.3,10.5,80,0.00,,,0.00,VWS V14.01,2013-02-22 12:41:00,
2013-02-22 06:42:00,21.9,16.9,30.06,ENE,68,7.6,8.3,80,0.00,,,0.00,VWS V14.01,2013-02-22 12:42:00,
2013-02-22 06:43:00,21.9,16.9,30.06,NE,45,7.2,7.6,80,0.00,,,0.00,VWS V14.01,2013-02-22 12:43:00,
2013-02-22 06:44:00,21.9,16.9,30.06,NE,45,7.6,7.6,80,0.00,,,0.00,VWS V14.01,2013-02-22 12:44:00,
2013-02-22 06:45:00,21.4,15.8,30.03,ENE,68,10.1,10.1,78,0.00,,,0.00,VWS V14.01,2013-02-22 12:45:00,
2013-02-22 06:46:00,21.9,16.9,30.06,NE,45,8.3,8.3,80,0.00,,,0.00,VWS V14.01,2013-02-22 12:46:00,
2013-02-22 06:47:00,21.7,16.7,30.06,NE,45,11.0,12.8,80,0.00,,,0.00,VWS V14.01,2013-02-22 12:47:00,
2013-02-22 06:48:00,21.7,16.7,30.06,ENE,68,8.1,11.0,80,0.00,,,0.00,VWS V14.01,2013-02-22 12:48:00,
2013-02-22 06:49:00,21.7,16.7,30.06,NE,45,10.1,11.4,80,0.00,,,0.00,VWS V14.01,2013-02-22 12:49:00,
2013-02-22 06:50:00,21.4,16.0,30.03,ENE,68,10.1,10.1,80,0.00,,,0.00,VWS V14.01,2013-02-22 12:50:00,
2013-02-22 06:51:00,21.7,16.7,30.06,NE,45,8.7,12.3,80,0.00,,,0.00,VWS V14.01,2013-02-22 12:51:00,
2013-02-22 06:52:00,21.7,16.7,30.06,ENE,68,8.3,10.5,80,0.00,,,0.00,VWS V14.01,2013-02-22 12:52:00,
2013-02-22 06:53:00,21.7,16.7,30.06,NE,45,10.1,11.0,80,0.00,,,0.00,VWS V14.01,2013-02-22 12:53:00,
2013-02-22 06:54:00,21.7,16.7,30.06,NE,45,7.6,10.1,80,0.00,,,0.00,VWS V14.01,2013-02-22 12:54:00,
2013-02-22 06:55:00,21.2,15.9,30.03,ENE,68,10.1,10.1,80,0.00,,,0.00,VWS V14.01,2013-02-22 12:55:00,
2013-02-22 06:56:00,21.9,16.9,30.06,NE,45,10.1,10.1,80,0.00,,,0.00,VWS V14.01,2013-02-22 12:56:00,
2013-02-22 06:57:00,21.9,16.9,30.06,NE,45,6.7,10.1,80,0.00,,,0.00,VWS V14.01,2013-02-22 12:57:00,
2013-02-22 06:58:00,21.9,16.9,30.06,NE,45,9.2,10.5,80,0.00,,,0.00,VWS V14.01,2013-02-22 12:58:00,
2013-02-22 06:59:00,21.9,16.9,30.06,NE,45,5.8,9.2,80,0.00,,,0.00,VWS V14.01,2013-02-22 12:59:00,
2013-02-22 07:00:00,21.2,16.1,30.03,ENE,68,10.1,10.1,80,0.00,,,0.00,VWS V14.01,2013-02-22 13:00:00,
2013-02-22 07:01:00,21.9,16.9,30.06,ENE,68,8.7,8.7,80,0.00,,,0.00,VWS V14.01,2013-02-22 13:01:00,
2013-02-22 07:02:00,21.9,16.9,30.06,NE,45,7.6,10.1,80,0.00,,,0.00,VWS V14.01,2013-02-22 13:02:00,
2013-02-22 07:03:00,21.9,16.9,30.06,NE,45,9.6,9.6,80,0.00,,,0.00,VWS V14.01,2013-02-22 13:03:00,
2013-02-22 07:04:00,21.9,16.9,30.06,NE,45,12.8,12.8,80,0.00,,,0.00,VWS V14.01,2013-02-22 13:04:00,
2013-02-22 07:05:00,21.2,16.1,30.03,NE,45,8.3,12.8,80,0.00,,,0.00,VWS V14.01,2013-02-22 13:05:00,
2013-02-22 07:06:00,21.9,16.9,30.06,NE,45,7.6,10.1,80,0.00,,,0.00,VWS V14.01,2013-02-22 13:06:00,
2013-02-22 07:07:00,21.9,16.9,30.06,NE,45,8.1,8.1,80,0.00,,,0.00,VWS V14.01,2013-02-22 13:07:00,
2013-02-22 07:08:00,21.9,16.9,30.06,NE,45,8.3,8.3,80,0.00,,,0.00,VWS V14.01,2013-02-22 13:08:00,
2013-02-22 07:09:00,21.9,16.9,30.06,NE,45,8.1,8.3,80,0.00,,,0.00,VWS V14.01,2013-02-22 13:09:00,
2013-02-22 07:10:00,21.2,16.4,30.03,NE,45,10.1,11.4,82,0.00,,,0.00,VWS V14.01,2013-02-22 13:10:00,
2013-02-22 07:11:00,22.3,17.2,30.06,NE,45,7.6,8.3,80,0.00,,,0.00,VWS V14.01,2013-02-22 13:11:00,
2013-02-22 07:12:00,22.3,17.2,30.06,ENE,68,6.3,8.1,80,0.00,,,0.00,VWS V14.01,2013-02-22 13:12:00,
2013-02-22 07:13:00,22.3,17.2,30.06,ENE,68,8.1,8.7,80,0.00,,,0.00,VWS V14.01,2013-02-22 13:13:00,
2013-02-22 07:14:00,22.3,17.2,30.06,NE,45,7.6,8.7,80,0.00,,,0.00,VWS V14.01,2013-02-22 13:14:00,
2013-02-22 07:15:00,21.4,16.3,30.03,East,90,12.8,12.8,80,0.00,,,0.00,VWS V14.01,2013-02-22 13:15:00,
2013-02-22 07:16:00,22.1,16.7,30.06,NE,45,6.3,7.2,80,0.00,,,0.00,VWS V14.01,2013-02-22 13:16:00,
2013-02-22 07:17:00,22.1,16.7,30.06,NE,45,8.3,8.3,80,0.00,,,0.00,VWS V14.01,2013-02-22 13:17:00,
2013-02-22 07:18:00,22.1,16.7,30.06,NE,45,7.6,9.6,80,0.00,,,0.00,VWS V14.01,2013-02-22 13:18:00,
2013-02-22 07:19:00,22.1,16.7,30.06,NE,45,7.2,8.1,80,0.00,,,0.00,VWS V14.01,2013-02-22 13:19:00,
2013-02-22 07:20:00,21.4,16.3,30.03,NE,45,10.5,14.5,80,0.00,,,0.00,VWS V14.01,2013-02-22 13:20:00,
2013-02-22 07:21:00,22.5,17.1,30.09,NE,45,7.6,7.6,80,0.00,,,0.00,VWS V14.01,2013-02-22 13:21:00,
2013-02-22 07:22:00,22.5,17.1,30.09,NE,45,7.2,7.6,80,0.00,,,0.00,VWS V14.01,2013-02-22 13:22:00,
2013-02-22 07:23:00,22.5,17.1,30.09,NE,45,5.4,7.6,80,0.00,,,0.00,VWS V14.01,2013-02-22 13:23:00,
2013-02-22 07:24:00,22.5,17.1,30.09,NE,45,8.3,8.3,80,0.00,,,0.00,VWS V14.01,2013-02-22 13:24:00,
2013-02-22 07:25:00,21.6,16.5,30.06,ENE,68,6.3,6.3,80,0.00,,,0.00,VWS V14.01,2013-02-22 13:25:00,
2013-02-22 07:26:00,22.5,17.1,30.09,NE,45,9.6,9.6,80,0.00,,,0.00,VWS V14.01,2013-02-22 13:26:00,
2013-02-22 07:27:00,22.5,17.1,30.09,NE,45,8.7,11.0,80,0.00,,,0.00,VWS V14.01,2013-02-22 13:27:00,
2013-02-22 07:28:00,22.5,17.1,30.09,NE,45,7.6,8.7,80,0.00,,,0.00,VWS V14.01,2013-02-22 13:28:00,
2013-02-22 07:29:00,22.8,17.4,30.09,NE,45,5.8,7.6,80,0.00,,,0.00,VWS V14.01,2013-02-22 13:29:00,
2013-02-22 07:30:00,21.7,16.7,30.06,NE,45,8.3,8.7,80,0.00,,,0.00,VWS V14.01,2013-02-22 13:30:00,
2013-02-22 07:31:00,22.8,17.4,30.09,NE,45,5.8,7.6,80,0.00,,,0.00,VWS V14.01,2013-02-22 13:31:00,
2013-02-22 07:32:00,22.8,17.4,30.09,ENE,68,5.8,5.8,80,0.00,,,0.00,VWS V14.01,2013-02-22 13:32:00,
2013-02-22 07:33:00,22.8,17.4,30.09,NE,45,6.7,8.7,80,0.00,,,0.00,VWS V14.01,2013-02-22 13:33:00,
2013-02-22 07:34:00,22.8,17.4,30.09,NE,45,10.1,10.1,80,0.00,,,0.00,VWS V14.01,2013-02-22 13:34:00,
2013-02-22 07:35:00,21.9,16.9,30.06,NE,45,5.8,7.6,80,0.00,,,0.00,VWS V14.01,2013-02-22 13:35:00,
2013-02-22 07:36:00,23.0,17.6,30.09,ENE,68,7.6,8.3,80,0.00,,,0.00,VWS V14.01,2013-02-22 13:36:00,
2013-02-22 07:37:00,23.0,17.6,30.09,NE,45,5.4,7.6,80,0.00,,,0.00,VWS V14.01,2013-02-22 13:37:00,
2013-02-22 07:38:00,23.2,17.5,30.09,NE,45,6.3,8.1,78,0.00,,,0.00,VWS V14.01,2013-02-22 13:38:00,
2013-02-22 07:39:00,23.4,17.7,30.09,NE,45,5.4,8.1,78,0.00,,,0.00,VWS V14.01,2013-02-22 13:39:00,
2013-02-22 07:40:00,21.9,16.9,30.06,NE,45,7.6,9.6,80,0.00,,,0.00,VWS V14.01,2013-02-22 13:40:00,
2013-02-22 07:41:00,23.5,17.9,30.09,NE,45,8.7,8.7,78,0.00,,,0.00,VWS V14.01,2013-02-22 13:41:00,
2013-02-22 07:42:00,23.5,17.9,30.09,NE,45,6.3,8.7,78,0.00,,,0.00,VWS V14.01,2013-02-22 13:42:00,
2013-02-22 07:43:00,23.5,17.9,30.09,NE,45,6.3,7.6,78,0.00,,,0.00,VWS V14.01,2013-02-22 13:43:00,
2013-02-22 07:44:00,23.5,17.5,30.09,NE,45,6.3,7.6,78,0.00,,,0.00,VWS V14.01,2013-02-22 13:44:00,
2013-02-22 07:45:00,21.9,16.9,30.06,ENE,68,4.9,8.3,80,0.00,,,0.00,VWS V14.01,2013-02-22 13:45:00,
2013-02-22 07:46:00,23.9,17.9,30.09,NE,45,6.3,7.2,78,0.00,,,0.00,VWS V14.01,2013-02-22 13:46:00,
2013-02-22 07:47:00,23.9,17.9,30.09,NE,45,5.8,6.3,78,0.00,,,0.00,VWS V14.01,2013-02-22 13:47:00,
2013-02-22 07:48:00,23.9,17.9,30.09,NNE,22,8.3,8.3,78,0.00,,,0.00,VWS V14.01,2013-02-22 13:48:00,
2013-02-22 07:49:00,24.1,18.1,30.09,NE,45,5.8,8.3,78,0.00,,,0.00,VWS V14.01,2013-02-22 13:49:00,
2013-02-22 07:50:00,21.7,16.7,30.06,ENE,68,8.1,15.4,80,0.00,,,0.00,VWS V14.01,2013-02-22 13:50:00,
2013-02-22 07:51:00,24.3,18.0,30.09,NE,45,5.4,5.4,76,0.00,,,0.00,VWS V14.01,2013-02-22 13:51:00,
2013-02-22 07:52:00,24.3,18.0,30.09,NE,45,6.7,6.7,76,0.00,,,0.00,VWS V14.01,2013-02-22 13:52:00,
2013-02-22 07:53:00,24.3,18.0,30.09,NE,45,8.7,8.7,76,0.00,,,0.00,VWS V14.01,2013-02-22 13:53:00,
2013-02-22 07:54:00,23.9,17.0,30.09,ENE,68,4.9,8.7,74,0.00,,,0.00,VWS V14.01,2013-02-22 13:54:00,
2013-02-22 07:55:00,21.9,16.9,30.06,East,90,9.6,9.6,80,0.00,,,0.00,VWS V14.01,2013-02-22 13:55:00,
2013-02-22 07:56:00,24.3,17.3,30.09,NE,45,5.4,7.2,74,0.00,,,0.00,VWS V14.01,2013-02-22 13:56:00,
2013-02-22 07:58:00,24.4,17.5,30.09,NE,45,4.0,7.6,74,0.00,,,0.00,VWS V14.01,2013-02-22 13:58:00,
2013-02-22 07:59:00,24.4,17.5,30.09,NE,45,6.3,8.1,74,0.00,,,0.00,VWS V14.01,2013-02-22 13:59:00,
2013-02-22 08:00:00,21.9,16.9,30.06,NE,45,6.3,7.6,80,0.00,,,0.00,VWS V14.01,2013-02-22 14:00:00,
2013-02-22 08:01:00,23.9,16.7,30.09,ENE,68,5.4,12.3,74,0.00,,,0.00,VWS V14.01,2013-02-22 14:01:00,
2013-02-22 08:02:00,23.9,16.7,30.09,ENE,68,5.4,5.4,74,0.00,,,0.00,VWS V14.01,2013-02-22 14:02:00,
2013-02-22 08:03:00,24.4,17.2,30.09,NE,45,5.8,5.8,74,0.00,,,0.00,VWS V14.01,2013-02-22 14:03:00,
2013-02-22 08:04:00,24.4,17.2,30.09,NE,45,5.8,7.6,74,0.00,,,0.00,VWS V14.01,2013-02-22 14:04:00,
2013-02-22 08:05:00,21.9,16.9,30.06,NE,45,8.7,12.8,80,0.00,,,0.00,VWS V14.01,2013-02-22 14:05:00,
2013-02-22 08:06:00,24.4,17.2,30.12,NE,45,7.6,10.5,74,0.00,,,0.00,VWS V14.01,2013-02-22 14:06:00,
2013-02-22 08:07:00,24.4,16.9,30.12,NE,45,4.9,7.6,72,0.00,,,0.00,VWS V14.01,2013-02-22 14:07:00,
2013-02-22 08:08:00,24.4,16.9,30.12,NE,45,6.3,7.6,72,0.00,,,0.00,VWS V14.01,2013-02-22 14:08:00,
2013-02-22 08:09:00,24.4,16.9,30.12,NE,45,7.6,8.3,72,0.00,,,0.00,VWS V14.01,2013-02-22 14:09:00,
2013-02-22 08:10:00,22.3,17.2,30.06,NE,45,8.1,8.1,80,0.00,,,0.00,VWS V14.01,2013-02-22 14:10:00,
2013-02-22 08:11:00,24.3,16.7,30.12,NE,45,5.8,6.3,72,0.00,,,0.00,VWS V14.01,2013-02-22 14:11:00,
2013-02-22 08:12:00,24.3,16.7,30.12,NE,45,4.9,5.8,72,0.00,,,0.00,VWS V14.01,2013-02-22 14:12:00,
2013-02-22 08:13:00,24.3,16.7,30.12,NE,45,4.9,5.4,72,0.00,,,0.00,VWS V14.01,2013-02-22 14:13:00,
2013-02-22 08:14:00,24.3,16.7,30.12,NE,45,8.7,8.7,72,0.00,,,0.00,VWS V14.01,2013-02-22 14:14:00,
2013-02-22 08:15:00,22.3,17.2,30.06,ENE,68,7.2,7.6,80,0.00,,,0.00,VWS V14.01,2013-02-22 14:15:00,
2013-02-22 08:16:00,24.3,16.7,30.12,NE,45,8.3,8.7,72,0.00,,,0.00,VWS V14.01,2013-02-22 14:16:00,
2013-02-22 08:17:00,24.1,16.2,30.12,NE,45,8.7,8.7,72,0.00,,,0.00,VWS V14.01,2013-02-22 14:17:00,
2013-02-22 08:18:00,24.1,16.2,30.12,NE,45,5.4,8.7,72,0.00,,,0.00,VWS V14.01,2013-02-22 14:18:00,
2013-02-22 08:19:00,24.1,16.2,30.12,NE,45,10.5,10.5,72,0.00,,,0.00,VWS V14.01,2013-02-22 14:19:00,
2013-02-22 08:20:00,22.5,17.1,30.06,NE,45,5.8,7.6,80,0.00,,,0.00,VWS V14.01,2013-02-22 14:20:00,
2013-02-22 08:21:00,23.9,16.0,30.12,NE,45,9.6,10.5,72,0.00,,,0.00,VWS V14.01,2013-02-22 14:21:00,
2013-02-22 08:22:00,23.7,15.6,30.12,NE,45,7.2,9.6,70,0.00,,,0.00,VWS V14.01,2013-02-22 14:22:00,
2013-02-22 08:23:00,24.1,15.9,30.12,NE,45,5.8,7.2,70,0.00,,,0.00,VWS V14.01,2013-02-22 14:23:00,
2013-02-22 08:24:00,24.4,16.6,30.12,NE,45,8.3,8.3,72,0.00,,,0.00,VWS V14.01,2013-02-22 14:24:00,
2013-02-22 08:25:00,22.5,17.1,30.09,NE,45,5.4,8.7,80,0.00,,,0.00,VWS V14.01,2013-02-22 14:25:00,
2013-02-22 08:26:00,24.4,16.6,30.12,NE,45,7.2,8.7,72,0.00,,,0.00,VWS V14.01,2013-02-22 14:26:00,
2013-02-22 08:27:00,24.4,16.6,30.12,NE,45,12.3,12.3,72,0.00,,,0.00,VWS V14.01,2013-02-22 14:27:00,
2013-02-22 08:28:00,24.4,16.6,30.12,ENE,68,9.6,12.3,72,0.00,,,0.00,VWS V14.01,2013-02-22 14:28:00,
2013-02-22 08:29:00,24.3,15.7,30.12,NE,45,8.1,10.5,70,0.00,,,0.00,VWS V14.01,2013-02-22 14:29:00,
2013-02-22 08:30:00,22.8,17.4,30.09,NE,45,7.2,9.6,80,0.00,,,0.00,VWS V14.01,2013-02-22 14:30:00,
2013-02-22 08:31:00,24.1,15.2,30.12,ENE,68,11.9,11.9,68,0.00,,,0.00,VWS V14.01,2013-02-22 14:31:00,
2013-02-22 08:32:00,24.1,15.2,30.12,NE,45,8.3,11.9,68,0.00,,,0.00,VWS V14.01,2013-02-22 14:32:00,
2013-02-22 08:33:00,24.3,15.4,30.12,NE,45,5.8,8.3,68,0.00,,,0.00,VWS V14.01,2013-02-22 14:33:00,
2013-02-22 08:34:00,24.4,15.6,30.12,East,90,10.1,10.1,68,0.00,,,0.00,VWS V14.01,2013-02-22 14:34:00,
2013-02-22 08:35:00,22.8,17.4,30.09,NE,45,8.1,10.1,80,0.00,,,0.00,VWS V14.01,2013-02-22 14:35:00,
2013-02-22 08:36:00,24.6,16.1,30.12,NE,45,10.1,10.1,70,0.00,,,0.00,VWS V14.01,2013-02-22 14:36:00,
2013-02-22 08:37:00,24.6,15.8,30.12,NE,45,8.1,10.1,68,0.00,,,0.00,VWS V14.01,2013-02-22 14:37:00,
2013-02-22 08:38:00,24.6,16.1,30.12,NE,45,8.7,8.7,70,0.00,,,0.00,VWS V14.01,2013-02-22 14:38:00,
2013-02-22 08:39:00,24.6,15.8,30.12,NE,45,5.8,8.7,68,0.00,,,0.00,VWS V14.01,2013-02-22 14:39:00,
2013-02-22 08:40:00,23.5,17.9,30.09,NE,45,5.4,5.8,78,0.00,,,0.00,VWS V14.01,2013-02-22 14:40:00,
2013-02-22 08:41:00,24.4,15.6,30.12,NE,45,8.7,9.2,68,0.00,,,0.00,VWS V14.01,2013-02-22 14:41:00,
2013-02-22 08:42:00,24.6,15.8,30.12,NE,45,6.7,8.7,68,0.00,,,0.00,VWS V14.01,2013-02-22 14:42:00,
2013-02-22 08:43:00,25.0,15.8,30.12,NE,45,8.3,9.6,68,0.00,,,0.00,VWS V14.01,2013-02-22 14:43:00,
2013-02-22 08:44:00,25.2,16.3,30.12,NE,45,4.9,8.3,68,0.00,,,0.00,VWS V14.01,2013-02-22 14:44:00,
2013-02-22 08:45:00,23.7,17.7,30.09,NE,45,6.3,6.3,78,0.00,,,0.00,VWS V14.01,2013-02-22 14:45:00,
2013-02-22 08:46:00,25.7,17.1,30.12,NE,45,8.7,8.7,70,0.00,,,0.00,VWS V14.01,2013-02-22 14:46:00,
2013-02-22 08:47:00,25.7,17.1,30.12,NE,45,10.1,10.1,70,0.00,,,0.00,VWS V14.01,2013-02-22 14:47:00,
2013-02-22 08:48:00,24.8,15.2,30.12,NE,45,8.7,10.1,66,0.00,,,0.00,VWS V14.01,2013-02-22 14:48:00,
2013-02-22 08:49:00,24.1,18.1,30.09,NE,45,4.9,8.1,78,0.00,,,0.00,VWS V14.01,2013-02-22 14:49:00,
2013-02-22 08:50:00,25.0,15.1,30.12,NE,45,8.3,8.7,66,0.00,,,0.00,VWS V14.01,2013-02-22 14:50:00,
2013-02-22 08:51:00,24.6,14.4,30.12,NE,45,6.7,10.5,64,0.00,,,0.00,VWS V14.01,2013-02-22 14:51:00,
2013-02-22 08:52:00,24.8,14.9,30.12,NE,45,7.6,9.2,66,0.00,,,0.00,VWS V14.01,2013-02-22 14:52:00,
2013-02-22 08:53:00,25.2,14.9,30.12,NE,45,5.8,8.3,64,0.00,,,0.00,VWS V14.01,2013-02-22 14:53:00,
2013-02-22 08:54:00,24.1,17.2,30.09,NE,45,7.2,7.6,74,0.00,,,0.00,VWS V14.01,2013-02-22 14:54:00,
2013-02-22 08:55:00,25.9,15.9,30.12,ENE,68,8.1,8.1,66,0.00,,,0.00,VWS V14.01,2013-02-22 14:55:00,
2013-02-22 08:56:00,25.9,15.9,30.12,NE,45,6.7,8.1,66,0.00,,,0.00,VWS V14.01,2013-02-22 14:56:00,
2013-02-22 08:57:00,25.9,15.9,30.12,NE,45,6.3,6.7,66,0.00,,,0.00,VWS V14.01,2013-02-22 14:57:00,
2013-02-22 08:58:00,25.7,15.8,30.12,NE,45,7.6,8.7,66,0.00,,,0.00,VWS V14.01,2013-02-22 14:58:00,
2013-02-22 08:59:00,24.4,17.5,30.09,NE,45,12.3,12.3,74,0.00,,,0.00,VWS V14.01,2013-02-22 14:59:00,
2013-02-22 09:00:00,26.1,16.5,30.12,ENE,68,10.5,10.5,66,0.00,,,0.00,VWS V14.01,2013-02-22 15:00:00,
2013-02-22 09:01:00,26.1,16.5,30.12,NE,45,8.3,10.5,66,0.00,,,0.00,VWS V14.01,2013-02-22 15:01:00,
2013-02-22 09:02:00,26.6,17.3,30.12,NE,45,8.3,10.1,68,0.00,,,0.00,VWS V14.01,2013-02-22 15:02:00,
2013-02-22 09:03:00,26.2,16.6,30.12,NE,45,10.1,10.1,66,0.00,,,0.00,VWS V14.01,2013-02-22 15:03:00,
2013-02-22 09:04:00,24.4,17.2,30.09,NE,45,8.1,8.1,74,0.00,,,0.00,VWS V14.01,2013-02-22 15:04:00,
2013-02-22 09:05:00,25.9,15.2,30.12,NNE,22,7.6,10.1,64,0.00,,,0.00,VWS V14.01,2013-02-22 15:05:00,
2013-02-22 09:06:00,26.1,15.7,30.12,NE,45,5.8,8.7,64,0.00,,,0.00,VWS V14.01,2013-02-22 15:06:00,
2013-02-22 09:07:00,26.2,15.9,30.12,ENE,68,10.5,10.5,64,0.00,,,0.00,VWS V14.01,2013-02-22 15:07:00,
2013-02-22 09:08:00,26.1,15.4,30.12,NE,45,10.5,12.3,64,0.00,,,0.00,VWS V14.01,2013-02-22 15:08:00,
2013-02-22 09:09:00,24.4,16.9,30.12,NE,45,6.3,8.1,72,0.00,,,0.00,VWS V14.01,2013-02-22 15:09:00,
2013-02-22 09:10:00,25.7,14.3,30.12,East,90,7.6,12.3,62,0.00,,,0.00,VWS V14.01,2013-02-22 15:10:00,
2013-02-22 09:11:00,25.9,14.5,30.12,NE,45,7.6,7.6,62,0.00,,,0.00,VWS V14.01,2013-02-22 15:11:00,
2013-02-22 09:12:00,25.9,14.5,30.12,NE,45,8.3,8.3,62,0.00,,,0.00,VWS V14.01,2013-02-22 15:12:00,
2013-02-22 09:13:00,25.9,14.9,30.12,NE,45,6.7,11.0,62,0.00,,,0.00,VWS V14.01,2013-02-22 15:13:00,
2013-02-22 09:14:00,24.4,16.9,30.12,NE,45,5.8,8.7,72,0.00,,,0.00,VWS V14.01,2013-02-22 15:14:00,
2013-02-22 09:15:00,25.9,14.9,30.12,ENE,68,10.1,12.3,62,0.00,,,0.00,VWS V14.01,2013-02-22 15:15:00,
2013-02-22 09:16:00,25.9,15.2,30.12,NE,45,4.9,10.1,64,0.00,,,0.00,VWS V14.01,2013-02-22 15:16:00,
2013-02-22 09:17:00,26.1,15.4,30.12,NE,45,5.4,7.6,64,0.00,,,0.00,VWS V14.01,2013-02-22 15:17:00,
2013-02-22 09:18:00,26.1,15.7,30.12,NE,45,8.1,8.3,64,0.00,,,0.00,VWS V14.01,2013-02-22 15:18:00,
2013-02-22 09:19:00,24.1,16.2,30.12,NE,45,10.5,10.5,72,0.00,,,0.00,VWS V14.01,2013-02-22 15:19:00,
2013-02-22 09:20:00,25.9,15.6,30.12,NE,45,10.1,13.2,64,0.00,,,0.00,VWS V14.01,2013-02-22 15:20:00,
2013-02-22 09:21:00,25.5,14.5,30.12,NE,45,6.3,10.5,62,0.00,,,0.00,VWS V14.01,2013-02-22 15:21:00,
2013-02-22 09:22:00,25.5,14.5,30.12,ENE,68,6.3,6.7,62,0.00,,,0.00,VWS V14.01,2013-02-22 15:22:00,
2013-02-22 09:23:00,26.1,15.4,30.12,NE,45,6.7,7.2,64,0.00,,,0.00,VWS V14.01,2013-02-22 15:23:00,
2013-02-22 09:24:00,24.4,16.6,30.12,NE,45,8.1,8.7,72,0.00,,,0.00,VWS V14.01,2013-02-22 15:24:00,
2013-02-22 09:25:00,26.1,15.4,30.12,East,90,7.6,10.1,64,0.00,,,0.00,VWS V14.01,2013-02-22 15:25:00,
2013-02-22 09:26:00,26.1,15.4,30.12,NE,45,7.2,8.7,64,0.00,,,0.00,VWS V14.01,2013-02-22 15:26:00,
2013-02-22 09:27:00,26.1,15.4,30.12,NE,45,7.6,7.6,64,0.00,,,0.00,VWS V14.01,2013-02-22 15:27:00,
2013-02-22 09:28:00,26.6,16.3,30.12,ENE,68,11.0,11.0,64,0.00,,,0.00,VWS V14.01,2013-02-22 15:28:00,
2013-02-22 09:29:00,24.1,15.6,30.12,NE,45,8.1,8.7,70,0.00,,,0.00,VWS V14.01,2013-02-22 15:29:00,
2013-02-22 09:30:00,26.2,14.8,30.12,ENE,68,10.5,12.8,62,0.00,,,0.00,VWS V14.01,2013-02-22 15:30:00,
2013-02-22 09:31:00,26.1,14.6,30.12,ENE,68,7.6,11.0,62,0.00,,,0.00,VWS V14.01,2013-02-22 15:31:00,
2013-02-22 09:32:00,26.4,15.0,30.12,NE,45,8.7,8.7,62,0.00,,,0.00,VWS V14.01,2013-02-22 15:32:00,
2013-02-22 09:33:00,26.6,15.5,30.12,ENE,68,7.6,8.7,62,0.00,,,0.00,VWS V14.01,2013-02-22 15:33:00,
2013-02-22 09:34:00,24.4,15.9,30.12,ENE,68,8.1,10.1,70,0.00,,,0.00,VWS V14.01,2013-02-22 15:34:00,
2013-02-22 09:35:00,26.6,15.5,30.12,ENE,68,8.3,8.3,62,0.00,,,0.00,VWS V14.01,2013-02-22 15:35:00,
2013-02-22 09:36:00,26.8,15.7,30.12,NE,45,6.3,8.7,62,0.00,,,0.00,VWS V14.01,2013-02-22 15:36:00,
2013-02-22 09:37:00,26.8,15.7,30.12,NE,45,6.3,6.3,62,0.00,,,0.00,VWS V14.01,2013-02-22 15:37:00,
2013-02-22 09:38:00,27.1,16.0,30.12,NE,45,5.4,6.3,62,0.00,,,0.00,VWS V14.01,2013-02-22 15:38:00,
2013-02-22 09:39:00,24.6,15.8,30.12,NE,45,8.1,8.1,68,0.00,,,0.00,VWS V14.01,2013-02-22 15:39:00,
2013-02-22 09:40:00,27.5,16.8,30.12,NE,45,7.6,7.6,64,0.00,,,0.00,VWS V14.01,2013-02-22 15:40:00,
2013-02-22 09:41:00,27.3,16.2,30.12,NE,45,5.4,7.6,62,0.00,,,0.00,VWS V14.01,2013-02-22 15:41:00,
2013-02-22 09:42:00,27.9,17.1,30.12,NE,45,8.7,11.4,64,0.00,,,0.00,VWS V14.01,2013-02-22 15:42:00,
2013-02-22 09:43:00,27.5,16.4,30.12,ENE,68,8.1,8.7,62,0.00,,,0.00,VWS V14.01,2013-02-22 15:43:00,
2013-02-22 09:44:00,25.5,16.6,30.12,NE,45,7.2,7.2,68,0.00,,,0.00,VWS V14.01,2013-02-22 15:44:00,
2013-02-22 09:45:00,27.9,16.4,30.12,NE,45,4.0,7.2,62,0.00,,,0.00,VWS V14.01,2013-02-22 15:45:00,
2013-02-22 09:46:00,28.2,17.1,30.12,NE,45,8.1,8.1,62,0.00,,,0.00,VWS V14.01,2013-02-22 15:46:00,
2013-02-22 09:47:00,28.6,17.4,30.12,NNE,22,5.8,8.1,62,0.00,,,0.00,VWS V14.01,2013-02-22 15:47:00,
2013-02-22 09:48:00,28.2,17.1,30.12,NNE,22,4.0,5.8,62,0.00,,,0.00,VWS V14.01,2013-02-22 15:48:00,
2013-02-22 09:49:00,25.0,15.1,30.12,NE,45,8.3,8.7,66,0.00,,,0.00,VWS V14.01,2013-02-22 15:49:00,
2013-02-22 09:50:00,28.4,17.2,30.12,NE,45,5.8,7.6,62,0.00,,,0.00,VWS V14.01,2013-02-22 15:50:00,
2013-02-22 09:51:00,28.4,17.2,30.12,NE,45,5.8,5.8,62,0.00,,,0.00,VWS V14.01,2013-02-22 15:51:00,
2013-02-22 09:52:00,28.4,17.2,30.12,ENE,68,13.2,13.2,62,0.00,,,0.00,VWS V14.01,2013-02-22 15:52:00,
2013-02-22 09:53:00,27.5,15.3,30.12,ENE,68,13.2,13.2,60,0.00,,,0.00,VWS V14.01,2013-02-22 15:53:00,
2013-02-22 09:54:00,25.9,15.9,30.12,NE,45,4.9,6.3,66,0.00,,,0.00,VWS V14.01,2013-02-22 15:54:00,
2013-02-22 09:55:00,27.0,14.4,30.12,NE,45,5.8,10.1,58,0.00,,,0.00,VWS V14.01,2013-02-22 15:55:00,
2013-02-22 09:56:00,27.0,14.4,30.12,NE,45,5.8,5.8,58,0.00,,,0.00,VWS V14.01,2013-02-22 15:56:00,
2013-02-22 09:57:00,27.5,15.3,30.12,NE,45,3.1,5.8,60,0.00,,,0.00,VWS V14.01,2013-02-22 15:57:00,
2013-02-22 09:58:00,27.7,15.4,30.12,ENE,68,5.8,5.8,60,0.00,,,0.00,VWS V14.01,2013-02-22 15:58:00,
2013-02-22 09:59:00,25.7,15.8,30.12,ENE,68,10.5,10.5,66,0.00,,,0.00,VWS V14.01,2013-02-22 15:59:00,
2013-02-22 10:00:00,27.9,15.6,30.12,NE,45,4.5,5.4,60,0.00,,,0.00,VWS V14.01,2013-02-22 16:00:00,
2013-02-22 10:01:00,28.0,15.8,30.12,ENE,68,8.3,8.3,60,0.00,,,0.00,VWS V14.01,2013-02-22 16:01:00,
2013-02-22 10:02:00,28.2,15.9,30.12,East,90,6.3,8.3,60,0.00,,,0.00,VWS V14.01,2013-02-22 16:02:00,
2013-02-22 10:03:00,28.2,15.9,30.12,East,90,4.5,8.7,60,0.00,,,0.00,VWS V14.01,2013-02-22 16:03:00,
2013-02-22 10:04:00,25.9,15.2,30.12,ENE,68,8.3,10.1,64,0.00,,,0.00,VWS V14.01,2013-02-22 16:04:00,
2013-02-22 10:05:00,28.2,16.3,30.12,NE,45,8.3,14.5,60,0.00,,,0.00,VWS V14.01,2013-02-22 16:05:00,
2013-02-22 10:06:00,28.0,16.1,30.12,ENE,68,7.6,9.2,60,0.00,,,0.00,VWS V14.01,2013-02-22 16:06:00,
2013-02-22 10:07:00,27.9,15.6,30.12,NE,45,7.6,7.6,60,0.00,,,0.00,VWS V14.01,2013-02-22 16:07:00,
2013-02-22 10:08:00,28.2,15.9,30.12,NE,45,10.5,10.5,60,0.00,,,0.00,VWS V14.01,2013-02-22 16:08:00,
2013-02-22 10:09:00,25.7,14.3,30.12,East,90,7.6,12.3,62,0.00,,,0.00,VWS V14.01,2013-02-22 16:09:00,
2013-02-22 10:10:00,27.9,15.6,30.12,ENE,68,7.6,8.3,60,0.00,,,0.00,VWS V14.01,2013-02-22 16:10:00,
2013-02-22 10:11:00,28.0,15.8,30.12,NE,45,7.2,11.0,60,0.00,,,0.00,VWS V14.01,2013-02-22 16:11:00,
2013-02-22 10:12:00,28.0,15.8,30.12,ENE,68,6.3,7.2,60,0.00,,,0.00,VWS V14.01,2013-02-22 16:12:00,
2013-02-22 10:13:00,28.0,15.8,30.12,NE,45,10.1,10.1,60,0.00,,,0.00,VWS V14.01,2013-02-22 16:13:00,
2013-02-22 10:14:00,25.7,14.3,30.12,ENE,68,9.6,12.3,62,0.00,,,0.00,VWS V14.01,2013-02-22 16:14:00,
2013-02-22 10:15:00,28.2,15.6,30.12,NE,45,8.3,8.3,58,0.00,,,0.00,VWS V14.01,2013-02-22 16:15:00,
2013-02-22 10:16:00,28.6,16.3,30.12,NE,45,10.5,11.4,60,0.00,,,0.00,VWS V14.01,2013-02-22 16:16:00,
2013-02-22 10:17:00,28.6,15.9,30.12,ENE,68,8.1,10.5,58,0.00,,,0.00,VWS V14.01,2013-02-22 16:17:00,
2013-02-22 10:18:00,28.6,15.9,30.12,NE,45,10.5,12.3,58,0.00,,,0.00,VWS V14.01,2013-02-22 16:18:00,
2013-02-22 10:19:00,25.9,15.6,30.12,NE,45,10.1,13.2,64,0.00,,,0.00,VWS V14.01,2013-02-22 16:19:00,
2013-02-22 10:20:00,29.1,16.8,30.12,NE,45,5.4,8.1,60,0.00,,,0.00,VWS V14.01,2013-02-22 16:20:00,
2013-02-22 10:21:00,29.1,16.8,30.12,NE,45,5.4,5.4,60,0.00,,,0.00,VWS V14.01,2013-02-22 16:21:00,
2013-02-22 10:22:00,29.1,16.8,30.12,NE,45,6.3,6.3,60,0.00,,,0.00,VWS V14.01,2013-02-22 16:22:00,
2013-02-22 10:23:00,28.8,16.1,30.12,NE,45,7.6,7.6,58,0.00,,,0.00,VWS V14.01,2013-02-22 16:23:00,
2013-02-22 10:24:00,26.1,15.4,30.12,East,90,7.6,10.1,64,0.00,,,0.00,VWS V14.01,2013-02-22 16:24:00,
2013-02-22 10:25:00,28.6,15.9,30.12,NE,45,6.3,8.7,58,0.00,,,0.00,VWS V14.01,2013-02-22 16:25:00,
2013-02-22 10:26:00,28.6,15.9,30.12,NE,45,5.8,6.3,58,0.00,,,0.00,VWS V14.01,2013-02-22 16:26:00,
2013-02-22 10:27:00,28.6,15.9,30.12,NE,45,2.2,6.3,58,0.00,,,0.00,VWS V14.01,2013-02-22 16:27:00,
2013-02-22 10:28:00,28.6,15.9,30.12,ENE,68,10.5,11.0,58,0.00,,,0.00,VWS V14.01,2013-02-22 16:28:00,
2013-02-22 10:29:00,26.6,16.3,30.12,ENE,68,11.9,12.8,64,0.00,,,0.00,VWS V14.01,2013-02-22 16:29:00,
2013-02-22 10:30:00,28.6,15.9,30.12,NE,45,7.6,10.1,58,0.00,,,0.00,VWS V14.01,2013-02-22 16:30:00,
2013-02-22 10:31:00,28.6,15.9,30.12,NE,45,7.6,7.6,58,0.00,,,0.00,VWS V14.01,2013-02-22 16:31:00,
2013-02-22 10:32:00,29.1,16.4,30.12,NE,45,10.5,10.5,58,0.00,,,0.00,VWS V14.01,2013-02-22 16:32:00,
2013-02-22 10:33:00,29.3,16.6,30.12,East,90,8.1,11.0,58,0.00,,,0.00,VWS V14.01,2013-02-22 16:33:00,
2013-02-22 10:34:00,26.6,15.5,30.12,ENE,68,8.3,8.3,62,0.00,,,0.00,VWS V14.01,2013-02-22 16:34:00,
2013-02-22 10:35:00,29.5,16.7,30.12,East,90,8.7,9.2,58,0.00,,,0.00,VWS V14.01,2013-02-22 16:35:00,
2013-02-22 10:36:00,29.7,16.9,30.12,ENE,68,8.1,8.7,58,0.00,,,0.00,VWS V14.01,2013-02-22 16:36:00,
2013-02-22 10:37:00,29.5,16.7,30.12,East,90,7.6,8.1,58,0.00,,,0.00,VWS V14.01,2013-02-22 16:37:00,
2013-02-22 10:38:00,29.5,16.7,30.12,East,90,10.5,11.9,58,0.00,,,0.00,VWS V14.01,2013-02-22 16:38:00,
2013-02-22 10:39:00,27.5,16.8,30.12,NE,45,10.5,10.5,64,0.00,,,0.00,VWS V14.01,2013-02-22 16:39:00,
2013-02-22 10:40:00,29.5,16.7,30.12,NE,45,10.1,11.0,58,0.00,,,0.00,VWS V14.01,2013-02-22 16:40:00,
2013-02-22 10:41:00,29.3,16.2,30.12,East,90,11.0,11.0,58,0.00,,,0.00,VWS V14.01,2013-02-22 16:41:00,
2013-02-22 10:42:00,29.5,16.7,30.12,ENE,68,10.5,13.2,58,0.00,,,0.00,VWS V14.01,2013-02-22 16:42:00,
2013-02-22 10:43:00,29.5,16.3,30.12,ENE,68,8.1,11.0,58,0.00,,,0.00,VWS V14.01,2013-02-22 16:43:00,
2013-02-22 10:44:00,27.9,16.4,30.12,NE,45,4.0,7.2,62,0.00,,,0.00,VWS V14.01,2013-02-22 16:44:00,
2013-02-22 10:45:00,29.5,16.3,30.12,ENE,68,8.1,8.3,58,0.00,,,0.00,VWS V14.01,2013-02-22 16:45:00,
2013-02-22 10:46:00,30.0,17.2,30.12,East,90,13.6,13.6,58,0.00,,,0.00,VWS V14.01,2013-02-22 16:46:00,
2013-02-22 10:47:00,29.8,16.7,30.12,ENE,68,11.9,15.4,58,0.00,,,0.00,VWS V14.01,2013-02-22 16:47:00,
2013-02-22 10:48:00,30.0,17.2,30.12,NE,45,15.0,15.0,58,0.00,,,0.00,VWS V14.01,2013-02-22 16:48:00,
2013-02-22 10:49:00,28.4,17.2,30.12,NNE,22,5.8,7.6,62,0.00,,,0.00,VWS V14.01,2013-02-22 16:49:00,
2013-02-22 10:50:00,29.7,16.5,30.12,NE,45,10.1,15.0,58,0.00,,,0.00,VWS V14.01,2013-02-22 16:50:00,
2013-02-22 10:51:00,30.6,17.8,30.12,East,90,8.1,10.1,58,0.00,,,0.00,VWS V14.01,2013-02-22 16:51:00,
2013-02-22 10:52:00,30.9,18.1,30.12,East,90,6.3,8.1,58,0.00,,,0.00,VWS V14.01,2013-02-22 16:52:00,
2013-02-22 10:53:00,30.9,18.1,30.12,NE,45,8.3,8.3,58,0.00,,,0.00,VWS V14.01,2013-02-22 16:53:00,
2013-02-22 10:54:00,27.0,14.4,30.12,ENE,68,8.7,10.1,58,0.00,,,0.00,VWS V14.01,2013-02-22 16:54:00,
2013-02-22 10:55:00,31.3,18.4,30.12,NE,45,9.6,11.0,58,0.00,,,0.00,VWS V14.01,2013-02-22 16:55:00,
2013-02-22 10:56:00,30.9,17.3,30.12,NE,45,13.6,13.6,56,0.00,,,0.00,VWS V14.01,2013-02-22 16:56:00,
2013-02-22 10:57:00,30.9,17.3,30.12,ENE,68,11.0,13.6,56,0.00,,,0.00,VWS V14.01,2013-02-22 16:57:00,
2013-02-22 10:58:00,31.1,17.5,30.12,ENE,68,4.0,11.0,56,0.00,,,0.00,VWS V14.01,2013-02-22 16:58:00,
2013-02-22 10:59:00,27.9,15.6,30.12,NE,45,4.5,5.4,60,0.00,,,0.00,VWS V14.01,2013-02-22 16:59:00,
2013-02-22 11:00:00,31.6,18.0,30.12,ENE,68,8.1,8.1,56,0.00,,,0.00,VWS V14.01,2013-02-22 17:00:00,
2013-02-22 11:01:00,31.6,18.0,30.12,NE,45,3.1,8.3,56,0.00,,,0.00,VWS V14.01,2013-02-22 17:01:00,
2013-02-22 11:03:00,31.8,17.7,30.12,NE,45,9.2,9.2,56,0.00,,,0.00,VWS V14.01,2013-02-22 17:03:00,
2013-02-22 11:04:00,28.2,16.3,30.12,ENE,68,9.6,14.5,60,0.00,,,0.00,VWS V14.01,2013-02-22 17:04:00,
2013-02-22 11:05:00,31.8,17.7,30.12,NE,45,5.4,9.6,56,0.00,,,0.00,VWS V14.01,2013-02-22 17:05:00,
2013-02-22 11:06:00,32.0,18.3,30.12,ENE,68,14.5,15.9,56,0.00,,,0.00,VWS V14.01,2013-02-22 17:06:00,
2013-02-22 11:08:00,31.6,17.5,30.12,ENE,68,11.0,12.8,56,0.00,,,0.00,VWS V14.01,2013-02-22 17:08:00,
2013-02-22 11:09:00,27.9,15.6,30.12,ENE,68,7.6,8.3,60,0.00,,,0.00,VWS V14.01,2013-02-22 17:09:00,
2013-02-22 11:10:00,31.5,17.4,30.12,NE,45,10.5,10.5,56,0.00,,,0.00,VWS V14.01,2013-02-22 17:10:00,
2013-02-22 11:11:00,31.5,17.0,30.12,NE,45,10.1,10.5,54,0.00,,,0.00,VWS V14.01,2013-02-22 17:11:00,
2013-02-22 11:12:00,31.5,17.4,30.12,NE,45,10.1,12.3,56,0.00,,,0.00,VWS V14.01,2013-02-22 17:12:00,
2013-02-22 11:13:00,31.5,17.0,30.12,ENE,68,8.7,10.1,54,0.00,,,0.00,VWS V14.01,2013-02-22 17:13:00,
2013-02-22 11:14:00,28.2,15.6,30.12,NE,45,8.1,8.3,58,0.00,,,0.00,VWS V14.01,2013-02-22 17:14:00,
2013-02-22 11:15:00,31.8,17.7,30.12,ENE,68,12.8,12.8,56,0.00,,,0.00,VWS V14.01,2013-02-22 17:15:00,
2013-02-22 11:16:00,32.2,17.6,30.12,ENE,68,12.3,14.5,54,0.00,,,0.00,VWS V14.01,2013-02-22 17:16:00,
2013-02-22 11:17:00,32.2,17.2,30.12,ENE,68,10.1,12.3,54,0.00,,,0.00,VWS V14.01,2013-02-22 17:17:00,
2013-02-22 11:18:00,32.4,17.4,30.12,ENE,68,11.4,12.3,54,0.00,,,0.00,VWS V14.01,2013-02-22 17:18:00,
2013-02-22 11:19:00,29.1,16.8,30.12,North,0,8.1,8.1,60,0.00,,,0.00,VWS V14.01,2013-02-22 17:19:00,
2013-02-22 11:21:00,32.0,17.0,30.12,ENE,68,10.5,11.9,54,0.00,,,0.00,VWS V14.01,2013-02-22 17:21:00,
2013-02-22 11:22:00,32.0,17.0,30.12,East,90,8.7,12.3,54,0.00,,,0.00,VWS V14.01,2013-02-22 17:22:00,
2013-02-22 11:23:00,32.0,17.0,30.12,NE,45,8.1,10.5,54,0.00,,,0.00,VWS V14.01,2013-02-22 17:23:00,
2013-02-22 11:24:00,28.6,15.9,30.12,NE,45,8.3,8.7,58,0.00,,,0.00,VWS V14.01,2013-02-22 17:24:00,
2013-02-22 11:25:00,32.5,18.0,30.12,NE,45,10.5,10.5,54,0.00,,,0.00,VWS V14.01,2013-02-22 17:25:00,
2013-02-22 11:26:00,32.5,18.4,30.12,NE,45,10.1,11.0,56,0.00,,,0.00,VWS V14.01,2013-02-22 17:26:00,
2013-02-22 11:27:00,32.5,18.0,30.12,ENE,68,8.7,11.4,54,0.00,,,0.00,VWS V14.01,2013-02-22 17:27:00,
2013-02-22 11:28:00,32.2,17.6,30.12,NE,45,5.4,8.7,54,0.00,,,0.00,VWS V14.01,2013-02-22 17:28:00,
2013-02-22 11:29:00,28.6,15.9,30.12,NE,45,8.3,10.1,58,0.00,,,0.00,VWS V14.01,2013-02-22 17:29:00,
2013-02-22 11:30:00,32.4,17.8,30.12,ENE,68,11.0,12.8,54,0.00,,,0.00,VWS V14.01,2013-02-22 17:30:00,
2013-02-22 11:31:00,32.7,18.6,30.12,East,90,8.1,11.0,56,0.00,,,0.00,VWS V14.01,2013-02-22 17:31:00,
2013-02-22 11:32:00,32.7,18.1,30.12,ENE,68,11.4,11.4,54,0.00,,,0.00,VWS V14.01,2013-02-22 17:32:00,
2013-02-22 11:33:00,32.4,17.4,30.12,East,90,8.1,11.4,54,0.00,,,0.00,VWS V14.01,2013-02-22 17:33:00,
2013-02-22 11:34:00,29.5,16.7,30.12,East,90,8.7,9.2,58,0.00,,,0.00,VWS V14.01,2013-02-22 17:34:00,
2013-02-22 11:35:00,32.4,16.9,30.12,ENE,68,10.1,12.8,52,0.00,,,0.00,VWS V14.01,2013-02-22 17:35:00,
2013-02-22 11:36:00,32.2,16.8,30.12,East,90,5.4,10.1,52,0.00,,,0.00,VWS V14.01,2013-02-22 17:36:00,
2013-02-22 11:37:00,32.2,16.8,30.12,East,90,8.1,8.3,52,0.00,,,0.00,VWS V14.01,2013-02-22 17:37:00,
2013-02-22 11:38:00,32.5,17.1,30.12,NE,45,8.1,8.1,52,0.00,,,0.00,VWS V14.01,2013-02-22 17:38:00,
2013-02-22 11:39:00,29.5,16.7,30.12,NE,45,11.0,11.0,58,0.00,,,0.00,VWS V14.01,2013-02-22 17:39:00,
2013-02-22 11:40:00,33.1,18.0,30.12,NE,45,8.3,8.3,54,0.00,,,0.00,VWS V14.01,2013-02-22 17:40:00,
2013-02-22 11:41:00,32.7,17.7,30.12,ENE,68,8.1,12.3,54,0.00,,,0.00,VWS V14.01,2013-02-22 17:41:00,
2013-02-22 11:42:00,32.7,17.7,30.12,ENE,68,8.7,11.9,54,0.00,,,0.00,VWS V14.01,2013-02-22 17:42:00,
2013-02-22 11:43:00,32.7,17.3,30.12,ENE,68,11.0,12.3,52,0.00,,,0.00,VWS V14.01,2013-02-22 17:43:00,
2013-02-22 11:44:00,29.5,16.3,30.12,East,90,3.6,8.3,58,0.00,,,0.00,VWS V14.01,2013-02-22 17:44:00,
2013-02-22 11:45:00,32.7,17.3,30.12,ENE,68,8.3,8.3,52,0.00,,,0.00,VWS V14.01,2013-02-22 17:45:00,
2013-02-22 11:46:00,32.7,17.3,30.12,East,90,7.2,12.8,52,0.00,,,0.00,VWS V14.01,2013-02-22 17:46:00,
2013-02-22 11:47:00,32.9,17.4,30.12,East,90,7.6,8.1,52,0.00,,,0.00,VWS V14.01,2013-02-22 17:47:00,
2013-02-22 11:48:00,33.1,17.6,30.12,NE,45,8.3,10.5,52,0.00,,,0.00,VWS V14.01,2013-02-22 17:48:00,
2013-02-22 11:49:00,29.7,16.5,30.12,NE,45,10.1,15.0,58,0.00,,,0.00,VWS V14.01,2013-02-22 17:49:00,
2013-02-22 11:50:00,33.1,17.6,30.12,NE,45,7.6,9.2,52,0.00,,,0.00,VWS V14.01,2013-02-22 17:50:00,
2013-02-22 11:51:00,33.3,17.8,30.12,ENE,68,7.6,10.1,52,0.00,,,0.00,VWS V14.01,2013-02-22 17:51:00,
2013-02-22 11:52:00,33.4,17.9,30.12,East,90,5.8,10.1,52,0.00,,,0.00,VWS V14.01,2013-02-22 17:52:00,
2013-02-22 11:53:00,33.6,17.7,30.12,NE,45,8.7,12.3,52,0.00,,,0.00,VWS V14.01,2013-02-22 17:53:00,
2013-02-22 11:54:00,31.3,18.4,30.12,NE,45,10.1,11.0,58,0.00,,,0.00,VWS V14.01,2013-02-22 17:54:00,
2013-02-22 11:55:00,32.9,16.1,30.12,NE,45,9.6,9.6,50,0.00,,,0.00,VWS V14.01,2013-02-22 17:55:00,
2013-02-22 11:56:00,32.9,16.1,30.12,ENE,68,15.4,15.4,50,0.00,,,0.00,VWS V14.01,2013-02-22 17:56:00,
2013-02-22 11:57:00,32.9,16.1,30.12,ENE,68,8.1,15.4,50,0.00,,,0.00,VWS V14.01,2013-02-22 17:57:00,
2013-02-22 11:58:00,32.9,16.1,30.12,NE,45,8.7,12.8,50,0.00,,,0.00,VWS V14.01,2013-02-22 17:58:00,
2013-02-22 11:59:00,31.6,18.0,30.12,East,90,4.9,8.1,56,0.00,,,0.00,VWS V14.01,2013-02-22 17:59:00,
2013-02-22 12:00:00,32.9,16.1,30.12,NE,45,10.1,12.3,50,0.00,,,0.00,VWS V14.01,2013-02-22 18:00:00,
2013-02-22 12:01:00,32.9,16.1,30.12,ENE,68,7.6,10.1,50,0.00,,,0.00,VWS V14.01,2013-02-22 18:01:00,
2013-02-22 12:02:00,32.9,16.1,30.12,ENE,68,11.0,13.2,50,0.00,,,0.00,VWS V14.01,2013-02-22 18:02:00,
2013-02-22 12:03:00,32.9,16.1,30.12,East,90,7.2,11.4,50,0.00,,,0.00,VWS V14.01,2013-02-22 18:03:00,
2013-02-22 12:04:00,31.8,17.7,30.12,NE,45,5.4,9.6,56,0.00,,,0.00,VWS V14.01,2013-02-22 18:04:00,
2013-02-22 12:05:00,33.6,17.2,30.12,East,90,5.8,7.6,50,0.00,,,0.00,VWS V14.01,2013-02-22 18:05:00,
2013-02-22 12:06:00,33.6,17.2,30.12,NE,45,12.3,12.3,50,0.00,,,0.00,VWS V14.01,2013-02-22 18:06:00,
2013-02-22 12:07:00,33.6,17.2,30.12,NE,45,10.1,12.8,50,0.00,,,0.00,VWS V14.01,2013-02-22 18:07:00,
2013-02-22 12:08:00,33.6,17.2,30.12,East,90,5.8,12.8,50,0.00,,,0.00,VWS V14.01,2013-02-22 18:08:00,
2013-02-22 12:09:00,31.6,17.5,30.12,NE,45,8.3,10.5,56,0.00,,,0.00,VWS V14.01,2013-02-22 18:09:00,
2013-02-22 12:10:00,33.6,17.2,30.12,ENE,68,14.5,15.0,50,0.00,,,0.00,VWS V14.01,2013-02-22 18:10:00,
2013-02-22 12:11:00,33.6,17.2,30.12,ENE,68,15.9,15.9,50,0.00,,,0.00,VWS V14.01,2013-02-22 18:11:00,
2013-02-22 12:12:00,33.6,17.2,30.12,NE,45,10.1,15.9,50,0.00,,,0.00,VWS V14.01,2013-02-22 18:12:00,
2013-02-22 12:13:00,33.6,17.2,30.12,ENE,68,12.8,12.8,50,0.00,,,0.00,VWS V14.01,2013-02-22 18:13:00,
2013-02-22 12:14:00,31.8,17.7,30.12,East,90,10.1,10.1,56,0.00,,,0.00,VWS V14.01,2013-02-22 18:14:00,
2013-02-22 12:15:00,33.4,16.6,30.12,NE,45,10.5,11.0,50,0.00,,,0.00,VWS V14.01,2013-02-22 18:15:00,
2013-02-22 12:16:00,33.4,16.6,30.12,NE,45,10.5,10.5,50,0.00,,,0.00,VWS V14.01,2013-02-22 18:16:00,
2013-02-22 12:17:00,33.8,16.9,30.12,ENE,68,12.8,12.8,50,0.00,,,0.00,VWS V14.01,2013-02-22 18:17:00,
2013-02-22 12:18:00,33.8,16.4,30.12,ENE,68,12.3,13.6,48,0.00,,,0.00,VWS V14.01,2013-02-22 18:18:00,
2013-02-22 12:19:00,32.2,17.2,30.12,East,90,10.1,14.5,54,0.00,,,0.00,VWS V14.01,2013-02-22 18:19:00,
2013-02-22 12:20:00,33.4,15.6,30.12,ENE,68,10.1,11.0,48,0.00,,,0.00,VWS V14.01,2013-02-22 18:20:00,
2013-02-22 12:21:00,33.6,16.3,30.09,ENE,68,7.6,10.1,48,0.00,,,0.00,VWS V14.01,2013-02-22 18:21:00,
2013-02-22 12:22:00,33.8,16.0,30.09,NE,45,7.6,8.1,48,0.00,,,0.00,VWS V14.01,2013-02-22 18:22:00,
2013-02-22 12:23:00,33.8,16.0,30.09,NE,45,8.7,8.7,48,0.00,,,0.00,VWS V14.01,2013-02-22 18:23:00,
2013-02-22 12:24:00,32.0,17.0,30.12,NE,45,6.3,8.7,54,0.00,,,0.00,VWS V14.01,2013-02-22 18:24:00,
2013-02-22 12:25:00,33.6,15.8,30.09,East,90,12.8,12.8,48,0.00,,,0.00,VWS V14.01,2013-02-22 18:25:00,
2013-02-22 12:26:00,33.6,15.8,30.09,NE,45,6.7,12.8,48,0.00,,,0.00,VWS V14.01,2013-02-22 18:26:00,
2013-02-22 12:27:00,34.0,17.1,30.09,NE,45,14.1,14.1,50,0.00,,,0.00,VWS V14.01,2013-02-22 18:27:00,
2013-02-22 12:28:00,33.6,16.3,30.09,ENE,68,10.5,15.0,48,0.00,,,0.00,VWS V14.01,2013-02-22 18:28:00,
2013-02-22 12:29:00,32.4,17.8,30.12,NE,45,12.3,12.8,54,0.00,,,0.00,VWS V14.01,2013-02-22 18:29:00,
2013-02-22 12:30:00,33.6,16.3,30.09,ENE,68,8.3,13.2,48,0.00,,,0.00,VWS V14.01,2013-02-22 18:30:00,
2013-02-22 12:31:00,33.6,16.3,30.09,ENE,68,9.6,11.0,48,0.00,,,0.00,VWS V14.01,2013-02-22 18:31:00,
2013-02-22 12:32:00,34.2,17.2,30.09,East,90,8.1,9.6,50,0.00,,,0.00,VWS V14.01,2013-02-22 18:32:00,
2013-02-22 12:33:00,34.3,17.9,30.09,ENE,68,5.4,8.1,50,0.00,,,0.00,VWS V14.01,2013-02-22 18:33:00,
2013-02-22 12:34:00,32.4,16.9,30.12,NE,45,11.0,12.8,52,0.00,,,0.00,VWS V14.01,2013-02-22 18:34:00,
2013-02-22 12:36:00,34.0,16.6,30.09,East,90,9.2,9.2,48,0.00,,,0.00,VWS V14.01,2013-02-22 18:36:00,
2013-02-22 12:38:00,34.5,17.6,30.09,East,90,4.0,9.2,50,0.00,,,0.00,VWS V14.01,2013-02-22 18:38:00,
2013-02-22 12:39:00,32.9,17.9,30.12,NE,45,7.2,7.2,54,0.00,,,0.00,VWS V14.01,2013-02-22 18:39:00,
2013-02-22 12:40:00,35.1,18.1,30.09,NE,45,9.6,9.6,50,0.00,,,0.00,VWS V14.01,2013-02-22 18:40:00,
2013-02-22 12:41:00,34.5,16.6,30.09,NE,45,8.1,9.6,48,0.00,,,0.00,VWS V14.01,2013-02-22 18:41:00,
2013-02-22 12:42:00,34.5,16.6,30.09,NE,45,2.7,8.1,48,0.00,,,0.00,VWS V14.01,2013-02-22 18:42:00,
2013-02-22 12:43:00,34.9,17.0,30.09,NE,45,7.2,7.2,48,0.00,,,0.00,VWS V14.01,2013-02-22 18:43:00,
2013-02-22 12:44:00,32.7,17.3,30.12,ENE,68,7.6,11.0,52,0.00,,,0.00,VWS V14.01,2013-02-22 18:44:00,
2013-02-22 12:45:00,35.1,17.6,30.09,ENE,68,7.6,11.4,48,0.00,,,0.00,VWS V14.01,2013-02-22 18:45:00,
2013-02-22 12:46:00,34.9,17.0,30.09,NE,45,8.7,8.7,48,0.00,,,0.00,VWS V14.01,2013-02-22 18:46:00,
2013-02-22 12:47:00,34.9,17.0,30.09,ENE,68,7.2,8.7,48,0.00,,,0.00,VWS V14.01,2013-02-22 18:47:00,
2013-02-22 12:48:00,34.9,17.0,30.09,ENE,68,5.4,7.6,48,0.00,,,0.00,VWS V14.01,2013-02-22 18:48:00,
2013-02-22 12:49:00,33.1,17.6,30.12,NE,45,5.4,9.2,52,0.00,,,0.00,VWS V14.01,2013-02-22 18:49:00,
2013-02-22 12:50:00,34.9,17.4,30.09,NE,45,12.8,12.8,48,0.00,,,0.00,VWS V14.01,2013-02-22 18:50:00,
2013-02-22 12:51:00,34.7,16.8,30.09,NE,45,13.6,14.1,48,0.00,,,0.00,VWS V14.01,2013-02-22 18:51:00,
2013-02-22 12:52:00,34.3,16.5,30.09,NE,45,10.5,13.6,48,0.00,,,0.00,VWS V14.01,2013-02-22 18:52:00,
2013-02-22 12:53:00,34.2,16.3,30.09,ENE,68,10.5,12.3,48,0.00,,,0.00,VWS V14.01,2013-02-22 18:53:00,
2013-02-22 12:54:00,33.6,17.7,30.12,NE,45,8.3,8.7,52,0.00,,,0.00,VWS V14.01,2013-02-22 18:54:00,
2013-02-22 12:55:00,34.3,16.0,30.09,ENE,68,5.8,8.3,46,0.00,,,0.00,VWS V14.01,2013-02-22 18:55:00,
2013-02-22 12:56:00,34.7,16.8,30.09,NE,45,8.3,8.3,48,0.00,,,0.00,VWS V14.01,2013-02-22 18:56:00,
2013-02-22 12:57:00,34.9,17.4,30.09,NE,45,8.7,11.0,48,0.00,,,0.00,VWS V14.01,2013-02-22 18:57:00,
2013-02-22 12:58:00,35.1,17.6,30.09,NE,45,10.1,10.1,48,0.00,,,0.00,VWS V14.01,2013-02-22 18:58:00,
2013-02-22 12:59:00,32.9,16.1,30.12,East,90,12.3,12.3,50,0.00,,,0.00,VWS V14.01,2013-02-22 18:59:00,
2013-02-22 13:00:00,34.9,16.5,30.09,NE,45,7.2,7.2,46,0.00,,,0.00,VWS V14.01,2013-02-22 19:00:00,
2013-02-22 13:01:00,34.5,16.6,30.09,NE,45,15.9,15.9,48,0.00,,,0.00,VWS V14.01,2013-02-22 19:01:00,
2013-02-22 13:02:00,34.5,16.6,30.09,NE,45,15.9,15.9,48,0.00,,,0.00,VWS V14.01,2013-02-22 19:02:00,
2013-02-22 13:03:00,34.2,15.8,30.09,ENE,68,8.7,15.9,46,0.00,,,0.00,VWS V14.01,2013-02-22 19:03:00,
2013-02-22 13:04:00,33.6,17.2,30.12,East,90,7.6,7.6,50,0.00,,,0.00,VWS V14.01,2013-02-22 19:04:00,
2013-02-22 13:05:00,34.2,15.8,30.09,NE,45,10.1,10.1,46,0.00,,,0.00,VWS V14.01,2013-02-22 19:05:00,
2013-02-22 13:06:00,34.9,17.4,30.09,NE,45,7.2,12.3,48,0.00,,,0.00,VWS V14.01,2013-02-22 19:06:00,
2013-02-22 13:07:00,34.7,16.8,30.09,NE,45,4.0,7.2,48,0.00,,,0.00,VWS V14.01,2013-02-22 19:07:00,
2013-02-22 13:08:00,34.5,16.6,30.09,ENE,68,4.9,4.9,48,0.00,,,0.00,VWS V14.01,2013-02-22 19:08:00,
2013-02-22 13:09:00,33.6,17.2,30.12,East,90,6.3,6.3,50,0.00,,,0.00,VWS V14.01,2013-02-22 19:09:00,
2013-02-22 13:10:00,35.2,17.8,30.09,NE,45,8.3,8.3,48,0.00,,,0.00,VWS V14.01,2013-02-22 19:10:00,
2013-02-22 13:11:00,35.4,17.9,30.09,NE,45,7.6,8.3,48,0.00,,,0.00,VWS V14.01,2013-02-22 19:11:00,
2013-02-22 13:12:00,35.6,18.1,30.09,NE,45,7.2,8.3,48,0.00,,,0.00,VWS V14.01,2013-02-22 19:12:00,
2013-02-22 13:13:00,35.4,17.9,30.09,NE,45,8.3,8.3,48,0.00,,,0.00,VWS V14.01,2013-02-22 19:13:00,
2013-02-22 13:14:00,33.4,16.6,30.12,ENE,68,11.0,11.0,50,0.00,,,0.00,VWS V14.01,2013-02-22 19:14:00,
2013-02-22 13:15:00,35.6,18.1,30.09,NE,45,8.7,8.7,48,0.00,,,0.00,VWS V14.01,2013-02-22 19:15:00,
2013-02-22 13:16:00,35.6,18.1,30.09,NE,45,10.5,11.0,48,0.00,,,0.00,VWS V14.01,2013-02-22 19:16:00,
2013-02-22 13:17:00,35.1,17.1,30.09,NE,45,10.5,11.0,48,0.00,,,0.00,VWS V14.01,2013-02-22 19:17:00,
2013-02-22 13:18:00,34.9,16.5,30.09,NE,45,10.1,11.0,46,0.00,,,0.00,VWS V14.01,2013-02-22 19:18:00,
2013-02-22 13:19:00,33.4,15.6,30.12,ENE,68,11.0,11.0,48,0.00,,,0.00,VWS V14.01,2013-02-22 19:19:00,
2013-02-22 13:20:00,34.9,16.5,30.09,East,90,8.1,8.1,46,0.00,,,0.00,VWS V14.01,2013-02-22 19:20:00,
2013-02-22 13:21:00,35.4,17.5,30.09,ENE,68,8.1,8.7,48,0.00,,,0.00,VWS V14.01,2013-02-22 19:21:00,
2013-02-22 13:22:00,35.4,17.5,30.09,NE,45,4.9,9.6,48,0.00,,,0.00,VWS V14.01,2013-02-22 19:22:00,
2013-02-22 13:23:00,35.4,17.5,30.09,NE,45,6.3,8.3,48,0.00,,,0.00,VWS V14.01,2013-02-22 19:23:00,
2013-02-22 13:24:00,34.0,16.6,30.09,NE,45,9.2,12.3,48,0.00,,,0.00,VWS V14.01,2013-02-22 19:24:00,
2013-02-22 13:25:00,35.6,17.6,30.09,East,90,5.8,6.7,48,0.00,,,0.00,VWS V14.01,2013-02-22 19:25:00,
2013-02-22 13:26:00,36.3,18.3,30.09,East,90,5.4,5.8,48,0.00,,,0.00,VWS V14.01,2013-02-22 19:26:00,
2013-02-22 13:27:00,36.3,18.3,30.09,ENE,68,7.2,7.2,48,0.00,,,0.00,VWS V14.01,2013-02-22 19:27:00,
2013-02-22 13:28:00,36.3,18.3,30.09,ENE,68,7.2,7.2,48,0.00,,,0.00,VWS V14.01,2013-02-22 19:28:00,
2013-02-22 13:29:00,33.6,16.3,30.09,NE,45,10.1,13.2,48,0.00,,,0.00,VWS V14.01,2013-02-22 19:29:00,
2013-02-22 13:30:00,36.5,18.0,30.09,ENE,68,8.7,11.9,46,0.00,,,0.00,VWS V14.01,2013-02-22 19:30:00,
2013-02-22 13:31:00,36.7,18.6,30.09,NE,45,6.3,8.7,48,0.00,,,0.00,VWS V14.01,2013-02-22 19:31:00,
2013-02-22 13:32:00,36.9,18.8,30.09,ENE,68,8.3,12.3,48,0.00,,,0.00,VWS V14.01,2013-02-22 19:32:00,
2013-02-22 13:33:00,36.3,17.8,30.09,NE,45,12.3,12.3,46,0.00,,,0.00,VWS V14.01,2013-02-22 19:33:00,
2013-02-22 13:34:00,34.0,16.6,30.09,ENE,68,8.3,8.3,48,0.00,,,0.00,VWS V14.01,2013-02-22 19:34:00,
2013-02-22 13:35:00,36.1,17.6,30.09,NE,45,5.8,10.1,46,0.00,,,0.00,VWS V14.01,2013-02-22 19:35:00,
2013-02-22 13:36:00,36.7,18.6,30.09,ENE,68,3.6,5.8,48,0.00,,,0.00,VWS V14.01,2013-02-22 19:36:00,
2013-02-22 13:37:00,36.9,18.8,30.09,NE,45,8.3,10.1,48,0.00,,,0.00,VWS V14.01,2013-02-22 19:37:00,
2013-02-22 13:38:00,37.0,18.9,30.09,East,90,10.5,11.0,48,0.00,,,0.00,VWS V14.01,2013-02-22 19:38:00,
2013-02-22 13:39:00,34.9,17.4,30.09,NE,45,7.6,7.6,48,0.00,,,0.00,VWS V14.01,2013-02-22 19:39:00,
2013-02-22 13:40:00,36.7,18.1,30.09,NE,45,8.7,8.7,46,0.00,,,0.00,VWS V14.01,2013-02-22 19:40:00,
2013-02-22 13:41:00,36.5,18.0,30.09,NE,45,6.3,11.0,46,0.00,,,0.00,VWS V14.01,2013-02-22 19:41:00,
2013-02-22 13:42:00,36.7,18.6,30.09,ENE,68,8.1,8.1,48,0.00,,,0.00,VWS V14.01,2013-02-22 19:42:00,
2013-02-22 13:43:00,36.7,18.1,30.09,ENE,68,8.7,11.0,46,0.00,,,0.00,VWS V14.01,2013-02-22 19:43:00,
2013-02-22 13:44:00,35.1,17.6,30.09,East,90,8.7,11.4,48,0.00,,,0.00,VWS V14.01,2013-02-22 19:44:00,
2013-02-22 13:45:00,36.7,18.1,30.09,NE,45,5.4,5.4,46,0.00,,,0.00,VWS V14.01,2013-02-22 19:45:00,
2013-02-22 13:46:00,36.9,18.3,30.09,NE,45,7.2,7.2,46,0.00,,,0.00,VWS V14.01,2013-02-22 19:46:00,
2013-02-22 13:47:00,37.0,18.5,30.09,NE,45,4.9,7.2,46,0.00,,,0.00,VWS V14.01,2013-02-22 19:47:00,
2013-02-22 13:48:00,37.4,18.8,30.09,East,90,4.9,6.3,46,0.00,,,0.00,VWS V14.01,2013-02-22 19:48:00,
2013-02-22 13:49:00,34.9,17.0,30.09,NE,45,11.0,11.0,48,0.00,,,0.00,VWS V14.01,2013-02-22 19:49:00,
2013-02-22 13:50:00,37.6,18.9,30.09,ENE,68,11.0,12.3,46,0.00,,,0.00,VWS V14.01,2013-02-22 19:50:00,
2013-02-22 13:51:00,36.9,17.8,30.09,ENE,68,10.1,11.0,46,0.00,,,0.00,VWS V14.01,2013-02-22 19:51:00,
2013-02-22 13:52:00,36.7,17.6,30.09,NE,45,10.1,11.9,46,0.00,,,0.00,VWS V14.01,2013-02-22 19:52:00,
2013-02-22 13:53:00,36.3,17.3,30.09,ENE,68,7.2,10.1,46,0.00,,,0.00,VWS V14.01,2013-02-22 19:53:00,
2013-02-22 13:54:00,34.2,16.3,30.09,East,90,6.3,8.3,48,0.00,,,0.00,VWS V14.01,2013-02-22 19:54:00,
2013-02-22 13:55:00,36.7,18.1,30.09,East,90,11.9,11.9,46,0.00,,,0.00,VWS V14.01,2013-02-22 19:55:00,
2013-02-22 13:56:00,36.7,17.6,30.09,ENE,68,9.6,12.3,46,0.00,,,0.00,VWS V14.01,2013-02-22 19:56:00,
2013-02-22 13:57:00,36.3,17.3,30.09,NE,45,11.0,11.0,46,0.00,,,0.00,VWS V14.01,2013-02-22 19:57:00,
2013-02-22 13:58:00,36.1,17.1,30.09,NE,45,8.1,11.0,46,0.00,,,0.00,VWS V14.01,2013-02-22 19:58:00,
2013-02-22 13:59:00,34.9,16.5,30.09,NE,45,9.2,10.5,46,0.00,,,0.00,VWS V14.01,2013-02-22 19:59:00,
2013-02-22 14:00:00,36.5,18.0,30.09,East,90,3.6,8.1,46,0.00,,,0.00,VWS V14.01,2013-02-22 20:00:00,
2013-02-22 14:01:00,36.9,18.3,30.09,East,90,3.6,5.8,46,0.00,,,0.00,VWS V14.01,2013-02-22 20:01:00,
2013-02-22 14:02:00,36.9,18.3,30.09,East,90,0.0,5.8,46,0.00,,,0.00,VWS V14.01,2013-02-22 20:02:00,
2013-02-22 14:03:00,37.4,18.3,30.09,East,90,0.0,0.0,46,0.00,,,0.00,VWS V14.01,2013-02-22 20:03:00,
2013-02-22 14:04:00,34.2,15.8,30.09,NE,45,8.1,8.7,46,0.00,,,0.00,VWS V14.01,2013-02-22 20:04:00,
2013-02-22 14:05:00,37.6,18.4,30.09,NE,45,9.2,9.2,46,0.00,,,0.00,VWS V14.01,2013-02-22 20:05:00,
2013-02-22 14:06:00,37.4,18.3,30.09,NE,45,8.7,9.6,46,0.00,,,0.00,VWS V14.01,2013-02-22 20:06:00,
2013-02-22 14:07:00,37.4,18.3,30.09,East,90,8.1,15.0,46,0.00,,,0.00,VWS V14.01,2013-02-22 20:07:00,
2013-02-22 14:08:00,37.0,17.9,30.09,ENE,68,13.2,13.2,46,0.00,,,0.00,VWS V14.01,2013-02-22 20:08:00,
2013-02-22 14:09:00,34.9,17.4,30.09,NE,45,5.4,5.4,48,0.00,,,0.00,VWS V14.01,2013-02-22 20:09:00,
2013-02-22 14:10:00,36.9,17.8,30.09,NE,45,5.8,11.9,46,0.00,,,0.00,VWS V14.01,2013-02-22 20:10:00,
2013-02-22 14:11:00,37.0,17.9,30.09,ENE,68,5.8,5.8,46,0.00,,,0.00,VWS V14.01,2013-02-22 20:11:00,
2013-02-22 14:12:00,37.0,17.9,30.09,ENE,68,8.3,8.3,46,0.00,,,0.00,VWS V14.01,2013-02-22 20:12:00,
2013-02-22 14:13:00,37.2,18.1,30.09,East,90,7.6,8.3,46,0.00,,,0.00,VWS V14.01,2013-02-22 20:13:00,
2013-02-22 14:14:00,35.6,18.1,30.09,NE,45,7.6,8.7,48,0.00,,,0.00,VWS V14.01,2013-02-22 20:14:00,
2013-02-22 14:15:00,37.2,18.1,30.09,East,90,5.4,8.3,46,0.00,,,0.00,VWS V14.01,2013-02-22 20:15:00,
2013-02-22 14:16:00,37.2,18.1,30.09,East,90,0.0,5.4,46,0.00,,,0.00,VWS V14.01,2013-02-22 20:16:00,
2013-02-22 14:17:00,37.6,18.4,30.09,ENE,68,5.8,5.8,46,0.00,,,0.00,VWS V14.01,2013-02-22 20:17:00,
2013-02-22 14:18:00,37.9,18.8,30.09,East,90,3.6,8.1,46,0.00,,,0.00,VWS V14.01,2013-02-22 20:18:00,
2013-02-22 14:19:00,34.9,16.5,30.09,NE,45,8.1,10.1,46,0.00,,,0.00,VWS V14.01,2013-02-22 20:19:00,
2013-02-22 14:20:00,38.3,18.6,30.09,NE,45,5.8,5.8,44,0.00,,,0.00,VWS V14.01,2013-02-22 20:20:00,
2013-02-22 14:21:00,38.3,18.6,30.06,NE,45,8.7,10.5,44,0.00,,,0.00,VWS V14.01,2013-02-22 20:21:00,
2013-02-22 14:22:00,37.8,18.1,30.06,NE,45,7.6,10.5,44,0.00,,,0.00,VWS V14.01,2013-02-22 20:22:00,
2013-02-22 14:23:00,37.8,18.1,30.06,NE,45,7.6,9.2,44,0.00,,,0.00,VWS V14.01,2013-02-22 20:23:00,
2013-02-22 14:24:00,35.6,17.1,30.09,NE,45,6.7,6.7,46,0.00,,,0.00,VWS V14.01,2013-02-22 20:24:00,
2013-02-22 14:25:00,37.6,17.9,30.06,North,0,5.8,8.3,44,0.00,,,0.00,VWS V14.01,2013-02-22 20:25:00,
2013-02-22 14:26:00,37.6,17.9,30.06,NE,45,5.8,5.8,44,0.00,,,0.00,VWS V14.01,2013-02-22 20:26:00,
2013-02-22 14:27:00,37.8,18.6,30.06,NE,45,5.4,5.8,46,0.00,,,0.00,VWS V14.01,2013-02-22 20:27:00,
2013-02-22 14:28:00,37.9,18.8,30.06,NE,45,6.3,6.3,46,0.00,,,0.00,VWS V14.01,2013-02-22 20:28:00,
2013-02-22 14:29:00,36.5,18.0,30.09,East,90,11.9,11.9,46,0.00,,,0.00,VWS V14.01,2013-02-22 20:29:00,
2013-02-22 14:30:00,37.4,17.8,30.06,ENE,68,8.3,13.6,44,0.00,,,0.00,VWS V14.01,2013-02-22 20:30:00,
2013-02-22 14:31:00,37.0,17.4,30.06,East,90,7.2,8.3,44,0.00,,,0.00,VWS V14.01,2013-02-22 20:31:00,
2013-02-22 14:32:00,37.2,17.6,30.06,NE,45,8.1,8.1,44,0.00,,,0.00,VWS V14.01,2013-02-22 20:32:00,
2013-02-22 14:33:00,37.2,18.1,30.06,NE,45,8.1,8.1,46,0.00,,,0.00,VWS V14.01,2013-02-22 20:33:00,
2013-02-22 14:34:00,36.3,17.8,30.09,ENE,68,4.9,10.1,46,0.00,,,0.00,VWS V14.01,2013-02-22 20:34:00,
2013-02-22 14:35:00,37.2,18.1,30.06,East,90,8.7,12.3,46,0.00,,,0.00,VWS V14.01,2013-02-22 20:35:00,
2013-02-22 14:36:00,37.2,18.1,30.06,East,90,7.6,9.2,46,0.00,,,0.00,VWS V14.01,2013-02-22 20:36:00,
2013-02-22 14:37:00,37.2,18.1,30.06,East,90,5.8,7.6,46,0.00,,,0.00,VWS V14.01,2013-02-22 20:37:00,
2013-02-22 14:38:00,37.4,18.3,30.06,ENE,68,3.6,5.8,46,0.00,,,0.00,VWS V14.01,2013-02-22 20:38:00,
2013-02-22 14:39:00,36.9,18.3,30.09,NE,45,8.1,8.1,46,0.00,,,0.00,VWS V14.01,2013-02-22 20:39:00,
2013-02-22 14:40:00,37.9,18.8,30.06,East,90,4.0,4.9,46,0.00,,,0.00,VWS V14.01,2013-02-22 20:40:00,
2013-02-22 14:41:00,38.1,18.9,30.06,SE,135,7.6,7.6,46,0.00,,,0.00,VWS V14.01,2013-02-22 20:41:00,
2013-02-22 14:42:00,37.9,18.2,30.06,SE,135,6.3,7.6,44,0.00,,,0.00,VWS V14.01,2013-02-22 20:42:00,
2013-02-22 14:43:00,37.6,17.9,30.06,SE,135,2.7,6.3,44,0.00,,,0.00,VWS V14.01,2013-02-22 20:43:00,
2013-02-22 14:44:00,36.7,18.1,30.09,NE,45,5.4,5.4,46,0.00,,,0.00,VWS V14.01,2013-02-22 20:44:00,
2013-02-22 14:45:00,37.6,17.9,30.06,SE,135,3.6,3.6,44,0.00,,,0.00,VWS V14.01,2013-02-22 20:45:00,
2013-02-22 14:46:00,37.6,17.9,30.06,East,90,4.0,6.3,44,0.00,,,0.00,VWS V14.01,2013-02-22 20:46:00,
2013-02-22 14:47:00,37.6,17.9,30.06,East,90,10.1,10.5,44,0.00,,,0.00,VWS V14.01,2013-02-22 20:47:00,
2013-02-22 14:49:00,37.6,18.9,30.09,NE,45,12.3,12.3,46,0.00,,,0.00,VWS V14.01,2013-02-22 20:49:00,
2013-02-22 14:50:00,37.6,17.9,30.06,ENE,68,4.5,8.3,44,0.00,,,0.00,VWS V14.01,2013-02-22 20:50:00,
2013-02-22 14:51:00,37.6,17.9,30.06,ENE,68,3.1,6.3,44,0.00,,,0.00,VWS V14.01,2013-02-22 20:51:00,
2013-02-22 14:52:00,37.6,17.9,30.06,ENE,68,6.3,6.3,44,0.00,,,0.00,VWS V14.01,2013-02-22 20:52:00,
2013-02-22 14:53:00,37.6,17.9,30.06,SE,135,3.6,6.3,44,0.00,,,0.00,VWS V14.01,2013-02-22 20:53:00,
2013-02-22 14:54:00,36.7,17.6,30.09,ENE,68,9.2,10.5,46,0.00,,,0.00,VWS V14.01,2013-02-22 20:54:00,
2013-02-22 14:55:00,37.6,17.9,30.06,East,90,4.0,5.8,44,0.00,,,0.00,VWS V14.01,2013-02-22 20:55:00,
2013-02-22 14:56:00,37.6,17.9,30.06,SE,135,5.4,6.3,44,0.00,,,0.00,VWS V14.01,2013-02-22 20:56:00,
2013-02-22 14:57:00,37.6,17.9,30.06,SE,135,4.0,6.3,44,0.00,,,0.00,VWS V14.01,2013-02-22 20:57:00,
2013-02-22 14:58:00,37.6,17.9,30.06,SE,135,3.1,5.8,44,0.00,,,0.00,VWS V14.01,2013-02-22 20:58:00,
2013-02-22 14:59:00,36.5,18.0,30.09,NE,45,6.3,8.1,46,0.00,,,0.00,VWS V14.01,2013-02-22 20:59:00,
2013-02-22 15:00:00,38.7,18.9,30.06,ENE,68,10.1,10.1,44,0.00,,,0.00,VWS V14.01,2013-02-22 21:00:00,
2013-02-22 15:01:00,38.7,18.9,30.06,East,90,5.8,10.1,44,0.00,,,0.00,VWS V14.01,2013-02-22 21:01:00,
2013-02-22 15:03:00,38.1,18.4,30.06,NE,45,4.0,10.5,44,0.00,,,0.00,VWS V14.01,2013-02-22 21:03:00,
2013-02-22 15:04:00,37.6,18.4,30.09,ENE,68,5.4,7.6,46,0.00,,,0.00,VWS V14.01,2013-02-22 21:04:00,
2013-02-22 15:05:00,38.3,18.6,30.06,East,90,7.6,7.6,44,0.00,,,0.00,VWS V14.01,2013-02-22 21:05:00,
2013-02-22 15:06:00,38.1,18.4,30.06,East,90,4.9,7.6,44,0.00,,,0.00,VWS V14.01,2013-02-22 21:06:00,
2013-02-22 15:08:00,38.1,18.4,30.06,ENE,68,4.0,6.3,44,0.00,,,0.00,VWS V14.01,2013-02-22 21:08:00,
2013-02-22 15:09:00,36.9,17.8,30.09,NE,45,10.5,11.9,46,0.00,,,0.00,VWS V14.01,2013-02-22 21:09:00,
2013-02-22 15:10:00,38.1,18.4,30.06,NE,45,3.1,8.7,44,0.00,,,0.00,VWS V14.01,2013-02-22 21:10:00,
2013-02-22 15:11:00,38.1,18.4,30.06,ENE,68,4.0,6.3,44,0.00,,,0.00,VWS V14.01,2013-02-22 21:11:00,
2013-02-22 15:12:00,38.1,18.4,30.06,ESE,112,2.7,5.8,44,0.00,,,0.00,VWS V14.01,2013-02-22 21:12:00,
2013-02-22 15:13:00,38.5,18.7,30.06,ESE,112,0.0,3.6,44,0.00,,,0.00,VWS V14.01,2013-02-22 21:13:00,
2013-02-22 15:14:00,37.2,18.1,30.09,East,90,6.7,8.3,46,0.00,,,0.00,VWS V14.01,2013-02-22 21:14:00,
2013-02-22 15:15:00,38.7,18.9,30.06,East,90,4.0,5.8,44,0.00,,,0.00,VWS V14.01,2013-02-22 21:15:00,
2013-02-22 15:16:00,38.8,19.1,30.06,ENE,68,12.8,12.8,44,0.00,,,0.00,VWS V14.01,2013-02-22 21:16:00,
2013-02-22 15:18:00,38.1,17.9,30.06,East,90,6.3,10.1,44,0.00,,,0.00,VWS V14.01,2013-02-22 21:18:00,
2013-02-22 15:19:00,38.1,18.9,30.09,East,90,3.1,4.0,46,0.00,,,0.00,VWS V14.01,2013-02-22 21:19:00,
2013-02-22 15:20:00,37.9,17.7,30.06,NE,45,6.3,6.3,44,0.00,,,0.00,VWS V14.01,2013-02-22 21:20:00,
2013-02-22 15:21:00,37.9,18.2,30.09,NE,45,11.9,11.9,44,0.00,,,0.00,VWS V14.01,2013-02-22 21:21:00,
2013-02-22 15:22:00,37.4,17.2,30.09,ENE,68,11.9,12.8,44,0.00,,,0.00,VWS V14.01,2013-02-22 21:22:00,
2013-02-22 15:23:00,37.0,17.4,30.09,ENE,68,7.6,11.9,44,0.00,,,0.00,VWS V14.01,2013-02-22 21:23:00,
2013-02-22 15:24:00,37.6,17.9,30.06,North,0,7.2,8.3,44,0.00,,,0.00,VWS V14.01,2013-02-22 21:24:00,
2013-02-22 15:25:00,37.0,17.4,30.09,NE,45,8.1,8.3,44,0.00,,,0.00,VWS V14.01,2013-02-22 21:25:00,
2013-02-22 15:26:00,37.0,17.4,30.09,ENE,68,9.6,10.1,44,0.00,,,0.00,VWS V14.01,2013-02-22 21:26:00,
2013-02-22 15:27:00,37.0,17.4,30.09,NE,45,7.2,9.6,44,0.00,,,0.00,VWS V14.01,2013-02-22 21:27:00,
2013-02-22 15:28:00,37.0,17.4,30.09,NE,45,10.1,13.2,44,0.00,,,0.00,VWS V14.01,2013-02-22 21:28:00,
2013-02-22 15:29:00,37.4,17.8,30.06,ENE,68,13.6,13.6,44,0.00,,,0.00,VWS V14.01,2013-02-22 21:29:00,
2013-02-22 15:30:00,36.7,17.1,30.09,East,90,5.8,11.4,44,0.00,,,0.00,VWS V14.01,2013-02-22 21:30:00,
2013-02-22 15:31:00,36.9,17.8,30.09,East,90,3.6,7.6,46,0.00,,,0.00,VWS V14.01,2013-02-22 21:31:00,
2013-02-22 15:32:00,37.0,17.9,30.09,SE,135,5.4,7.2,46,0.00,,,0.00,VWS V14.01,2013-02-22 21:32:00,
2013-02-22 15:33:00,37.0,17.9,30.09,East,90,5.8,5.8,46,0.00,,,0.00,VWS V14.01,2013-02-22 21:33:00,
2013-02-22 15:34:00,37.2,18.1,30.06,NE,45,12.3,12.3,46,0.00,,,0.00,VWS V14.01,2013-02-22 21:34:00,
2013-02-22 15:35:00,37.0,17.4,30.09,East,90,3.6,6.3,44,0.00,,,0.00,VWS V14.01,2013-02-22 21:35:00,
2013-02-22 15:36:00,37.2,17.6,30.06,SE,135,3.6,3.6,44,0.00,,,0.00,VWS V14.01,2013-02-22 21:36:00,
2013-02-22 15:37:00,37.2,17.6,30.06,NE,45,5.4,9.6,44,0.00,,,0.00,VWS V14.01,2013-02-22 21:37:00,
2013-02-22 15:38:00,37.2,17.6,30.06,ENE,68,8.3,8.3,44,0.00,,,0.00,VWS V14.01,2013-02-22 21:38:00,
2013-02-22 15:39:00,37.9,18.8,30.06,East,90,3.6,4.9,46,0.00,,,0.00,VWS V14.01,2013-02-22 21:39:00,
2013-02-22 15:40:00,37.0,17.4,30.06,NE,45,8.1,10.5,44,0.00,,,0.00,VWS V14.01,2013-02-22 21:40:00,
2013-02-22 15:41:00,37.0,17.4,30.06,NE,45,8.1,8.1,44,0.00,,,0.00,VWS V14.01,2013-02-22 21:41:00,
2013-02-22 15:42:00,36.7,17.1,30.06,East,90,4.0,8.7,44,0.00,,,0.00,VWS V14.01,2013-02-22 21:42:00,
2013-02-22 15:43:00,36.9,17.3,30.06,ENE,68,5.8,7.2,44,0.00,,,0.00,VWS V14.01,2013-02-22 21:43:00,
2013-02-22 15:44:00,37.6,17.9,30.06,SE,135,3.6,3.6,44,0.00,,,0.00,VWS V14.01,2013-02-22 21:44:00,
2013-02-22 15:45:00,36.7,17.1,30.06,East,90,5.8,11.0,44,0.00,,,0.00,VWS V14.01,2013-02-22 21:45:00,
2013-02-22 15:46:00,36.7,17.1,30.06,East,90,6.7,9.6,44,0.00,,,0.00,VWS V14.01,2013-02-22 21:46:00,
2013-02-22 15:47:00,36.5,16.9,30.06,ENE,68,7.6,8.1,44,0.00,,,0.00,VWS V14.01,2013-02-22 21:47:00,
2013-02-22 15:48:00,36.3,17.3,30.06,ENE,68,7.6,9.6,46,0.00,,,0.00,VWS V14.01,2013-02-22 21:48:00,
2013-02-22 15:49:00,37.6,17.9,30.06,ENE,68,5.8,8.3,44,0.00,,,0.00,VWS V14.01,2013-02-22 21:49:00,
2013-02-22 15:50:00,36.1,17.1,30.06,NE,45,8.3,10.5,46,0.00,,,0.00,VWS V14.01,2013-02-22 21:50:00,
2013-02-22 15:51:00,36.1,17.1,30.06,East,90,6.3,8.3,46,0.00,,,0.00,VWS V14.01,2013-02-22 21:51:00,
2013-02-22 15:52:00,36.1,17.1,30.06,East,90,6.3,6.3,46,0.00,,,0.00,VWS V14.01,2013-02-22 21:52:00,
2013-02-22 15:53:00,36.0,17.0,30.06,ENE,68,8.3,10.1,46,0.00,,,0.00,VWS V14.01,2013-02-22 21:53:00,
2013-02-22 15:54:00,37.6,17.9,30.06,East,90,0.0,5.8,44,0.00,,,0.00,VWS V14.01,2013-02-22 21:54:00,
2013-02-22 15:55:00,35.8,16.8,30.06,East,90,7.2,8.7,46,0.00,,,0.00,VWS V14.01,2013-02-22 21:55:00,
2013-02-22 15:56:00,36.0,17.5,30.06,East,90,6.3,7.2,46,0.00,,,0.00,VWS V14.01,2013-02-22 21:56:00,
2013-02-22 15:57:00,35.8,16.8,30.06,East,90,5.8,6.3,46,0.00,,,0.00,VWS V14.01,2013-02-22 21:57:00,
2013-02-22 15:58:00,35.8,16.8,30.06,ENE,68,8.7,9.2,46,0.00,,,0.00,VWS V14.01,2013-02-22 21:58:00,
2013-02-22 15:59:00,38.5,18.7,30.06,East,90,4.0,7.6,44,0.00,,,0.00,VWS V14.01,2013-02-22 21:59:00,
2013-02-22 16:00:00,35.8,17.3,30.06,East,90,6.3,7.2,46,0.00,,,0.00,VWS V14.01,2013-02-22 22:00:00,
2013-02-22 16:01:00,35.8,17.3,30.06,ENE,68,3.6,6.3,46,0.00,,,0.00,VWS V14.01,2013-02-22 22:01:00,
2013-02-22 16:02:00,35.8,17.3,30.06,ENE,68,4.0,4.0,46,0.00,,,0.00,VWS V14.01,2013-02-22 22:02:00,
2013-02-22 16:03:00,35.8,17.3,30.06,ENE,68,5.4,5.4,46,0.00,,,0.00,VWS V14.01,2013-02-22 22:03:00,
2013-02-22 16:04:00,38.5,18.7,30.06,ENE,68,6.3,6.3,44,0.00,,,0.00,VWS V14.01,2013-02-22 22:04:00,
2013-02-22 16:05:00,36.1,17.6,30.06,ENE,68,6.7,8.3,46,0.00,,,0.00,VWS V14.01,2013-02-22 22:05:00,
2013-02-22 16:06:00,36.1,17.6,30.06,ENE,68,5.4,6.7,46,0.00,,,0.00,VWS V14.01,2013-02-22 22:06:00,
2013-02-22 16:07:00,36.0,17.5,30.06,ENE,68,5.4,5.4,46,0.00,,,0.00,VWS V14.01,2013-02-22 22:07:00,
2013-02-22 16:08:00,36.0,17.5,30.06,East,90,7.6,9.2,46,0.00,,,0.00,VWS V14.01,2013-02-22 22:08:00,
2013-02-22 16:09:00,38.1,18.4,30.06,ENE,68,8.7,8.7,44,0.00,,,0.00,VWS V14.01,2013-02-22 22:09:00,
2013-02-22 16:10:00,36.0,17.5,30.06,East,90,6.3,6.3,46,0.00,,,0.00,VWS V14.01,2013-02-22 22:10:00,
2013-02-22 16:11:00,36.0,17.5,30.06,East,90,8.3,8.3,46,0.00,,,0.00,VWS V14.01,2013-02-22 22:11:00,
2013-02-22 16:12:00,35.8,17.3,30.06,East,90,3.1,8.3,46,0.00,,,0.00,VWS V14.01,2013-02-22 22:12:00,
2013-02-22 16:13:00,36.0,17.5,30.06,NE,45,5.4,5.8,46,0.00,,,0.00,VWS V14.01,2013-02-22 22:13:00,
2013-02-22 16:14:00,38.7,18.9,30.06,East,90,3.6,5.8,44,0.00,,,0.00,VWS V14.01,2013-02-22 22:14:00,
2013-02-22 16:15:00,35.8,16.8,30.06,East,90,2.7,7.6,46,0.00,,,0.00,VWS V14.01,2013-02-22 22:15:00,
2013-02-22 16:16:00,35.8,17.3,30.06,East,90,3.6,3.6,46,0.00,,,0.00,VWS V14.01,2013-02-22 22:16:00,
2013-02-22 16:17:00,35.8,17.3,30.06,East,90,2.7,3.6,46,0.00,,,0.00,VWS V14.01,2013-02-22 22:17:00,
2013-02-22 16:18:00,35.8,17.3,30.06,ENE,68,5.4,5.4,46,0.00,,,0.00,VWS V14.01,2013-02-22 22:18:00,
2013-02-22 16:19:00,37.9,17.7,30.06,East,90,4.9,8.1,44,0.00,,,0.00,VWS V14.01,2013-02-22 22:19:00,
2013-02-22 16:20:00,35.8,17.3,30.06,NE,45,6.3,6.3,46,0.00,,,0.00,VWS V14.01,2013-02-22 22:20:00,
2013-02-22 16:21:00,35.8,17.3,30.06,ENE,68,8.3,8.3,46,0.00,,,0.00,VWS V14.01,2013-02-22 22:21:00,
2013-02-22 16:22:00,35.6,17.1,30.06,East,90,8.1,8.3,46,0.00,,,0.00,VWS V14.01,2013-02-22 22:22:00,
2013-02-22 16:23:00,35.6,17.1,30.06,ENE,68,6.3,8.3,46,0.00,,,0.00,VWS V14.01,2013-02-22 22:23:00,
2013-02-22 16:24:00,37.0,17.4,30.09,East,90,5.4,8.3,44,0.00,,,0.00,VWS V14.01,2013-02-22 22:24:00,
2013-02-22 16:25:00,35.4,17.0,30.06,East,90,5.4,8.7,46,0.00,,,0.00,VWS V14.01,2013-02-22 22:25:00,
2013-02-22 16:26:00,35.2,16.8,30.06,ENE,68,5.4,7.6,46,0.00,,,0.00,VWS V14.01,2013-02-22 22:26:00,
2013-02-22 16:27:00,35.2,16.8,30.06,East,90,4.9,5.8,46,0.00,,,0.00,VWS V14.01,2013-02-22 22:27:00,
2013-02-22 16:28:00,35.2,16.8,30.06,East,90,4.9,8.1,46,0.00,,,0.00,VWS V14.01,2013-02-22 22:28:00,
2013-02-22 16:29:00,36.7,17.1,30.09,ENE,68,9.6,11.4,44,0.00,,,0.00,VWS V14.01,2013-02-22 22:29:00,
2013-02-22 16:30:00,35.1,16.6,30.06,East,90,6.3,7.6,46,0.00,,,0.00,VWS V14.01,2013-02-22 22:30:00,
2013-02-22 16:31:00,35.1,16.6,30.06,ENE,68,4.0,7.2,46,0.00,,,0.00,VWS V14.01,2013-02-22 22:31:00,
2013-02-22 16:32:00,35.1,16.6,30.06,East,90,5.4,7.2,46,0.00,,,0.00,VWS V14.01,2013-02-22 22:32:00,
2013-02-22 16:33:00,35.1,16.6,30.06,East,90,8.1,8.1,46,0.00,,,0.00,VWS V14.01,2013-02-22 22:33:00,
2013-02-22 16:34:00,37.0,17.4,30.09,ESE,112,4.9,6.3,44,0.00,,,0.00,VWS V14.01,2013-02-22 22:34:00,
2013-02-22 16:35:00,35.1,17.1,30.06,East,90,3.1,5.8,48,0.00,,,0.00,VWS V14.01,2013-02-22 22:35:00,
2013-02-22 16:36:00,35.1,17.1,30.06,ESE,112,2.7,6.3,48,0.00,,,0.00,VWS V14.01,2013-02-22 22:36:00,
2013-02-22 16:37:00,35.1,17.1,30.06,East,90,3.1,3.6,48,0.00,,,0.00,VWS V14.01,2013-02-22 22:37:00,
2013-02-22 16:38:00,35.1,17.1,30.06,East,90,3.6,5.4,48,0.00,,,0.00,VWS V14.01,2013-02-22 22:38:00,
2013-02-22 16:39:00,37.0,17.4,30.06,NE,45,8.3,8.7,44,0.00,,,0.00,VWS V14.01,2013-02-22 22:39:00,
2013-02-22 16:40:00,35.1,17.1,30.06,ESE,112,0.0,6.3,48,0.00,,,0.00,VWS V14.01,2013-02-22 22:40:00,
2013-02-22 16:41:00,34.9,17.0,30.06,ESE,112,2.7,4.9,48,0.00,,,0.00,VWS V14.01,2013-02-22 22:41:00,
2013-02-22 16:42:00,34.9,17.0,30.06,East,90,0.0,5.8,48,0.00,,,0.00,VWS V14.01,2013-02-22 22:42:00,
2013-02-22 16:43:00,35.1,17.1,30.06,East,90,0.0,0.0,48,0.00,,,0.00,VWS V14.01,2013-02-22 22:43:00,
2013-02-22 16:44:00,36.9,17.3,30.06,ENE,68,11.0,11.0,44,0.00,,,0.00,VWS V14.01,2013-02-22 22:44:00,
2013-02-22 16:45:00,34.9,17.0,30.06,NE,45,5.4,5.8,48,0.00,,,0.00,VWS V14.01,2013-02-22 22:45:00,
2013-02-22 16:46:00,34.9,17.0,30.06,ENE,68,4.9,8.7,48,0.00,,,0.00,VWS V14.01,2013-02-22 22:46:00,
2013-02-22 16:47:00,34.7,16.8,30.06,East,90,6.3,7.2,48,0.00,,,0.00,VWS V14.01,2013-02-22 22:47:00,
2013-02-22 16:48:00,34.7,16.8,30.06,East,90,8.7,8.7,48,0.00,,,0.00,VWS V14.01,2013-02-22 22:48:00,
2013-02-22 16:49:00,36.5,17.5,30.06,ENE,68,7.6,7.6,46,0.00,,,0.00,VWS V14.01,2013-02-22 22:49:00,
2013-02-22 16:50:00,34.5,16.6,30.06,East,90,3.1,4.0,48,0.00,,,0.00,VWS V14.01,2013-02-22 22:50:00,
2013-02-22 16:51:00,34.5,17.1,30.09,East,90,2.2,3.1,48,0.00,,,0.00,VWS V14.01,2013-02-22 22:51:00,
2013-02-22 16:52:00,34.5,17.1,30.09,East,90,5.8,6.3,48,0.00,,,0.00,VWS V14.01,2013-02-22 22:52:00,
2013-02-22 16:53:00,34.3,16.9,30.09,East,90,3.6,5.8,48,0.00,,,0.00,VWS V14.01,2013-02-22 22:53:00,
2013-02-22 16:54:00,35.8,16.8,30.06,East,90,7.2,8.7,46,0.00,,,0.00,VWS V14.01,2013-02-22 22:54:00,
2013-02-22 16:55:00,34.3,16.9,30.09,East,90,2.2,6.7,48,0.00,,,0.00,VWS V14.01,2013-02-22 22:55:00,
2013-02-22 16:56:00,34.2,16.8,30.09,East,90,4.0,4.0,48,0.00,,,0.00,VWS V14.01,2013-02-22 22:56:00,
2013-02-22 16:57:00,34.0,16.6,30.09,East,90,5.8,5.8,48,0.00,,,0.00,VWS V14.01,2013-02-22 22:57:00,
2013-02-22 16:58:00,34.0,16.6,30.09,ESE,112,4.9,5.8,48,0.00,,,0.00,VWS V14.01,2013-02-22 22:58:00,
2013-02-22 16:59:00,35.8,17.3,30.06,ENE,68,6.3,7.2,46,0.00,,,0.00,VWS V14.01,2013-02-22 22:59:00,
2013-02-22 17:00:00,33.8,16.4,30.09,East,90,0.0,2.2,48,0.00,,,0.00,VWS V14.01,2013-02-22 23:00:00,
2013-02-22 17:01:00,33.8,16.4,30.09,East,90,3.1,3.6,48,0.00,,,0.00,VWS V14.01,2013-02-22 23:01:00,
2013-02-22 17:02:00,33.8,16.4,30.09,East,90,0.0,3.1,48,0.00,,,0.00,VWS V14.01,2013-02-22 23:02:00,
2013-02-22 17:03:00,33.6,16.8,30.09,East,90,0.0,0.0,50,0.00,,,0.00,VWS V14.01,2013-02-22 23:03:00,
2013-02-22 17:04:00,36.0,17.5,30.06,East,90,4.9,6.3,46,0.00,,,0.00,VWS V14.01,2013-02-22 23:04:00,
2013-02-22 17:05:00,33.4,16.6,30.09,ESE,112,2.2,4.9,50,0.00,,,0.00,VWS V14.01,2013-02-22 23:05:00,
2013-02-22 17:06:00,33.4,16.6,30.09,ESE,112,0.0,2.2,50,0.00,,,0.00,VWS V14.01,2013-02-22 23:06:00,
2013-02-22 17:07:00,33.4,16.6,30.09,East,90,3.1,3.6,50,0.00,,,0.00,VWS V14.01,2013-02-22 23:07:00,
2013-02-22 17:08:00,33.3,16.9,30.09,East,90,0.0,3.1,50,0.00,,,0.00,VWS V14.01,2013-02-22 23:08:00,
2013-02-22 17:09:00,36.0,17.5,30.06,NE,45,6.3,6.3,46,0.00,,,0.00,VWS V14.01,2013-02-22 23:09:00,
2013-02-22 17:10:00,33.1,16.7,30.09,East,90,3.1,3.1,50,0.00,,,0.00,VWS V14.01,2013-02-22 23:10:00,
2013-02-22 17:11:00,33.1,16.7,30.09,East,90,0.0,3.1,50,0.00,,,0.00,VWS V14.01,2013-02-22 23:11:00,
2013-02-22 17:12:00,32.9,17.0,30.09,East,90,2.7,3.1,52,0.00,,,0.00,VWS V14.01,2013-02-22 23:12:00,
2013-02-22 17:13:00,32.9,17.0,30.09,East,90,4.0,4.0,52,0.00,,,0.00,VWS V14.01,2013-02-22 23:13:00,
2013-02-22 17:14:00,36.0,17.5,30.06,East,90,5.8,5.8,46,0.00,,,0.00,VWS V14.01,2013-02-22 23:14:00,
2013-02-22 17:16:00,32.7,16.8,30.09,East,90,0.0,0.0,52,0.00,,,0.00,VWS V14.01,2013-02-22 23:16:00,
2013-02-22 17:17:00,32.7,16.8,30.09,East,90,3.1,3.1,52,0.00,,,0.00,VWS V14.01,2013-02-22 23:17:00,
2013-02-22 17:18:00,32.5,16.7,30.09,ESE,112,0.0,3.1,52,0.00,,,0.00,VWS V14.01,2013-02-22 23:18:00,
2013-02-22 17:19:00,35.8,17.3,30.06,East,90,5.4,5.4,46,0.00,,,0.00,VWS V14.01,2013-02-22 23:19:00,
2013-02-22 17:20:00,32.4,16.9,30.09,East,90,0.0,2.2,52,0.00,,,0.00,VWS V14.01,2013-02-22 23:20:00,
2013-02-22 17:21:00,32.4,16.9,30.09,East,90,0.0,3.1,52,0.00,,,0.00,VWS V14.01,2013-02-22 23:21:00,
2013-02-22 17:22:00,32.2,16.8,30.09,East,90,3.1,3.1,52,0.00,,,0.00,VWS V14.01,2013-02-22 23:22:00,
2013-02-22 17:23:00,32.2,16.8,30.09,East,90,4.9,4.9,52,0.00,,,0.00,VWS V14.01,2013-02-22 23:23:00,
2013-02-22 17:24:00,35.4,17.0,30.06,ENE,68,8.7,8.7,46,0.00,,,0.00,VWS V14.01,2013-02-22 23:24:00,
2013-02-22 17:25:00,32.2,16.8,30.09,East,90,0.0,0.0,52,0.00,,,0.00,VWS V14.01,2013-02-22 23:25:00,
2013-02-22 17:26:00,32.2,16.8,30.09,East,90,0.0,0.0,52,0.00,,,0.00,VWS V14.01,2013-02-22 23:26:00,
2013-02-22 17:27:00,32.0,16.6,30.09,East,90,0.0,0.0,52,0.00,,,0.00,VWS V14.01,2013-02-22 23:27:00,
2013-02-22 17:28:00,32.0,16.6,30.09,East,90,0.0,0.0,52,0.00,,,0.00,VWS V14.01,2013-02-22 23:28:00,
2013-02-22 17:29:00,35.1,16.6,30.06,ENE,68,5.4,5.8,46,0.00,,,0.00,VWS V14.01,2013-02-22 23:29:00,
2013-02-22 17:30:00,31.8,16.9,30.09,East,90,0.0,0.0,54,0.00,,,0.00,VWS V14.01,2013-02-22 23:30:00,
2013-02-22 17:31:00,31.6,16.7,30.09,East,90,0.0,0.0,54,0.00,,,0.00,VWS V14.01,2013-02-22 23:31:00,
2013-02-22 17:32:00,31.5,16.5,30.09,East,90,0.0,0.0,54,0.00,,,0.00,VWS V14.01,2013-02-22 23:32:00,
2013-02-22 17:34:00,35.1,16.6,30.06,East,90,3.6,3.6,46,0.00,,,0.00,VWS V14.01,2013-02-22 23:34:00,
2013-02-22 17:35:00,31.3,16.4,30.09,ESE,112,0.0,0.0,54,0.00,,,0.00,VWS V14.01,2013-02-22 23:35:00,
2013-02-22 17:36:00,31.3,16.4,30.09,ESE,112,0.0,0.0,54,0.00,,,0.00,VWS V14.01,2013-02-22 23:36:00,
2013-02-22 17:37:00,31.1,16.2,30.09,East,90,0.0,0.0,54,0.00,,,0.00,VWS V14.01,2013-02-22 23:37:00,
2013-02-22 17:38:00,31.1,16.2,30.09,ESE,112,4.0,5.4,54,0.00,,,0.00,VWS V14.01,2013-02-22 23:38:00,
2013-02-22 17:39:00,35.1,17.1,30.06,ESE,112,5.4,6.3,48,0.00,,,0.00,VWS V14.01,2013-02-22 23:39:00,
2013-02-22 17:40:00,31.1,16.2,30.09,East,90,0.0,2.7,54,0.00,,,0.00,VWS V14.01,2013-02-22 23:40:00,
2013-02-22 17:41:00,31.1,16.2,30.09,ESE,112,2.7,3.6,54,0.00,,,0.00,VWS V14.01,2013-02-22 23:41:00,
2013-02-22 17:42:00,31.1,16.2,30.09,East,90,0.0,2.7,54,0.00,,,0.00,VWS V14.01,2013-02-22 23:42:00,
2013-02-22 17:43:00,31.1,16.2,30.09,East,90,2.7,3.1,54,0.00,,,0.00,VWS V14.01,2013-02-22 23:43:00,
2013-02-22 17:44:00,35.1,17.1,30.06,East,90,4.0,4.0,48,0.00,,,0.00,VWS V14.01,2013-02-22 23:44:00,
2013-02-22 17:45:00,30.9,16.0,30.09,East,90,0.0,0.0,54,0.00,,,0.00,VWS V14.01,2013-02-22 23:45:00,
2013-02-22 17:46:00,30.9,16.0,30.09,East,90,0.0,0.0,54,0.00,,,0.00,VWS V14.01,2013-02-22 23:46:00,
2013-02-22 17:47:00,30.9,16.0,30.09,East,90,0.0,0.0,54,0.00,,,0.00,VWS V14.01,2013-02-22 23:47:00,
2013-02-22 17:49:00,34.5,16.6,30.06,East,90,2.7,4.0,48,0.00,,,0.00,VWS V14.01,2013-02-22 23:49:00,
2013-02-22 17:50:00,30.7,16.3,30.09,East,90,3.1,4.0,54,0.00,,,0.00,VWS V14.01,2013-02-22 23:50:00,
2013-02-22 17:51:00,30.7,16.3,30.09,East,90,2.7,3.1,54,0.00,,,0.00,VWS V14.01,2013-02-22 23:51:00,
2013-02-22 17:52:00,30.6,16.1,30.09,East,90,0.0,4.0,54,0.00,,,0.00,VWS V14.01,2013-02-22 23:52:00,
2013-02-22 17:53:00,30.6,16.1,30.09,East,90,0.0,0.0,54,0.00,,,0.00,VWS V14.01,2013-02-22 23:53:00,
2013-02-22 17:54:00,34.3,16.9,30.09,East,90,4.9,6.7,48,0.00,,,0.00,VWS V14.01,2013-02-22 23:54:00,
2013-02-22 17:55:00,30.6,16.1,30.09,East,90,0.0,0.0,54,0.00,,,0.00,VWS V14.01,2013-02-22 23:55:00,
2013-02-22 17:56:00,30.6,16.1,30.09,East,90,0.0,0.0,54,0.00,,,0.00,VWS V14.01,2013-02-22 23:56:00,
2013-02-22 17:57:00,30.4,15.9,30.09,East,90,0.0,0.0,54,0.00,,,0.00,VWS V14.01,2013-02-22 23:57:00,
2013-02-22 17:58:00,30.4,15.9,30.09,East,90,0.0,0.0,54,0.00,,,0.00,VWS V14.01,2013-02-22 23:58:00,
2013-02-22 17:59:00,34.0,16.6,30.09,East,90,0.0,0.0,48,0.00,,,0.00,VWS V14.01,2013-02-22 23:59:00,
2013-02-22 18:00:00,30.2,16.2,30.09,East,90,0.0,2.7,56,0.00,,,0.00,VWS V14.01,2013-02-23 00:00:00,
2013-02-22 18:01:00,30.2,16.2,30.09,East,90,0.0,0.0,56,0.00,,,0.00,VWS V14.01,2013-02-23 00:01:00,
2013-02-22 18:02:00,30.2,16.2,30.09,East,90,0.0,0.0,56,0.00,,,0.00,VWS V14.01,2013-02-23 00:02:00,
2013-02-22 18:03:00,30.2,16.2,30.09,ESE,112,0.0,0.0,56,0.00,,,0.00,VWS V14.01,2013-02-23 00:03:00,
2013-02-22 18:04:00,33.6,16.8,30.09,ESE,112,0.0,0.0,50,0.00,,,0.00,VWS V14.01,2013-02-23 00:04:00,
2013-02-22 18:05:00,30.2,16.2,30.09,ESE,112,0.0,0.0,56,0.00,,,0.00,VWS V14.01,2013-02-23 00:05:00,
2013-02-22 18:06:00,30.0,16.0,30.09,East,90,0.0,0.0,56,0.00,,,0.00,VWS V14.01,2013-02-23 00:06:00,
2013-02-22 18:07:00,30.0,16.0,30.09,East,90,0.0,0.0,56,0.00,,,0.00,VWS V14.01,2013-02-23 00:07:00,
2013-02-22 18:08:00,30.0,16.0,30.09,East,90,0.0,0.0,56,0.00,,,0.00,VWS V14.01,2013-02-23 00:08:00,
2013-02-22 18:09:00,33.3,16.9,30.09,East,90,0.0,0.0,50,0.00,,,0.00,VWS V14.01,2013-02-23 00:09:00,
2013-02-22 18:10:00,29.8,15.9,30.09,East,90,0.0,0.0,56,0.00,,,0.00,VWS V14.01,2013-02-23 00:10:00,
2013-02-22 18:11:00,29.8,15.9,30.09,East,90,0.0,0.0,56,0.00,,,0.00,VWS V14.01,2013-02-23 00:11:00,
2013-02-22 18:12:00,29.7,15.7,30.09,East,90,0.0,0.0,56,0.00,,,0.00,VWS V14.01,2013-02-23 00:12:00,
2013-02-22 18:13:00,29.7,15.7,30.09,East,90,0.0,0.0,56,0.00,,,0.00,VWS V14.01,2013-02-23 00:13:00,
2013-02-22 18:14:00,32.9,17.0,30.09,ESE,112,0.0,0.0,52,0.00,,,0.00,VWS V14.01,2013-02-23 00:14:00,
2013-02-22 18:15:00,29.7,15.7,30.09,East,90,0.0,0.0,56,0.00,,,0.00,VWS V14.01,2013-02-23 00:15:00,
2013-02-22 18:16:00,29.7,15.7,30.09,East,90,0.0,0.0,56,0.00,,,0.00,VWS V14.01,2013-02-23 00:16:00,
2013-02-22 18:17:00,29.5,15.5,30.09,East,90,0.0,0.0,56,0.00,,,0.00,VWS V14.01,2013-02-23 00:17:00,
2013-02-22 18:18:00,29.5,15.5,30.09,East,90,0.0,0.0,56,0.00,,,0.00,VWS V14.01,2013-02-23 00:18:00,
2013-02-22 18:19:00,32.5,17.1,30.09,East,90,0.0,2.2,52,0.00,,,0.00,VWS V14.01,2013-02-23 00:19:00,
2013-02-22 18:20:00,29.5,15.5,30.09,East,90,0.0,0.0,56,0.00,,,0.00,VWS V14.01,2013-02-23 00:20:00,
2013-02-22 18:21:00,29.5,15.9,30.09,East,90,0.0,0.0,56,0.00,,,0.00,VWS V14.01,2013-02-23 00:21:00,
2013-02-22 18:22:00,29.5,15.9,30.09,East,90,0.0,0.0,56,0.00,,,0.00,VWS V14.01,2013-02-23 00:22:00,
2013-02-22 18:23:00,29.3,15.8,30.09,East,90,0.0,0.0,56,0.00,,,0.00,VWS V14.01,2013-02-23 00:23:00,
2013-02-22 18:24:00,32.2,16.8,30.09,ESE,112,0.0,0.0,52,0.00,,,0.00,VWS V14.01,2013-02-23 00:24:00,
2013-02-22 18:25:00,29.3,15.8,30.09,East,90,0.0,0.0,56,0.00,,,0.00,VWS V14.01,2013-02-23 00:25:00,
2013-02-22 18:26:00,29.3,15.8,30.09,East,90,0.0,0.0,56,0.00,,,0.00,VWS V14.01,2013-02-23 00:26:00,
2013-02-22 18:27:00,29.3,15.8,30.09,East,90,0.0,0.0,56,0.00,,,0.00,VWS V14.01,2013-02-23 00:27:00,
2013-02-22 18:28:00,29.1,15.6,30.09,East,90,0.0,0.0,56,0.00,,,0.00,VWS V14.01,2013-02-23 00:28:00,
2013-02-22 18:29:00,31.8,16.4,30.09,East,90,0.0,0.0,52,0.00,,,0.00,VWS V14.01,2013-02-23 00:29:00,
2013-02-22 18:30:00,28.9,15.4,30.09,East,90,0.0,0.0,56,0.00,,,0.00,VWS V14.01,2013-02-23 00:30:00,
2013-02-22 18:31:00,28.9,15.4,30.09,East,90,0.0,0.0,56,0.00,,,0.00,VWS V14.01,2013-02-23 00:31:00,
2013-02-22 18:32:00,28.8,15.3,30.09,East,90,0.0,0.0,56,0.00,,,0.00,VWS V14.01,2013-02-23 00:32:00,
2013-02-22 18:33:00,28.8,15.7,30.09,East,90,0.0,0.0,58,0.00,,,0.00,VWS V14.01,2013-02-23 00:33:00,
2013-02-22 18:34:00,31.3,16.4,30.09,ESE,112,0.0,0.0,54,0.00,,,0.00,VWS V14.01,2013-02-23 00:34:00,
2013-02-22 18:35:00,28.6,15.5,30.09,East,90,0.0,0.0,58,0.00,,,0.00,VWS V14.01,2013-02-23 00:35:00,
2013-02-22 18:36:00,28.6,15.5,30.09,East,90,0.0,0.0,58,0.00,,,0.00,VWS V14.01,2013-02-23 00:36:00,
2013-02-22 18:37:00,28.6,15.5,30.09,East,90,0.0,0.0,58,0.00,,,0.00,VWS V14.01,2013-02-23 00:37:00,
2013-02-22 18:38:00,28.6,15.5,30.09,East,90,0.0,0.0,58,0.00,,,0.00,VWS V14.01,2013-02-23 00:38:00,
2013-02-22 18:39:00,31.1,16.2,30.09,ESE,112,0.0,2.7,54,0.00,,,0.00,VWS V14.01,2013-02-23 00:39:00,
2013-02-22 18:40:00,28.6,15.9,30.09,East,90,0.0,0.0,58,0.00,,,0.00,VWS V14.01,2013-02-23 00:40:00,
2013-02-22 18:41:00,28.6,15.9,30.09,East,90,0.0,0.0,58,0.00,,,0.00,VWS V14.01,2013-02-23 00:41:00,
2013-02-22 18:42:00,28.6,15.9,30.09,East,90,0.0,0.0,58,0.00,,,0.00,VWS V14.01,2013-02-23 00:42:00,
2013-02-22 18:43:00,28.4,16.1,30.09,East,90,0.0,0.0,60,0.00,,,0.00,VWS V14.01,2013-02-23 00:43:00,
2013-02-22 18:44:00,30.9,16.0,30.09,East,90,0.0,0.0,54,0.00,,,0.00,VWS V14.01,2013-02-23 00:44:00,
2013-02-22 18:45:00,28.6,16.3,30.09,ESE,112,0.0,4.9,60,0.00,,,0.00,VWS V14.01,2013-02-23 00:45:00,
2013-02-22 18:46:00,28.6,16.3,30.09,East,90,2.2,3.1,60,0.00,,,0.00,VWS V14.01,2013-02-23 00:46:00,
2013-02-22 18:47:00,28.6,16.3,30.09,East,90,0.0,2.2,60,0.00,,,0.00,VWS V14.01,2013-02-23 00:47:00,
2013-02-22 18:48:00,28.6,16.3,30.09,East,90,0.0,0.0,60,0.00,,,0.00,VWS V14.01,2013-02-23 00:48:00,
2013-02-22 18:49:00,30.7,16.3,30.09,East,90,0.0,0.0,54,0.00,,,0.00,VWS V14.01,2013-02-23 00:49:00,
2013-02-22 18:50:00,28.6,16.3,30.09,East,90,0.0,0.0,60,0.00,,,0.00,VWS V14.01,2013-02-23 00:50:00,
2013-02-22 18:51:00,28.6,16.3,30.12,East,90,0.0,0.0,60,0.00,,,0.00,VWS V14.01,2013-02-23 00:51:00,
2013-02-22 18:52:00,28.4,16.5,30.12,East,90,0.0,0.0,60,0.00,,,0.00,VWS V14.01,2013-02-23 00:52:00,
2013-02-22 18:53:00,28.4,16.5,30.12,East,90,0.0,0.0,60,0.00,,,0.00,VWS V14.01,2013-02-23 00:53:00,
2013-02-22 18:54:00,30.6,16.1,30.09,East,90,3.6,3.6,54,0.00,,,0.00,VWS V14.01,2013-02-23 00:54:00,
2013-02-22 18:55:00,28.4,16.5,30.12,East,90,0.0,0.0,60,0.00,,,0.00,VWS V14.01,2013-02-23 00:55:00,
2013-02-22 18:56:00,28.2,16.3,30.12,East,90,0.0,0.0,60,0.00,,,0.00,VWS V14.01,2013-02-23 00:56:00,
2013-02-22 18:57:00,28.2,16.3,30.12,East,90,0.0,0.0,60,0.00,,,0.00,VWS V14.01,2013-02-23 00:57:00,
2013-02-22 18:58:00,28.2,16.3,30.12,East,90,0.0,0.0,60,0.00,,,0.00,VWS V14.01,2013-02-23 00:58:00,
2013-02-22 18:59:00,30.2,16.2,30.09,East,90,2.7,2.7,56,0.00,,,0.00,VWS V14.01,2013-02-23 00:59:00,
2013-02-22 19:00:00,28.2,16.7,30.12,ESE,112,0.0,0.0,62,0.00,,,0.00,VWS V14.01,2013-02-23 01:00:00,
2013-02-22 19:01:00,28.2,16.7,30.12,ESE,112,0.0,0.0,62,0.00,,,0.00,VWS V14.01,2013-02-23 01:01:00,
2013-02-22 19:02:00,28.2,16.7,30.12,ESE,112,0.0,0.0,62,0.00,,,0.00,VWS V14.01,2013-02-23 01:02:00,
2013-02-22 19:03:00,28.0,16.5,30.12,ESE,112,0.0,0.0,62,0.00,,,0.00,VWS V14.01,2013-02-23 01:03:00,
2013-02-22 19:04:00,30.2,16.2,30.09,ESE,112,0.0,0.0,56,0.00,,,0.00,VWS V14.01,2013-02-23 01:04:00,
2013-02-22 19:05:00,28.0,16.5,30.12,ESE,112,0.0,0.0,62,0.00,,,0.00,VWS V14.01,2013-02-23 01:05:00,
2013-02-22 19:06:00,28.0,16.5,30.09,ESE,112,0.0,0.0,62,0.00,,,0.00,VWS V14.01,2013-02-23 01:06:00,
2013-02-22 19:07:00,28.0,16.5,30.09,ESE,112,0.0,0.0,62,0.00,,,0.00,VWS V14.01,2013-02-23 01:07:00,
2013-02-22 19:08:00,28.0,16.5,30.09,ESE,112,0.0,0.0,62,0.00,,,0.00,VWS V14.01,2013-02-23 01:08:00,
2013-02-22 19:09:00,29.8,15.9,30.09,East,90,0.0,0.0,56,0.00,,,0.00,VWS V14.01,2013-02-23 01:09:00,
2013-02-22 19:10:00,28.2,17.1,30.09,East,90,0.0,0.0,62,0.00,,,0.00,VWS V14.01,2013-02-23 01:10:00,
2013-02-22 19:11:00,28.2,17.1,30.09,East,90,0.0,0.0,62,0.00,,,0.00,VWS V14.01,2013-02-23 01:11:00,
2013-02-22 19:12:00,28.0,16.9,30.09,East,90,0.0,0.0,62,0.00,,,0.00,VWS V14.01,2013-02-23 01:12:00,
2013-02-22 19:13:00,28.2,17.1,30.09,ESE,112,0.0,0.0,62,0.00,,,0.00,VWS V14.01,2013-02-23 01:13:00,
2013-02-22 19:14:00,29.7,15.7,30.09,East,90,0.0,0.0,56,0.00,,,0.00,VWS V14.01,2013-02-23 01:14:00,
2013-02-22 19:15:00,28.2,17.1,30.09,ESE,112,0.0,0.0,62,0.00,,,0.00,VWS V14.01,2013-02-23 01:15:00,
2013-02-22 19:16:00,28.2,17.1,30.09,ESE,112,0.0,0.0,62,0.00,,,0.00,VWS V14.01,2013-02-23 01:16:00,
2013-02-22 19:17:00,28.2,17.1,30.09,ESE,112,0.0,0.0,62,0.00,,,0.00,VWS V14.01,2013-02-23 01:17:00,
2013-02-22 19:18:00,28.2,17.4,30.09,ESE,112,0.0,0.0,64,0.00,,,0.00,VWS V14.01,2013-02-23 01:18:00,
2013-02-22 19:19:00,29.5,15.5,30.09,East,90,0.0,0.0,56,0.00,,,0.00,VWS V14.01,2013-02-23 01:19:00,
2013-02-22 19:20:00,28.2,17.4,30.09,ESE,112,0.0,0.0,64,0.00,,,0.00,VWS V14.01,2013-02-23 01:20:00,
2013-02-22 19:21:00,28.2,17.4,30.09,East,90,0.0,0.0,64,0.00,,,0.00,VWS V14.01,2013-02-23 01:21:00,
2013-02-22 19:22:00,28.2,17.4,30.09,East,90,0.0,0.0,64,0.00,,,0.00,VWS V14.01,2013-02-23 01:22:00,
2013-02-22 19:23:00,28.4,17.6,30.09,ESE,112,0.0,0.0,64,0.00,,,0.00,VWS V14.01,2013-02-23 01:23:00,
2013-02-22 19:24:00,29.3,15.8,30.09,East,90,0.0,0.0,56,0.00,,,0.00,VWS V14.01,2013-02-23 01:24:00,
2013-02-22 19:25:00,28.4,17.6,30.09,East,90,0.0,0.0,64,0.00,,,0.00,VWS V14.01,2013-02-23 01:25:00,
2013-02-22 19:26:00,28.4,17.6,30.09,ESE,112,2.7,2.7,64,0.00,,,0.00,VWS V14.01,2013-02-23 01:26:00,
2013-02-22 19:27:00,28.4,17.6,30.09,East,90,0.0,2.7,64,0.00,,,0.00,VWS V14.01,2013-02-23 01:27:00,
2013-02-22 19:28:00,28.4,17.6,30.09,East,90,0.0,0.0,64,0.00,,,0.00,VWS V14.01,2013-02-23 01:28:00,
2013-02-22 19:29:00,28.9,15.4,30.09,East,90,0.0,0.0,56,0.00,,,0.00,VWS V14.01,2013-02-23 01:29:00,
2013-02-22 19:30:00,28.6,17.8,30.09,East,90,0.0,2.7,64,0.00,,,0.00,VWS V14.01,2013-02-23 01:30:00,
2013-02-22 19:31:00,28.6,17.8,30.09,East,90,0.0,0.0,64,0.00,,,0.00,VWS V14.01,2013-02-23 01:31:00,
2013-02-22 19:32:00,28.6,17.8,30.09,East,90,0.0,0.0,64,0.00,,,0.00,VWS V14.01,2013-02-23 01:32:00,
2013-02-22 19:33:00,28.6,17.8,30.09,East,90,0.0,0.0,64,0.00,,,0.00,VWS V14.01,2013-02-23 01:33:00,
2013-02-22 19:34:00,28.6,15.5,30.09,East,90,0.0,0.0,58,0.00,,,0.00,VWS V14.01,2013-02-23 01:34:00,
2013-02-22 19:35:00,28.6,18.1,30.09,East,90,0.0,0.0,64,0.00,,,0.00,VWS V14.01,2013-02-23 01:35:00,
2013-02-22 19:36:00,28.6,18.1,30.12,East,90,0.0,0.0,64,0.00,,,0.00,VWS V14.01,2013-02-23 01:36:00,
2013-02-22 19:37:00,28.6,18.1,30.12,SE,135,2.7,2.7,64,0.00,,,0.00,VWS V14.01,2013-02-23 01:37:00,
2013-02-22 19:38:00,28.6,18.1,30.12,East,90,2.7,2.7,64,0.00,,,0.00,VWS V14.01,2013-02-23 01:38:00,
2013-02-22 19:39:00,28.6,15.9,30.09,East,90,0.0,0.0,58,0.00,,,0.00,VWS V14.01,2013-02-23 01:39:00,
2013-02-22 19:41:00,28.6,18.1,30.12,East,90,0.0,0.0,64,0.00,,,0.00,VWS V14.01,2013-02-23 01:41:00,
2013-02-22 19:42:00,28.6,18.1,30.12,East,90,0.0,0.0,64,0.00,,,0.00,VWS V14.01,2013-02-23 01:42:00,
2013-02-22 19:43:00,28.6,18.1,30.12,East,90,0.0,0.0,64,0.00,,,0.00,VWS V14.01,2013-02-23 01:43:00,
2013-02-22 19:44:00,28.4,16.1,30.09,ESE,112,3.6,4.9,60,0.00,,,0.00,VWS V14.01,2013-02-23 01:44:00,
2013-02-22 19:45:00,28.8,18.3,30.12,SE,135,0.0,3.1,64,0.00,,,0.00,VWS V14.01,2013-02-23 01:45:00,
2013-02-22 19:46:00,28.8,18.3,30.12,East,90,0.0,0.0,64,0.00,,,0.00,VWS V14.01,2013-02-23 01:46:00,
2013-02-22 19:47:00,28.6,18.1,30.12,SE,135,2.7,2.7,64,0.00,,,0.00,VWS V14.01,2013-02-23 01:47:00,
2013-02-22 19:48:00,28.6,18.1,30.12,East,90,0.0,2.7,64,0.00,,,0.00,VWS V14.01,2013-02-23 01:48:00,
2013-02-22 19:49:00,28.6,16.3,30.09,East,90,0.0,0.0,60,0.00,,,0.00,VWS V14.01,2013-02-23 01:49:00,
2013-02-22 19:51:00,28.6,18.1,30.12,SE,135,4.9,4.9,64,0.00,,,0.00,VWS V14.01,2013-02-23 01:51:00,
2013-02-22 19:52:00,28.8,18.3,30.12,East,90,3.1,4.9,64,0.00,,,0.00,VWS V14.01,2013-02-23 01:52:00,
2013-02-22 19:53:00,28.8,18.3,30.12,East,90,2.2,3.6,64,0.00,,,0.00,VWS V14.01,2013-02-23 01:53:00,
2013-02-22 19:54:00,28.4,16.5,30.12,East,90,0.0,0.0,60,0.00,,,0.00,VWS V14.01,2013-02-23 01:54:00,
2013-02-22 19:55:00,28.8,18.3,30.12,East,90,0.0,0.0,64,0.00,,,0.00,VWS V14.01,2013-02-23 01:55:00,
2013-02-22 19:56:00,28.8,18.3,30.12,ESE,112,0.0,0.0,64,0.00,,,0.00,VWS V14.01,2013-02-23 01:56:00,
2013-02-22 19:57:00,28.8,18.3,30.12,East,90,0.0,0.0,64,0.00,,,0.00,VWS V14.01,2013-02-23 01:57:00,
2013-02-22 19:58:00,28.8,18.3,30.12,East,90,2.7,2.7,64,0.00,,,0.00,VWS V14.01,2013-02-23 01:58:00,
2013-02-22 19:59:00,28.2,16.7,30.12,ESE,112,0.0,0.0,62,0.00,,,0.00,VWS V14.01,2013-02-23 01:59:00,
2013-02-22 20:00:00,28.8,18.3,30.12,East,90,2.7,2.7,64,0.00,,,0.00,VWS V14.01,2013-02-23 02:00:00,
2013-02-22 20:01:00,28.8,18.3,30.12,East,90,3.6,3.6,64,0.00,,,0.00,VWS V14.01,2013-02-23 02:01:00,
2013-02-22 20:02:00,28.8,18.3,30.12,SE,135,2.7,3.6,64,0.00,,,0.00,VWS V14.01,2013-02-23 02:02:00,
2013-02-22 20:03:00,28.8,18.3,30.12,East,90,0.0,2.7,64,0.00,,,0.00,VWS V14.01,2013-02-23 02:03:00,
2013-02-22 20:04:00,28.0,16.5,30.12,ESE,112,0.0,0.0,62,0.00,,,0.00,VWS V14.01,2013-02-23 02:04:00,
2013-02-22 20:05:00,28.8,18.3,30.12,East,90,5.8,5.8,64,0.00,,,0.00,VWS V14.01,2013-02-23 02:05:00,
2013-02-22 20:06:00,28.8,18.3,30.12,ESE,112,3.1,5.8,64,0.00,,,0.00,VWS V14.01,2013-02-23 02:06:00,
2013-02-22 20:07:00,28.8,18.3,30.12,ESE,112,3.1,3.1,64,0.00,,,0.00,VWS V14.01,2013-02-23 02:07:00,
2013-02-22 20:08:00,28.8,18.7,30.12,SE,135,0.0,3.1,66,0.00,,,0.00,VWS V14.01,2013-02-23 02:08:00,
2013-02-22 20:09:00,28.2,17.1,30.09,ESE,112,0.0,0.0,62,0.00,,,0.00,VWS V14.01,2013-02-23 02:09:00,
2013-02-22 20:10:00,28.8,18.7,30.12,SE,135,2.7,2.7,66,0.00,,,0.00,VWS V14.01,2013-02-23 02:10:00,
2013-02-22 20:11:00,28.8,18.7,30.12,SE,135,2.2,4.9,66,0.00,,,0.00,VWS V14.01,2013-02-23 02:11:00,
2013-02-22 20:12:00,28.8,18.7,30.12,SE,135,0.0,2.2,66,0.00,,,0.00,VWS V14.01,2013-02-23 02:12:00,
2013-02-22 20:13:00,28.8,18.7,30.12,SE,135,2.7,3.1,66,0.00,,,0.00,VWS V14.01,2013-02-23 02:13:00,
2013-02-22 20:14:00,28.2,17.1,30.09,ESE,112,0.0,0.0,62,0.00,,,0.00,VWS V14.01,2013-02-23 02:14:00,
2013-02-22 20:15:00,28.8,18.7,30.12,SE,135,0.0,0.0,66,0.00,,,0.00,VWS V14.01,2013-02-23 02:15:00,
2013-02-22 20:16:00,28.8,18.7,30.12,SE,135,3.1,4.9,66,0.00,,,0.00,VWS V14.01,2013-02-23 02:16:00,
2013-02-22 20:17:00,28.8,18.7,30.12,SE,135,3.1,4.0,66,0.00,,,0.00,VWS V14.01,2013-02-23 02:17:00,
2013-02-22 20:18:00,28.8,18.7,30.12,SE,135,0.0,3.1,66,0.00,,,0.00,VWS V14.01,2013-02-23 02:18:00,
2013-02-22 20:19:00,28.2,17.4,30.09,East,90,0.0,0.0,64,0.00,,,0.00,VWS V14.01,2013-02-23 02:19:00,
2013-02-22 20:20:00,28.8,18.7,30.12,SE,135,0.0,0.0,66,0.00,,,0.00,VWS V14.01,2013-02-23 02:20:00,
2013-02-22 20:21:00,28.8,18.7,30.12,SE,135,4.0,4.0,66,0.00,,,0.00,VWS V14.01,2013-02-23 02:21:00,
2013-02-22 20:22:00,28.8,18.7,30.12,SE,135,2.7,4.9,66,0.00,,,0.00,VWS V14.01,2013-02-23 02:22:00,
2013-02-22 20:23:00,28.8,18.7,30.12,SE,135,0.0,2.7,66,0.00,,,0.00,VWS V14.01,2013-02-23 02:23:00,
2013-02-22 20:24:00,28.4,17.6,30.09,ESE,112,0.0,0.0,64,0.00,,,0.00,VWS V14.01,2013-02-23 02:24:00,
2013-02-22 20:25:00,28.8,18.7,30.12,ESE,112,0.0,3.1,66,0.00,,,0.00,VWS V14.01,2013-02-23 02:25:00,
2013-02-22 20:26:00,28.6,18.5,30.12,ESE,112,0.0,0.0,66,0.00,,,0.00,VWS V14.01,2013-02-23 02:26:00,
2013-02-22 20:27:00,28.6,18.5,30.12,ESE,112,0.0,0.0,66,0.00,,,0.00,VWS V14.01,2013-02-23 02:27:00,
2013-02-22 20:28:00,28.6,18.5,30.12,East,90,0.0,0.0,66,0.00,,,0.00,VWS V14.01,2013-02-23 02:28:00,
2013-02-22 20:29:00,28.4,17.6,30.09,East,90,2.2,2.2,64,0.00,,,0.00,VWS V14.01,2013-02-23 02:29:00,
2013-02-22 20:30:00,28.6,18.5,30.12,East,90,0.0,0.0,66,0.00,,,0.00,VWS V14.01,2013-02-23 02:30:00,
2013-02-22 20:31:00,28.4,18.7,30.12,East,90,0.0,0.0,66,0.00,,,0.00,VWS V14.01,2013-02-23 02:31:00,
2013-02-22 20:32:00,28.4,18.7,30.12,East,90,0.0,0.0,66,0.00,,,0.00,VWS V14.01,2013-02-23 02:32:00,
2013-02-22 20:33:00,28.4,18.7,30.12,East,90,0.0,0.0,66,0.00,,,0.00,VWS V14.01,2013-02-23 02:33:00,
2013-02-22 20:34:00,28.6,18.1,30.09,East,90,0.0,0.0,64,0.00,,,0.00,VWS V14.01,2013-02-23 02:34:00,
2013-02-22 20:35:00,28.4,19.0,30.12,SE,135,0.0,0.0,68,0.00,,,0.00,VWS V14.01,2013-02-23 02:35:00,
2013-02-22 20:36:00,28.4,19.0,30.12,SE,135,0.0,0.0,68,0.00,,,0.00,VWS V14.01,2013-02-23 02:36:00,
2013-02-22 20:37:00,28.4,19.0,30.12,ESE,112,0.0,0.0,68,0.00,,,0.00,VWS V14.01,2013-02-23 02:37:00,
2013-02-22 20:38:00,28.2,18.9,30.12,ESE,112,0.0,0.0,68,0.00,,,0.00,VWS V14.01,2013-02-23 02:38:00,
2013-02-22 20:39:00,28.6,18.1,30.12,East,90,0.0,3.6,64,0.00,,,0.00,VWS V14.01,2013-02-23 02:39:00,
2013-02-22 20:40:00,28.2,18.9,30.12,East,90,0.0,0.0,68,0.00,,,0.00,VWS V14.01,2013-02-23 02:40:00,
2013-02-22 20:41:00,28.2,18.9,30.12,East,90,0.0,0.0,68,0.00,,,0.00,VWS V14.01,2013-02-23 02:41:00,
2013-02-22 20:42:00,28.2,18.9,30.12,ESE,112,0.0,0.0,68,0.00,,,0.00,VWS V14.01,2013-02-23 02:42:00,
2013-02-22 20:43:00,28.0,18.7,30.12,ESE,112,0.0,0.0,68,0.00,,,0.00,VWS V14.01,2013-02-23 02:43:00,
2013-02-22 20:44:00,28.6,18.1,30.12,SE,135,0.0,0.0,64,0.00,,,0.00,VWS V14.01,2013-02-23 02:44:00,
2013-02-22 20:45:00,28.2,19.2,30.12,SE,135,0.0,0.0,68,0.00,,,0.00,VWS V14.01,2013-02-23 02:45:00,
2013-02-22 20:46:00,28.0,19.0,30.12,SE,135,0.0,0.0,68,0.00,,,0.00,VWS V14.01,2013-02-23 02:46:00,
2013-02-22 20:47:00,28.0,19.0,30.12,ESE,112,0.0,0.0,68,0.00,,,0.00,VWS V14.01,2013-02-23 02:47:00,
2013-02-22 20:48:00,28.0,19.0,30.12,ESE,112,0.0,0.0,68,0.00,,,0.00,VWS V14.01,2013-02-23 02:48:00,
2013-02-22 20:49:00,28.6,18.1,30.12,East,90,3.1,3.1,64,0.00,,,0.00,VWS V14.01,2013-02-23 02:49:00,
2013-02-22 20:50:00,27.9,18.9,30.12,ESE,112,0.0,0.0,68,0.00,,,0.00,VWS V14.01,2013-02-23 02:50:00,
2013-02-22 20:51:00,27.9,18.9,30.12,ESE,112,0.0,0.0,68,0.00,,,0.00,VWS V14.01,2013-02-23 02:51:00,
2013-02-22 20:52:00,27.9,18.9,30.12,ESE,112,0.0,0.0,68,0.00,,,0.00,VWS V14.01,2013-02-23 02:52:00,
2013-02-22 20:53:00,27.9,19.2,30.12,East,90,0.0,2.7,70,0.00,,,0.00,VWS V14.01,2013-02-23 02:53:00,
2013-02-22 20:54:00,28.8,18.3,30.12,East,90,0.0,0.0,64,0.00,,,0.00,VWS V14.01,2013-02-23 02:54:00,
2013-02-22 20:55:00,27.9,19.2,30.12,East,90,0.0,0.0,70,0.00,,,0.00,VWS V14.01,2013-02-23 02:55:00,
2013-02-22 20:56:00,27.9,19.2,30.12,East,90,0.0,0.0,70,0.00,,,0.00,VWS V14.01,2013-02-23 02:56:00,
2013-02-22 20:57:00,27.9,19.2,30.12,East,90,0.0,0.0,70,0.00,,,0.00,VWS V14.01,2013-02-23 02:57:00,
2013-02-22 20:58:00,27.9,19.2,30.12,East,90,0.0,0.0,70,0.00,,,0.00,VWS V14.01,2013-02-23 02:58:00,
2013-02-22 20:59:00,28.8,18.3,30.12,East,90,0.0,0.0,64,0.00,,,0.00,VWS V14.01,2013-02-23 02:59:00,
2013-02-22 21:00:00,27.9,19.2,30.12,East,90,3.6,4.9,70,0.00,,,0.00,VWS V14.01,2013-02-23 03:00:00,
2013-02-22 21:01:00,27.9,19.5,30.12,East,90,0.0,3.6,70,0.00,,,0.00,VWS V14.01,2013-02-23 03:01:00,
2013-02-22 21:02:00,27.7,19.4,30.12,East,90,0.0,0.0,70,0.00,,,0.00,VWS V14.01,2013-02-23 03:02:00,
2013-02-22 21:03:00,27.7,19.4,30.12,East,90,0.0,0.0,70,0.00,,,0.00,VWS V14.01,2013-02-23 03:03:00,
2013-02-22 21:04:00,28.8,18.3,30.12,East,90,0.0,0.0,64,0.00,,,0.00,VWS V14.01,2013-02-23 03:04:00,
2013-02-22 21:05:00,27.7,19.4,30.12,East,90,0.0,0.0,70,0.00,,,0.00,VWS V14.01,2013-02-23 03:05:00,
2013-02-22 21:06:00,27.7,19.4,30.15,East,90,0.0,0.0,70,0.00,,,0.00,VWS V14.01,2013-02-23 03:06:00,
2013-02-22 21:07:00,27.7,19.4,30.15,East,90,2.2,2.2,70,0.00,,,0.00,VWS V14.01,2013-02-23 03:07:00,
2013-02-22 21:08:00,27.5,19.2,30.15,East,90,0.0,2.2,70,0.00,,,0.00,VWS V14.01,2013-02-23 03:08:00,
2013-02-22 21:09:00,28.8,18.7,30.12,SE,135,0.0,0.0,66,0.00,,,0.00,VWS V14.01,2013-02-23 03:09:00,
2013-02-22 21:10:00,27.5,19.2,30.15,East,90,0.0,0.0,70,0.00,,,0.00,VWS V14.01,2013-02-23 03:10:00,
2013-02-22 21:11:00,27.5,19.2,30.15,East,90,0.0,0.0,70,0.00,,,0.00,VWS V14.01,2013-02-23 03:11:00,
2013-02-22 21:12:00,27.5,19.2,30.15,East,90,0.0,0.0,70,0.00,,,0.00,VWS V14.01,2013-02-23 03:12:00,
2013-02-22 21:13:00,27.5,19.5,30.15,East,90,0.0,0.0,72,0.00,,,0.00,VWS V14.01,2013-02-23 03:13:00,
2013-02-22 21:14:00,28.8,18.7,30.12,SE,135,0.0,0.0,66,0.00,,,0.00,VWS V14.01,2013-02-23 03:14:00,
2013-02-22 21:15:00,27.3,19.3,30.15,East,90,0.0,4.0,72,0.00,,,0.00,VWS V14.01,2013-02-23 03:15:00,
2013-02-22 21:16:00,27.3,19.3,30.15,East,90,2.2,4.0,72,0.00,,,0.00,VWS V14.01,2013-02-23 03:16:00,
2013-02-22 21:17:00,27.3,19.7,30.15,East,90,0.0,2.2,72,0.00,,,0.00,VWS V14.01,2013-02-23 03:17:00,
2013-02-22 21:18:00,27.3,19.7,30.15,East,90,0.0,0.0,72,0.00,,,0.00,VWS V14.01,2013-02-23 03:18:00,
2013-02-22 21:19:00,28.8,18.7,30.12,SE,135,0.0,0.0,66,0.00,,,0.00,VWS V14.01,2013-02-23 03:19:00,
2013-02-22 21:20:00,27.1,19.5,30.15,East,90,0.0,0.0,72,0.00,,,0.00,VWS V14.01,2013-02-23 03:20:00,
2013-02-22 21:21:00,27.1,19.5,30.12,East,90,0.0,0.0,72,0.00,,,0.00,VWS V14.01,2013-02-23 03:21:00,
2013-02-22 21:22:00,27.1,19.5,30.12,East,90,0.0,0.0,72,0.00,,,0.00,VWS V14.01,2013-02-23 03:22:00,
2013-02-22 21:24:00,28.8,18.7,30.12,East,90,3.1,3.1,66,0.00,,,0.00,VWS V14.01,2013-02-23 03:24:00,
2013-02-22 21:25:00,27.1,19.5,30.12,East,90,0.0,0.0,72,0.00,,,0.00,VWS V14.01,2013-02-23 03:25:00,
2013-02-22 21:26:00,27.1,19.5,30.12,East,90,0.0,0.0,72,0.00,,,0.00,VWS V14.01,2013-02-23 03:26:00,
2013-02-22 21:27:00,27.0,19.3,30.12,East,90,0.0,0.0,72,0.00,,,0.00,VWS V14.01,2013-02-23 03:27:00,
2013-02-22 21:28:00,27.0,19.3,30.12,East,90,4.9,4.9,72,0.00,,,0.00,VWS V14.01,2013-02-23 03:28:00,
2013-02-22 21:29:00,28.6,18.5,30.12,East,90,0.0,0.0,66,0.00,,,0.00,VWS V14.01,2013-02-23 03:29:00,
2013-02-22 21:30:00,27.1,19.8,30.12,East,90,4.0,5.4,74,0.00,,,0.00,VWS V14.01,2013-02-23 03:30:00,
2013-02-22 21:31:00,27.0,19.6,30.12,East,90,4.0,4.0,74,0.00,,,0.00,VWS V14.01,2013-02-23 03:31:00,
2013-02-22 21:32:00,27.0,19.6,30.12,East,90,4.0,4.0,74,0.00,,,0.00,VWS V14.01,2013-02-23 03:32:00,
2013-02-22 21:33:00,27.0,19.6,30.12,East,90,0.0,4.0,74,0.00,,,0.00,VWS V14.01,2013-02-23 03:33:00,
2013-02-22 21:34:00,28.4,19.0,30.12,East,90,0.0,0.0,68,0.00,,,0.00,VWS V14.01,2013-02-23 03:34:00,
2013-02-22 21:35:00,27.0,19.6,30.12,East,90,0.0,0.0,74,0.00,,,0.00,VWS V14.01,2013-02-23 03:35:00,
2013-02-22 21:36:00,27.0,20.0,30.15,East,90,0.0,0.0,74,0.00,,,0.00,VWS V14.01,2013-02-23 03:36:00,
2013-02-22 21:38:00,27.0,20.0,30.15,East,90,0.0,0.0,74,0.00,,,0.00,VWS V14.01,2013-02-23 03:38:00,
2013-02-22 21:39:00,28.2,18.9,30.12,East,90,0.0,0.0,68,0.00,,,0.00,VWS V14.01,2013-02-23 03:39:00,
2013-02-22 21:40:00,26.8,19.8,30.15,East,90,0.0,3.1,74,0.00,,,0.00,VWS V14.01,2013-02-23 03:40:00,
2013-02-22 21:41:00,26.8,19.8,30.15,East,90,3.1,3.1,74,0.00,,,0.00,VWS V14.01,2013-02-23 03:41:00,
2013-02-22 21:42:00,26.8,19.8,30.15,East,90,3.1,3.6,74,0.00,,,0.00,VWS V14.01,2013-02-23 03:42:00,
2013-02-22 21:43:00,26.8,20.1,30.15,East,90,4.0,4.0,76,0.00,,,0.00,VWS V14.01,2013-02-23 03:43:00,
2013-02-22 21:44:00,28.2,19.2,30.12,SE,135,0.0,0.0,68,0.00,,,0.00,VWS V14.01,2013-02-23 03:44:00,
2013-02-22 21:45:00,26.8,20.1,30.15,East,90,4.0,4.0,76,0.00,,,0.00,VWS V14.01,2013-02-23 03:45:00,
2013-02-22 21:46:00,26.6,19.9,30.15,East,90,4.0,4.0,76,0.00,,,0.00,VWS V14.01,2013-02-23 03:46:00,
2013-02-22 21:47:00,26.6,19.9,30.15,East,90,4.0,4.0,76,0.00,,,0.00,VWS V14.01,2013-02-23 03:47:00,
2013-02-22 21:48:00,26.6,20.2,30.15,East,90,3.6,4.0,76,0.00,,,0.00,VWS V14.01,2013-02-23 03:48:00,
2013-02-22 21:49:00,28.0,19.0,30.12,ESE,112,0.0,0.0,68,0.00,,,0.00,VWS V14.01,2013-02-23 03:49:00,
2013-02-22 21:50:00,26.8,20.1,30.15,East,90,4.0,4.0,76,0.00,,,0.00,VWS V14.01,2013-02-23 03:50:00,
2013-02-22 21:51:00,26.8,20.4,30.15,East,90,4.0,4.0,76,0.00,,,0.00,VWS V14.01,2013-02-23 03:51:00,
2013-02-22 21:52:00,26.6,20.2,30.15,East,90,4.0,4.0,76,0.00,,,0.00,VWS V14.01,2013-02-23 03:52:00,
2013-02-22 21:53:00,26.8,20.4,30.15,East,90,4.0,4.0,76,0.00,,,0.00,VWS V14.01,2013-02-23 03:53:00,
2013-02-22 21:54:00,27.9,19.2,30.12,East,90,0.0,0.0,70,0.00,,,0.00,VWS V14.01,2013-02-23 03:54:00,
2013-02-22 21:55:00,26.8,20.4,30.15,East,90,4.0,4.0,76,0.00,,,0.00,VWS V14.01,2013-02-23 03:55:00,
2013-02-22 21:56:00,26.8,20.4,30.15,East,90,4.0,4.0,76,0.00,,,0.00,VWS V14.01,2013-02-23 03:56:00,
2013-02-22 21:57:00,26.8,20.4,30.15,East,90,4.0,4.0,76,0.00,,,0.00,VWS V14.01,2013-02-23 03:57:00,
2013-02-22 21:59:00,27.9,19.2,30.12,East,90,0.0,0.0,70,0.00,,,0.00,VWS V14.01,2013-02-23 03:59:00,
2013-02-22 22:00:00,26.8,20.7,30.15,East,90,4.0,4.0,78,0.00,,,0.00,VWS V14.01,2013-02-23 04:00:00,
2013-02-22 22:01:00,26.8,20.7,30.15,East,90,4.0,4.0,78,0.00,,,0.00,VWS V14.01,2013-02-23 04:01:00,
2013-02-22 22:02:00,26.8,20.7,30.15,East,90,2.2,4.0,78,0.00,,,0.00,VWS V14.01,2013-02-23 04:02:00,
2013-02-22 22:03:00,26.8,20.7,30.15,East,90,0.0,2.7,78,0.00,,,0.00,VWS V14.01,2013-02-23 04:03:00,
2013-02-22 22:04:00,27.7,19.4,30.12,East,90,0.0,0.0,70,0.00,,,0.00,VWS V14.01,2013-02-23 04:04:00,
2013-02-22 22:05:00,26.8,20.7,30.15,East,90,0.0,0.0,78,0.00,,,0.00,VWS V14.01,2013-02-23 04:05:00,
2013-02-22 22:06:00,26.8,20.7,30.15,East,90,0.0,0.0,78,0.00,,,0.00,VWS V14.01,2013-02-23 04:06:00,
2013-02-22 22:07:00,26.8,20.7,30.15,East,90,0.0,0.0,78,0.00,,,0.00,VWS V14.01,2013-02-23 04:07:00,
2013-02-22 22:08:00,26.8,20.7,30.15,East,90,0.0,0.0,78,0.00,,,0.00,VWS V14.01,2013-02-23 04:08:00,
2013-02-22 22:09:00,27.5,19.2,30.15,East,90,0.0,0.0,70,0.00,,,0.00,VWS V14.01,2013-02-23 04:09:00,
2013-02-22 22:10:00,26.8,20.7,30.15,ESE,112,0.0,0.0,78,0.00,,,0.00,VWS V14.01,2013-02-23 04:10:00,
2013-02-22 22:11:00,26.8,20.7,30.15,ESE,112,0.0,0.0,78,0.00,,,0.00,VWS V14.01,2013-02-23 04:11:00,
2013-02-22 22:12:00,26.8,20.7,30.15,ESE,112,0.0,0.0,78,0.00,,,0.00,VWS V14.01,2013-02-23 04:12:00,
2013-02-22 22:13:00,26.6,20.8,30.15,ESE,112,0.0,0.0,78,0.00,,,0.00,VWS V14.01,2013-02-23 04:13:00,
2013-02-22 22:14:00,27.3,19.3,30.15,East,90,0.0,0.0,72,0.00,,,0.00,VWS V14.01,2013-02-23 04:14:00,
2013-02-22 22:15:00,26.6,20.8,30.15,ESE,112,0.0,0.0,78,0.00,,,0.00,VWS V14.01,2013-02-23 04:15:00,
2013-02-22 22:16:00,26.6,20.8,30.15,ESE,112,0.0,0.0,78,0.00,,,0.00,VWS V14.01,2013-02-23 04:16:00,
2013-02-22 22:17:00,26.4,20.6,30.15,ESE,112,0.0,0.0,78,0.00,,,0.00,VWS V14.01,2013-02-23 04:17:00,
2013-02-22 22:18:00,26.4,20.6,30.15,ESE,112,0.0,0.0,78,0.00,,,0.00,VWS V14.01,2013-02-23 04:18:00,
2013-02-22 22:19:00,27.3,19.7,30.15,East,90,0.0,0.0,72,0.00,,,0.00,VWS V14.01,2013-02-23 04:19:00,
2013-02-22 22:20:00,26.2,20.5,30.15,ESE,112,0.0,0.0,78,0.00,,,0.00,VWS V14.01,2013-02-23 04:20:00,
2013-02-22 22:21:00,26.2,20.5,30.15,East,90,2.2,2.2,78,0.00,,,0.00,VWS V14.01,2013-02-23 04:21:00,
2013-02-22 22:22:00,26.2,20.5,30.15,East,90,3.1,3.1,78,0.00,,,0.00,VWS V14.01,2013-02-23 04:22:00,
2013-02-22 22:23:00,26.2,20.5,30.15,East,90,2.7,3.6,78,0.00,,,0.00,VWS V14.01,2013-02-23 04:23:00,
2013-02-22 22:24:00,27.1,19.5,30.12,East,90,0.0,0.0,72,0.00,,,0.00,VWS V14.01,2013-02-23 04:24:00,
2013-02-22 22:25:00,26.2,20.5,30.15,East,90,0.0,2.7,78,0.00,,,0.00,VWS V14.01,2013-02-23 04:25:00,
2013-02-22 22:26:00,26.2,20.5,30.15,East,90,0.0,0.0,78,0.00,,,0.00,VWS V14.01,2013-02-23 04:26:00,
2013-02-22 22:27:00,26.2,20.5,30.15,East,90,0.0,0.0,78,0.00,,,0.00,VWS V14.01,2013-02-23 04:27:00,
2013-02-22 22:28:00,26.1,20.6,30.15,East,90,0.0,0.0,80,0.00,,,0.00,VWS V14.01,2013-02-23 04:28:00,
2013-02-22 22:29:00,27.1,19.8,30.12,East,90,5.4,5.4,74,0.00,,,0.00,VWS V14.01,2013-02-23 04:29:00,
2013-02-22 22:30:00,26.1,20.6,30.15,East,90,0.0,2.2,80,0.00,,,0.00,VWS V14.01,2013-02-23 04:30:00,
2013-02-22 22:31:00,26.1,20.6,30.15,East,90,0.0,0.0,80,0.00,,,0.00,VWS V14.01,2013-02-23 04:31:00,
2013-02-22 22:32:00,25.9,20.4,30.15,East,90,0.0,0.0,80,0.00,,,0.00,VWS V14.01,2013-02-23 04:32:00,
2013-02-22 22:33:00,25.9,20.4,30.15,East,90,0.0,0.0,80,0.00,,,0.00,VWS V14.01,2013-02-23 04:33:00,
2013-02-22 22:34:00,27.0,19.6,30.12,East,90,0.0,0.0,74,0.00,,,0.00,VWS V14.01,2013-02-23 04:34:00,
2013-02-22 22:35:00,25.7,20.2,30.15,East,90,0.0,0.0,80,0.00,,,0.00,VWS V14.01,2013-02-23 04:35:00,
2013-02-22 22:36:00,25.7,20.2,30.12,East,90,0.0,0.0,80,0.00,,,0.00,VWS V14.01,2013-02-23 04:36:00,
2013-02-22 22:37:00,25.7,20.2,30.12,East,90,0.0,0.0,80,0.00,,,0.00,VWS V14.01,2013-02-23 04:37:00,
2013-02-22 22:38:00,25.7,20.2,30.12,East,90,0.0,0.0,80,0.00,,,0.00,VWS V14.01,2013-02-23 04:38:00,
2013-02-22 22:39:00,27.0,20.0,30.15,East,90,3.1,3.1,74,0.00,,,0.00,VWS V14.01,2013-02-23 04:39:00,
2013-02-22 22:41:00,25.5,20.4,30.12,East,90,0.0,0.0,80,0.00,,,0.00,VWS V14.01,2013-02-23 04:41:00,
2013-02-22 22:42:00,25.5,20.4,30.12,East,90,0.0,0.0,80,0.00,,,0.00,VWS V14.01,2013-02-23 04:42:00,
2013-02-22 22:43:00,25.5,20.4,30.12,East,90,0.0,0.0,80,0.00,,,0.00,VWS V14.01,2013-02-23 04:43:00,
2013-02-22 22:44:00,26.8,20.1,30.15,East,90,4.0,4.0,76,0.00,,,0.00,VWS V14.01,2013-02-23 04:44:00,
2013-02-22 22:45:00,25.3,20.2,30.12,East,90,0.0,0.0,80,0.00,,,0.00,VWS V14.01,2013-02-23 04:45:00,
2013-02-22 22:46:00,25.3,20.2,30.12,East,90,0.0,0.0,80,0.00,,,0.00,VWS V14.01,2013-02-23 04:46:00,
2013-02-22 22:47:00,25.3,20.2,30.12,East,90,0.0,0.0,80,0.00,,,0.00,VWS V14.01,2013-02-23 04:47:00,
2013-02-22 22:48:00,25.3,20.2,30.12,East,90,0.0,0.0,80,0.00,,,0.00,VWS V14.01,2013-02-23 04:48:00,
2013-02-22 22:49:00,26.6,20.2,30.15,East,90,4.0,4.0,76,0.00,,,0.00,VWS V14.01,2013-02-23 04:49:00,
2013-02-22 22:50:00,25.3,20.5,30.12,East,90,3.6,3.6,82,0.00,,,0.00,VWS V14.01,2013-02-23 04:50:00,
2013-02-22 22:51:00,25.3,20.5,30.12,East,90,0.0,3.6,82,0.00,,,0.00,VWS V14.01,2013-02-23 04:51:00,
2013-02-22 22:52:00,25.3,20.5,30.12,East,90,0.0,0.0,82,0.00,,,0.00,VWS V14.01,2013-02-23 04:52:00,
2013-02-22 22:53:00,25.3,20.5,30.12,East,90,0.0,0.0,82,0.00,,,0.00,VWS V14.01,2013-02-23 04:53:00,
2013-02-22 22:54:00,26.8,20.4,30.15,East,90,4.0,4.0,76,0.00,,,0.00,VWS V14.01,2013-02-23 04:54:00,
2013-02-22 22:55:00,25.2,20.3,30.12,East,90,0.0,0.0,82,0.00,,,0.00,VWS V14.01,2013-02-23 04:55:00,
2013-02-22 22:56:00,25.2,20.3,30.12,East,90,0.0,0.0,82,0.00,,,0.00,VWS V14.01,2013-02-23 04:56:00,
2013-02-22 22:57:00,25.0,20.1,30.12,East,90,0.0,0.0,82,0.00,,,0.00,VWS V14.01,2013-02-23 04:57:00,
2013-02-22 22:58:00,25.0,20.1,30.12,East,90,0.0,0.0,82,0.00,,,0.00,VWS V14.01,2013-02-23 04:58:00,
2013-02-22 22:59:00,26.8,20.7,30.15,East,90,4.0,4.0,78,0.00,,,0.00,VWS V14.01,2013-02-23 04:59:00,
2013-02-22 23:00:00,26.8,20.7,30.15,East,90,4.0,4.0,78,0.00,,,0.00,VWS V14.01,2013-02-23 05:00:00,
2013-02-22 23:01:00,24.8,20.2,30.12,East,90,0.0,0.0,82,0.00,,,0.00,VWS V14.01,2013-02-23 05:01:00,
2013-02-22 23:02:00,24.8,20.2,30.12,East,90,0.0,0.0,82,0.00,,,0.00,VWS V14.01,2013-02-23 05:02:00,
2013-02-22 23:03:00,24.6,20.1,30.12,East,90,0.0,0.0,82,0.00,,,0.00,VWS V14.01,2013-02-23 05:03:00,
2013-02-22 23:04:00,24.6,20.1,30.12,East,90,0.0,0.0,82,0.00,,,0.00,VWS V14.01,2013-02-23 05:04:00,
2013-02-22 23:05:00,26.8,20.7,30.15,East,90,0.0,0.0,78,0.00,,,0.00,VWS V14.01,2013-02-23 05:05:00,
2013-02-22 23:06:00,24.4,19.9,30.12,East,90,0.0,0.0,82,0.00,,,0.00,VWS V14.01,2013-02-23 05:06:00,
2013-02-22 23:07:00,24.4,19.9,30.12,East,90,0.0,0.0,82,0.00,,,0.00,VWS V14.01,2013-02-23 05:07:00,
2013-02-22 23:08:00,24.4,19.9,30.12,East,90,0.0,0.0,82,0.00,,,0.00,VWS V14.01,2013-02-23 05:08:00,
2013-02-22 23:09:00,24.4,19.9,30.12,East,90,0.0,0.0,82,0.00,,,0.00,VWS V14.01,2013-02-23 05:09:00,
2013-02-22 23:10:00,26.8,20.7,30.15,ESE,112,0.0,0.0,78,0.00,,,0.00,VWS V14.01,2013-02-23 05:10:00,
2013-02-22 23:12:00,24.1,19.8,30.12,East,90,0.0,0.0,84,0.00,,,0.00,VWS V14.01,2013-02-23 05:12:00,
2013-02-22 23:13:00,23.9,19.6,30.12,East,90,0.0,0.0,84,0.00,,,0.00,VWS V14.01,2013-02-23 05:13:00,
2013-02-22 23:14:00,23.9,19.6,30.12,East,90,0.0,0.0,84,0.00,,,0.00,VWS V14.01,2013-02-23 05:14:00,
2013-02-22 23:15:00,26.6,20.8,30.15,ESE,112,0.0,0.0,78,0.00,,,0.00,VWS V14.01,2013-02-23 05:15:00,
2013-02-22 23:17:00,23.7,19.5,30.12,East,90,0.0,0.0,84,0.00,,,0.00,VWS V14.01,2013-02-23 05:17:00,
2013-02-22 23:18:00,23.7,19.5,30.12,East,90,0.0,0.0,84,0.00,,,0.00,VWS V14.01,2013-02-23 05:18:00,
2013-02-22 23:19:00,23.5,19.3,30.12,East,90,0.0,0.0,84,0.00,,,0.00,VWS V14.01,2013-02-23 05:19:00,
2013-02-22 23:20:00,26.2,20.5,30.15,ESE,112,0.0,0.0,78,0.00,,,0.00,VWS V14.01,2013-02-23 05:20:00,
2013-02-22 23:21:00,23.5,19.3,30.12,East,90,0.0,0.0,84,0.00,,,0.00,VWS V14.01,2013-02-23 05:21:00,
2013-02-22 23:22:00,23.5,19.3,30.12,East,90,0.0,0.0,84,0.00,,,0.00,VWS V14.01,2013-02-23 05:22:00,
2013-02-22 23:23:00,23.7,19.7,30.12,East,90,0.0,0.0,84,0.00,,,0.00,VWS V14.01,2013-02-23 05:23:00,
2013-02-22 23:24:00,23.9,19.9,30.12,East,90,0.0,0.0,84,0.00,,,0.00,VWS V14.01,2013-02-23 05:24:00,
2013-02-22 23:25:00,26.2,20.5,30.15,East,90,0.0,0.0,78,0.00,,,0.00,VWS V14.01,2013-02-23 05:25:00,
2013-02-22 23:27:00,23.5,19.8,30.12,East,90,0.0,0.0,86,0.00,,,0.00,VWS V14.01,2013-02-23 05:27:00,
2013-02-22 23:28:00,23.5,19.8,30.12,East,90,0.0,0.0,86,0.00,,,0.00,VWS V14.01,2013-02-23 05:28:00,
2013-02-22 23:29:00,23.5,19.8,30.12,East,90,0.0,0.0,86,0.00,,,0.00,VWS V14.01,2013-02-23 05:29:00,
2013-02-22 23:30:00,26.1,20.6,30.15,East,90,0.0,0.0,80,0.00,,,0.00,VWS V14.01,2013-02-23 05:30:00,
2013-02-22 23:31:00,23.5,20.1,30.12,East,90,0.0,0.0,86,0.00,,,0.00,VWS V14.01,2013-02-23 05:31:00,
2013-02-22 23:32:00,23.5,20.1,30.12,East,90,0.0,0.0,86,0.00,,,0.00,VWS V14.01,2013-02-23 05:32:00,
2013-02-22 23:33:00,23.5,20.1,30.12,East,90,0.0,0.0,86,0.00,,,0.00,VWS V14.01,2013-02-23 05:33:00,
2013-02-22 23:34:00,23.7,20.3,30.12,East,90,0.0,0.0,86,0.00,,,0.00,VWS V14.01,2013-02-23 05:34:00,
2013-02-22 23:35:00,25.7,20.2,30.15,East,90,0.0,0.0,80,0.00,,,0.00,VWS V14.01,2013-02-23 05:35:00,
2013-02-22 23:36:00,23.9,20.7,30.09,East,90,0.0,0.0,88,0.00,,,0.00,VWS V14.01,2013-02-23 05:36:00,
2013-02-22 23:37:00,23.9,20.7,30.09,East,90,0.0,0.0,88,0.00,,,0.00,VWS V14.01,2013-02-23 05:37:00,
2013-02-22 23:38:00,23.9,20.7,30.09,East,90,0.0,0.0,88,0.00,,,0.00,VWS V14.01,2013-02-23 05:38:00,
2013-02-22 23:39:00,23.9,20.7,30.09,East,90,0.0,0.0,88,0.00,,,0.00,VWS V14.01,2013-02-23 05:39:00,
2013-02-22 23:40:00,25.5,20.1,30.12,East,90,0.0,0.0,80,0.00,,,0.00,VWS V14.01,2013-02-23 05:40:00,
2013-02-22 23:41:00,23.7,20.6,30.09,East,90,0.0,0.0,88,0.00,,,0.00,VWS V14.01,2013-02-23 05:41:00,
2013-02-22 23:42:00,23.7,20.8,30.09,East,90,0.0,0.0,88,0.00,,,0.00,VWS V14.01,2013-02-23 05:42:00,
2013-02-22 23:43:00,23.7,20.8,30.09,East,90,0.0,0.0,88,0.00,,,0.00,VWS V14.01,2013-02-23 05:43:00,
2013-02-22 23:44:00,23.7,20.8,30.09,East,90,0.0,0.0,88,0.00,,,0.00,VWS V14.01,2013-02-23 05:44:00,
2013-02-22 23:45:00,25.3,20.2,30.12,East,90,0.0,0.0,80,0.00,,,0.00,VWS V14.01,2013-02-23 05:45:00,
2013-02-22 23:46:00,23.5,20.6,30.09,East,90,0.0,0.0,88,0.00,,,0.00,VWS V14.01,2013-02-23 05:46:00,
2013-02-22 23:47:00,23.5,20.6,30.09,East,90,0.0,0.0,88,0.00,,,0.00,VWS V14.01,2013-02-23 05:47:00,
2013-02-22 23:48:00,23.5,20.6,30.09,East,90,0.0,0.0,88,0.00,,,0.00,VWS V14.01,2013-02-23 05:48:00,
2013-02-22 23:49:00,23.5,20.6,30.09,East,90,0.0,0.0,88,0.00,,,0.00,VWS V14.01,2013-02-23 05:49:00,
2013-02-22 23:50:00,25.3,20.5,30.12,East,90,2.2,3.6,82,0.00,,,0.00,VWS V14.01,2013-02-23 05:50:00,
2013-02-22 23:51:00,23.5,20.9,30.09,East,90,0.0,0.0,90,0.00,,,0.00,VWS V14.01,2013-02-23 05:51:00,
2013-02-22 23:52:00,23.5,20.9,30.09,East,90,0.0,0.0,90,0.00,,,0.00,VWS V14.01,2013-02-23 05:52:00,
2013-02-22 23:53:00,23.5,20.9,30.09,East,90,0.0,0.0,90,0.00,,,0.00,VWS V14.01,2013-02-23 05:53:00,
2013-02-22 23:54:00,23.5,20.9,30.09,East,90,0.0,0.0,90,0.00,,,0.00,VWS V14.01,2013-02-23 05:54:00,
2013-02-22 23:55:00,25.2,20.3,30.12,East,90,0.0,0.0,82,0.00,,,0.00,VWS V14.01,2013-02-23 05:55:00,
2013-02-22 23:56:00,23.4,20.7,30.09,ESE,112,0.0,0.0,90,0.00,,,0.00,VWS V14.01,2013-02-23 05:56:00,
2013-02-22 23:57:00,23.5,20.9,30.09,ESE,112,0.0,0.0,90,0.00,,,0.00,VWS V14.01,2013-02-23 05:57:00,
2013-02-22 23:58:00,23.5,20.9,30.09,ESE,112,0.0,0.0,90,0.00,,,0.00,VWS V14.01,2013-02-23 05:58:00,
2013-02-22 23:59:00,23.4,20.7,30.09,ESE,112,0.0,0.0,90,0.00,,,0.00,VWS V14.01,2013-02-23 05:59:00,